[[{"header":{"parameterUnit":"m.s-1","parameterCategory":1,"la1":30.6,"la2":29.2853,"lo1":-89.7004,"lo2":-87.6739,"dy":0.0162,"dx":0.0183,"nx":112,"ny":82,"refTime":"2024-08-21T18:00:00:Z","depth":0,"parameterNumber":2,"parameterNumberName":"U-component_of_WINDS"},"data":[0.0,0.0,0.0,0.0,0.0,0.0,0.0,0.0,0.0,0.0,0.0,0.0,0.0,0.0,0.0,0.0,0.0,0.0,0.0,0.0,0.0,0.0,0.0,0.0,0.0,0.0,0.0,0.0,0.0,0.0,0.0,0.0,0.0,0.0,0.0,0.0,0.0,0.0,0.0,0.0,0.0,0.0,0.0,0.0,0.0,0.0,0.0,0.0,0.0,0.0,0.0,0.0,0.0,0.0,0.0,0.0,0.0,0.0,0.0,0.0,0.0,0.0,0.0,0.0,0.0,0.0,0.0,0.0,0.0,0.0,0.0,0.0,0.0,0.0,0.0,0.0,0.0,0.0,0.0,0.0,0.0,0.0,0.0,0.0,0.0,0.0,0.0,0.0,0.0,0.0,1.2879,1.4386,1.5569,1.6164,1.5924,1.5608,1.4558,1.2485,0.0,0.0,0.0,0.0,0.0,0.0,0.0,0.0,0.0,0.0,0.0,0.0,0.0,0.0,0.0,0.0,0.0,0.0,0.0,0.0,0.0,0.0,0.0,0.0,0.0,0.0,0.0,0.0,0.0,0.0,0.0,0.0,0.0,0.0,0.0,0.0,0.0,0.0,0.0,0.0,0.0,0.0,0.0,0.0,0.0,0.0,0.0,0.0,0.0,0.0,0.0,0.0,0.0,0.0,0.0,0.0,0.0,0.0,0.0,0.0,0.0,0.0,0.0,0.0,0.0,0.0,0.0,0.0,0.0,0.0,0.0,0.0,0.0,0.0,0.0,0.0,0.0,0.0,0.0,0.0,0.0,0.0,0.0,0.0,0.0,0.0,0.0,0.0,0.0,0.0,0.0,0.0,0.0,0.0,0.0,0.0,0.0,0.0,0.0,0.0,0.0,0.0,0.0,0.0,1.3156,1.542,1.5856,1.5939,1.5885,1.5451,1.4449,1.2747,0.0,0.0,0.0,0.0,0.0,0.0,0.0,0.0,0.0,0.0,0.0,0.0,0.0,0.0,0.0,0.0,0.0,0.0,0.0,0.0,0.0,0.0,0.0,0.0,0.0,0.0,0.0,0.0,0.0,0.0,0.0,0.0,0.0,0.0,0.0,0.0,0.0,0.0,0.0,0.0,0.0,0.0,0.0,0.0,0.0,0.0,0.0,0.0,0.0,0.0,0.0,0.0,0.0,0.0,0.0,0.0,0.0,0.0,0.0,0.0,0.0,0.0,0.0,0.0,0.0,0.0,0.0,0.0,0.0,0.0,0.0,0.0,0.0,0.0,0.0,0.0,0.0,0.0,0.0,0.0,0.0,0.0,0.0,0.0,0.0,0.0,0.0,0.0,0.0,0.0,0.0,0.0,0.0,0.0,0.0,0.0,0.0,0.0,0.0,0.0,0.0,0.0,0.0,1.3336,1.4246,1.5953,1.6237,1.6258,1.6137,1.5492,1.4413,1.2792,1.1804,0.0,0.0,0.0,0.0,0.0,0.0,0.0,0.0,0.0,0.0,0.0,0.0,0.0,0.0,0.0,0.0,0.0,0.0,0.0,0.0,0.0,0.0,0.0,0.0,0.0,0.0,0.0,0.0,0.0,0.0,0.0,0.0,0.0,0.0,0.0,0.0,0.0,0.0,0.0,0.0,0.0,0.0,0.0,0.0,0.0,0.0,0.0,0.0,0.0,0.0,0.0,0.0,0.0,0.0,0.0,0.0,0.0,0.0,0.0,0.0,0.0,0.0,0.0,0.0,0.0,0.0,0.0,0.0,0.0,0.0,0.0,0.0,0.0,0.0,0.0,0.0,0.0,0.0,0.0,0.0,0.0,0.0,0.0,0.0,0.0,0.0,0.0,0.0,0.0,0.0,0.0,0.0,0.0,0.0,0.0,0.0,0.0,0.0,0.0,0.0,0.0,0.0,1.4763,1.5425,1.6307,1.6577,1.663,1.6404,1.5463,1.4301,1.2874,1.1553,0.0,0.0,0.0,0.0,0.0,0.0,0.0,0.0,0.0,0.0,0.0,0.0,0.0,0.0,0.0,0.0,0.0,0.0,0.0,0.0,0.0,0.0,0.0,0.0,0.0,0.0,0.0,0.0,0.0,0.0,0.0,0.0,0.0,0.0,0.0,0.0,0.0,0.0,0.0,0.0,0.0,0.0,0.0,0.0,0.0,0.0,0.0,0.0,0.0,0.0,0.0,0.0,0.0,0.0,0.0,0.0,0.0,0.0,0.0,0.0,0.0,0.0,0.0,0.0,0.0,0.0,0.0,0.0,0.0,0.0,0.0,0.0,0.0,0.0,0.0,0.0,0.0,0.0,0.0,0.0,0.0,0.0,0.0,0.0,0.0,0.0,0.0,0.0,0.0,0.0,0.0,0.0,0.0,0.0,0.0,0.0,0.0,0.0,0.0,0.0,0.0,0.0,1.4959,1.6316,1.6634,1.6683,1.6697,1.6683,1.5245,1.3994,1.3131,1.1138,0.0,0.0,0.0,0.0,0.0,0.0,0.0,0.0,0.0,0.0,0.0,0.0,0.0,0.0,0.0,0.0,0.0,0.0,0.0,0.0,0.0,0.0,0.0,0.0,0.0,0.0,0.0,0.0,0.0,0.0,0.0,0.0,0.0,0.0,0.0,0.0,0.0,0.0,0.0,0.0,0.0,0.0,0.0,0.0,0.0,0.0,0.0,0.0,0.0,0.0,0.0,0.0,0.0,0.0,0.0,0.0,0.0,0.0,0.0,0.0,0.0,0.0,0.0,0.0,0.0,0.0,0.0,0.0,0.0,0.0,0.0,0.0,0.0,0.0,0.0,0.0,0.0,0.0,0.0,0.0,0.0,0.0,0.0,0.0,0.0,0.0,0.0,0.0,0.0,0.0,0.0,0.0,0.0,0.0,0.0,0.0,0.0,0.0,0.0,0.0,0.0,0.0,1.4466,1.5738,1.6885,1.6524,1.6418,1.6987,1.5644,1.4332,1.3226,0.0,0.0,0.0,0.0,0.0,0.0,0.0,0.0,0.0,0.0,0.0,0.0,0.0,0.0,0.0,0.0,0.0,0.0,0.0,0.0,0.0,0.0,0.0,0.0,0.0,0.0,0.0,0.0,0.0,0.0,0.0,0.0,0.0,0.0,0.0,0.0,0.0,0.0,0.0,0.0,0.0,0.0,0.0,0.0,0.0,0.0,0.0,0.0,0.0,0.0,0.0,0.0,0.0,0.0,0.0,0.0,0.0,0.0,0.0,0.0,0.0,0.0,0.0,0.0,0.0,0.0,0.0,0.0,0.0,0.0,0.0,0.0,0.0,0.0,0.0,0.0,0.0,0.0,0.0,0.0,0.0,0.0,0.0,0.0,0.0,0.0,0.0,0.0,0.0,0.0,0.0,0.0,0.0,0.0,0.0,0.0,0.0,0.0,0.0,0.0,0.0,0.0,1.3077,1.432,1.5505,1.6661,1.651,1.6457,1.6749,1.5606,1.4345,1.3053,0.0,0.0,0.0,0.0,0.0,0.0,0.0,0.0,0.0,0.0,0.0,0.0,0.0,0.0,0.0,0.0,0.0,0.0,0.0,0.0,0.0,0.0,0.0,0.0,0.0,0.0,0.0,0.0,0.0,0.0,0.0,0.0,0.0,0.0,0.0,0.0,0.0,0.0,0.0,0.0,0.0,0.0,0.0,0.0,0.0,0.0,0.0,0.0,0.0,0.0,0.0,0.0,0.0,0.0,0.0,0.0,0.0,0.0,0.0,0.0,0.0,0.0,0.0,0.0,0.0,0.0,0.0,0.0,0.0,0.0,0.0,0.0,0.0,0.0,0.0,0.0,0.0,0.0,0.0,0.0,0.0,0.0,0.0,0.0,0.0,0.0,0.0,0.0,0.0,0.0,0.0,0.0,0.0,0.0,0.0,0.0,0.0,0.0,0.0,0.0,0.0,0.0,1.2898,1.4677,1.5896,1.5888,1.6669,1.6828,1.5965,1.4974,1.3853,0.0,0.0,0.0,0.0,0.0,0.0,0.0,0.0,0.0,0.0,0.0,0.0,0.0,0.0,0.0,0.0,0.0,0.0,0.0,0.0,0.0,0.0,0.0,0.0,0.0,0.0,0.0,0.0,0.0,0.0,0.0,0.0,0.0,0.0,0.0,0.0,0.0,0.0,0.0,0.0,0.0,0.0,0.0,0.0,0.0,0.0,0.0,0.0,0.0,0.0,0.0,0.0,0.0,0.0,0.0,0.0,0.0,0.0,0.0,0.0,0.0,0.0,0.0,0.0,0.0,0.0,0.0,0.0,0.0,0.0,0.0,0.0,0.0,0.0,0.0,0.0,0.0,0.0,0.0,0.0,0.0,0.0,0.0,0.0,0.0,0.0,0.0,0.0,0.0,0.0,0.0,0.0,0.0,0.0,0.0,0.0,0.0,0.0,0.0,0.0,0.0,0.0,0.0,1.2783,1.4267,1.5439,1.5861,1.5565,1.5512,1.5859,1.4893,1.385,1.2908,0.0,0.0,0.0,0.0,0.0,0.0,0.0,0.0,0.0,0.0,0.0,0.0,0.0,0.0,0.0,0.0,0.0,0.0,0.0,0.0,0.0,0.0,0.0,0.0,0.0,0.0,0.0,0.0,0.0,0.0,0.0,0.0,0.0,0.0,0.0,0.0,0.0,0.0,0.0,0.0,0.0,0.0,0.0,0.0,0.0,0.0,0.0,0.0,0.0,0.0,0.0,0.0,0.0,0.0,0.0,0.0,0.0,0.0,0.0,0.0,0.0,0.0,0.0,0.0,0.0,0.0,0.0,0.0,0.0,0.0,0.0,0.0,0.0,0.0,0.0,0.0,0.0,0.0,0.0,0.0,0.0,0.0,0.0,0.0,0.0,0.0,0.0,0.0,0.0,0.0,0.0,0.0,0.0,0.0,0.0,0.0,0.0,0.0,0.0,0.0,0.0,0.0,1.2489,1.3837,1.4887,1.5328,1.5137,1.503,1.5202,1.4717,1.3896,1.2736,0.0,0.0,0.0,0.0,0.0,0.0,0.0,0.0,0.0,0.0,0.0,0.0,0.0,0.0,0.0,0.0,0.0,0.0,0.0,0.0,0.0,0.0,0.0,0.0,0.0,0.0,0.0,0.0,0.0,0.0,0.0,0.0,0.0,0.0,0.0,0.0,0.0,0.0,0.0,0.0,0.0,0.0,0.0,0.0,0.0,0.0,0.0,0.0,0.0,0.0,0.0,0.0,0.0,0.0,0.0,0.0,0.0,0.0,0.0,0.0,0.0,0.0,0.0,0.0,0.0,0.0,0.0,0.0,0.0,0.0,0.0,0.0,0.0,0.0,0.0,0.0,0.0,0.0,0.0,0.0,0.0,0.0,0.0,0.0,0.0,0.0,0.0,0.0,0.0,0.0,0.0,0.0,0.0,0.0,0.0,0.0,0.0,0.0,0.0,0.0,0.0,0.0,1.2217,1.3502,1.4412,1.4618,1.5102,1.5091,1.4304,1.448,1.3925,1.2282,0.0,0.0,0.0,0.0,0.0,0.0,0.0,0.0,0.0,0.0,0.0,0.0,0.0,0.0,0.0,0.0,0.0,0.0,0.0,0.0,0.0,0.0,0.0,0.0,0.0,0.0,0.0,0.0,0.0,0.0,0.0,0.0,0.0,0.0,0.0,0.0,0.0,0.0,0.0,0.0,0.0,0.0,0.0,0.0,0.0,0.0,0.0,0.0,0.0,0.0,0.0,0.0,0.0,0.0,0.0,0.0,0.0,0.0,0.0,0.0,1.5129,1.4488,0.0,0.0,0.0,0.0,0.0,0.0,0.0,0.0,0.0,0.0,0.0,0.0,0.0,0.0,0.0,0.0,0.0,0.0,0.0,0.0,0.0,0.0,0.0,0.0,0.0,0.0,0.0,0.0,0.0,0.0,0.0,0.0,0.0,0.0,0.0,0.0,0.0,0.0,0.0,0.0,1.2617,1.3757,1.4553,1.482,1.4762,1.4653,1.446,1.4142,1.3627,1.2785,1.1968,0.0,0.0,0.0,0.0,0.0,0.0,0.0,0.0,0.0,0.0,0.0,0.0,0.0,0.0,0.0,0.0,0.0,0.0,0.0,0.0,0.0,0.0,0.0,0.0,0.0,0.0,0.0,0.0,0.0,0.0,0.0,0.0,0.0,0.0,0.0,0.0,0.0,0.0,0.0,0.0,0.0,0.0,0.0,0.0,0.0,0.0,0.0,0.0,0.0,0.0,0.0,0.0,0.0,0.0,0.0,0.0,0.0,0.0,0.0,1.5943,1.5598,0.0,0.0,0.0,0.0,0.0,0.0,0.0,0.0,0.0,0.0,0.0,0.0,0.0,0.0,0.0,0.0,0.0,0.0,0.0,0.0,0.0,0.0,0.0,0.0,0.0,0.0,0.0,0.0,0.0,0.0,0.0,0.0,0.0,0.0,0.0,0.0,0.0,0.0,0.0,0.0,1.2666,1.3737,1.4531,1.5045,1.4857,1.4626,1.4519,1.4282,1.3856,1.3246,1.2614,0.0,0.0,0.0,0.0,0.0,0.0,0.0,0.0,0.0,0.0,0.0,0.0,0.0,0.0,0.0,0.0,0.0,0.0,0.0,0.0,0.0,0.0,0.0,0.0,0.0,0.0,0.0,0.0,0.0,0.0,0.0,0.0,0.0,0.0,0.0,0.0,0.0,0.0,0.0,0.0,0.0,0.0,0.0,0.0,0.0,0.0,0.0,0.0,0.0,0.0,0.0,0.0,0.0,1.7362,1.748,1.8336,1.6848,1.6565,1.7194,1.6171,1.6301,1.7113,1.5675,0.0,0.0,0.0,0.0,0.0,0.0,0.0,0.0,0.0,0.0,0.0,0.0,0.0,0.0,0.0,0.0,0.0,0.0,0.0,0.0,0.0,0.0,1.5326,1.4617,1.5344,1.5582,1.3166,0.0,0.0,0.0,0.0,0.0,0.0,0.0,0.0,0.0,0.0,0.0,1.2824,1.3808,1.4629,1.5279,1.5119,1.4869,1.4648,1.4551,1.4239,1.3668,1.3185,1.2682,0.0,0.0,0.0,0.0,0.0,0.0,0.0,0.0,0.0,0.0,0.0,0.0,0.0,0.0,0.0,0.0,0.0,0.0,0.0,0.0,0.0,0.0,0.0,0.0,0.0,0.0,0.0,0.0,0.0,0.0,0.0,0.0,1.1576,1.2447,0.0,0.0,0.0,0.0,0.0,0.0,0.0,0.0,0.0,0.0,0.0,0.0,0.0,1.7991,1.7201,1.8754,1.8909,1.7691,1.8808,1.9431,1.9556,1.8799,1.8544,1.8568,1.75,0.0,1.6956,1.701,0.0,0.0,0.0,0.0,0.0,0.0,0.0,0.0,0.0,0.0,0.0,0.0,0.0,0.0,0.0,0.0,0.0,0.0,0.0,0.0,0.0,0.0,1.7794,1.7167,1.7515,1.7692,1.6615,1.4863,1.3333,1.2883,1.2273,1.1539,0.0,0.0,0.0,0.0,0.0,0.0,1.3777,1.4603,1.5185,1.5531,1.5322,1.5163,1.5102,1.4716,1.4379,1.4116,1.3672,1.3328,1.3184,1.2226,0.0,0.0,0.0,0.0,0.0,0.0,0.0,0.0,0.0,0.0,0.0,0.0,0.0,0.0,0.0,0.0,0.0,0.0,0.0,0.0,0.0,0.0,0.0,0.0,0.0,0.0,0.0,0.0,0.0,1.1228,1.2712,1.3223,1.3256,1.3113,0.0,0.0,0.0,0.0,0.0,0.0,0.0,0.0,0.0,1.7296,1.8505,1.8766,1.8025,1.8774,1.8864,1.829,1.8345,1.8495,1.8648,1.7829,1.745,1.742,1.6948,1.6768,1.6833,1.6842,1.6608,1.6155,0.0,0.0,0.0,0.0,1.5829,1.6007,1.7093,1.7195,1.6742,1.6407,0.0,0.0,0.0,0.0,0.0,0.0,0.0,1.5676,1.6136,1.7264,1.8208,1.7811,1.8003,1.8201,1.7852,1.683,1.5695,1.4692,1.4214,1.3499,1.2011,1.1734,0.0,0.0,0.0,1.3489,1.4489,1.5125,1.5507,1.5599,1.5475,1.5368,1.5199,1.5006,1.4809,1.46,1.4266,1.4001,1.3861,1.3155,1.2489,0.0,0.0,0.0,0.0,0.0,0.0,0.0,0.0,0.0,0.0,0.0,0.0,0.0,0.0,0.0,0.0,0.0,0.0,0.0,0.0,0.0,0.0,0.0,0.0,0.0,0.0,0.0,0.0,1.2625,1.3933,1.4392,1.4763,1.4773,0.0,0.0,0.0,0.0,0.0,0.0,1.7075,1.7923,1.8363,1.8372,1.9072,1.9126,1.8506,1.8677,1.8676,1.8441,1.7738,1.7537,1.7766,1.7117,1.6794,1.6826,1.69,1.7079,1.7274,1.6809,1.6843,1.7094,1.6174,1.6187,1.6743,1.6982,1.7102,1.7342,1.8641,1.8839,1.8431,1.7828,1.7316,1.6701,1.5262,0.0,0.0,0.0,0.0,1.6643,1.7116,1.779,1.8307,1.8155,1.8318,1.8493,1.8493,1.8275,1.7726,1.6368,1.5994,1.5375,1.3684,1.3374,0.0,1.3274,1.3876,1.4619,1.5423,1.5798,1.5954,1.5845,1.5753,1.5615,1.5325,1.5231,1.512,1.4902,1.4665,1.44,1.4202,1.3793,1.3226,1.2472,0.0,0.0,0.0,0.0,0.0,0.0,0.0,0.0,0.0,0.0,0.0,0.0,0.0,0.0,0.0,0.0,0.0,0.0,0.0,0.0,0.0,0.0,0.0,0.0,0.0,0.0,0.0,0.0,0.0,1.6901,1.726,0.0,0.0,0.0,0.0,1.7303,1.8871,1.9341,1.8287,1.9342,1.9463,1.8343,1.913,1.9138,1.8221,1.8905,1.8655,1.7467,1.7596,1.7682,1.7726,1.8039,1.8206,1.8217,1.8518,1.8697,1.8627,1.765,1.7304,1.7411,1.7649,1.7793,1.7752,1.7208,1.7712,1.8673,1.8516,1.875,1.9287,2.0134,1.9784,1.8942,1.8346,1.7726,0.0,0.0,1.7342,1.7823,1.7851,1.8246,1.8657,1.8669,1.8874,1.9068,1.9068,1.8862,1.85,1.7895,1.7387,1.677,1.5963,0.0,1.5639,1.5387,1.5774,1.6268,1.6832,1.6857,1.6729,1.648,1.622,1.5928,1.561,1.5346,1.512,1.4902,1.4665,1.44,1.4202,1.3943,1.3674,1.3441,1.2526,0.0,0.0,0.0,0.0,0.0,0.0,0.0,0.0,0.0,0.0,0.0,0.0,0.0,0.0,0.0,0.0,0.0,0.0,0.0,0.0,0.0,0.0,0.0,0.0,0.0,0.0,0.0,0.0,1.79,1.873,0.0,1.7283,1.808,1.8177,1.6961,1.8484,1.9133,1.8341,1.9207,1.9322,1.8454,1.9032,1.8819,1.7689,1.7966,1.7892,1.7543,1.7741,1.7951,1.8227,1.8485,1.8631,1.8631,1.8731,1.8933,1.9166,1.8808,1.8518,1.8308,1.8438,1.8657,1.8911,1.912,1.9306,1.953,1.9694,1.96,1.9385,1.9381,1.9018,1.8588,1.8399,1.8178,1.7991,1.8081,1.827,1.8447,1.864,1.8826,1.8971,1.8971,1.9044,1.9104,1.9104,1.9032,1.8613,1.753,1.7633,1.7606,1.685,1.6235,1.5687,1.5227,1.4823,1.464,1.4786,1.4804,1.468,1.4402,1.3996,1.3681,1.356,1.3798,1.3946,1.3867,1.4263,1.4476,1.439,1.4191,1.3879,1.3517,1.3172,1.2202,0.0,0.0,0.0,0.0,0.0,0.0,0.0,0.0,0.0,0.0,0.0,0.0,0.0,0.0,0.0,0.0,0.0,0.0,0.0,0.0,0.0,0.0,0.0,0.0,0.0,1.6646,1.793,1.8326,1.9072,1.8984,1.7536,1.8625,1.8854,1.7476,1.8824,1.9316,1.841,1.9069,1.902,1.8044,1.8376,1.8313,1.7718,1.7772,1.7973,1.8294,1.8384,1.8586,1.8866,1.9151,1.9231,1.9265,1.9401,1.9593,1.983,1.983,1.9661,1.9412,1.9237,1.9334,1.9602,2.0069,2.0102,1.9923,2.0203,2.001,1.9564,1.9128,1.8862,1.8705,1.862,1.8553,1.862,1.877,1.8819,1.8886,1.9056,1.9104,1.9104,1.9104,1.9104,1.9104,1.9104,1.872,1.8118,1.7173,1.7474,1.7503,1.6425,1.5744,1.5258,1.4891,1.4332,1.4001,1.4034,1.3965,1.3793,1.3509,1.3082,1.2758,1.2566,1.2817,1.2901,1.2765,1.3097,1.3283,1.3214,1.3396,1.3354,1.3018,1.2817,1.1845,1.0089,0.0,0.0,0.0,0.0,0.0,0.0,0.0,0.0,0.0,0.0,0.0,0.0,0.0,0.0,0.0,0.0,0.0,0.0,0.0,0.0,0.0,0.0,0.0,1.6513,1.728,1.7887,1.8256,1.8341,1.8072,1.7304,1.8384,1.9113,1.9013,2.0156,2.0136,1.8524,1.9016,1.8631,1.7087,1.7292,1.7729,1.8317,1.8494,1.8945,1.9599,1.9529,1.9564,1.9645,1.997,2.011,2.0144,2.0527,2.07,2.07,2.07,2.07,2.0652,2.0144,1.9905,1.9905,1.9905,1.9905,1.9905,1.9905,1.9893,1.9878,1.96,1.9515,1.9467,1.9136,1.9052,1.9052,1.8988,1.8988,1.8988,1.8968,1.9,1.8988,1.8988,1.8976,1.8976,1.8976,1.7893,1.6915,1.6883,1.6883,1.6389,1.4789,1.4495,1.4463,1.4463,1.4399,0.0,1.4754,1.453,1.4271,1.3938,1.364,1.3318,1.2847,1.2457,1.2094,1.1664,1.1255,1.0914,1.0724,1.1576,1.2064,1.2073,1.1403,1.0435,0.9129,0.0,0.0,0.0,0.0,0.0,0.0,0.0,0.0,0.0,0.0,0.0,0.0,0.0,0.0,0.0,0.0,0.0,0.0,0.0,0.0,0.0,1.4996,1.5977,1.585,1.7291,1.8374,1.8496,1.9105,1.9109,1.8013,1.921,1.9216,1.7207,1.8536,1.88,1.7269,1.791,1.8114,1.7664,1.8139,1.8496,1.8664,1.8732,1.9072,1.9668,1.9656,1.9899,2.0388,2.0492,2.0527,2.0527,2.0631,2.07,2.07,2.07,2.07,2.0688,2.0543,2.0483,2.0483,2.0483,2.0362,2.0204,2.0204,2.005,1.9869,1.9796,1.9805,1.9558,1.8256,1.7882,1.7609,1.6505,1.6209,1.6217,1.6312,1.6264,1.6209,1.6209,1.613,1.6051,1.6051,1.5749,1.5163,1.4152,1.3955,1.4134,1.4697,1.3941,1.3257,1.3257,1.2416,1.1783,1.1861,1.179,1.1702,1.1603,1.1229,1.0952,1.0813,1.1016,1.0958,1.0509,1.0939,1.1141,1.0932,1.1174,1.1348,1.1462,1.0694,1.0155,0.0,0.0,0.0,0.0,0.0,0.0,0.0,0.0,0.0,0.0,0.0,0.0,0.0,0.0,0.0,0.0,0.0,0.0,0.0,0.0,0.0,0.0,1.5454,1.6113,1.562,1.708,1.8235,1.8407,1.8542,1.831,1.7476,1.8447,1.8435,1.6719,1.7842,1.8231,1.738,1.8028,1.8429,1.8429,1.888,1.9221,1.9357,1.9357,1.9609,2.0139,2.0139,2.0314,2.07,2.07,2.07,2.07,2.07,2.07,2.07,2.07,2.07,2.07,0.0,0.0,0.0,0.0,2.0189,1.9496,1.9496,1.8981,1.8289,1.819,1.8157,1.7944,1.6858,1.6519,1.6319,1.5438,1.517,1.5198,1.5285,1.522,1.517,1.517,1.5119,1.5068,1.5068,1.4563,1.3848,1.3054,1.2369,0.0,1.3013,1.2454,1.1934,1.1934,1.1214,1.0684,1.0684,1.0684,1.0684,1.0684,1.0478,1.0267,1.0208,1.029,0.0,0.0,0.0,1.0426,1.0703,1.0711,0.0,0.0,0.0,0.0,0.0,0.0,0.0,0.0,0.9945,1.016,0.0,0.0,0.0,0.0,0.0,0.0,0.0,0.0,0.0,0.0,0.0,0.0,0.0,0.0,0.0,0.0,1.546,1.6063,1.5642,1.6635,1.7542,1.7876,1.7137,1.653,1.6264,1.6926,1.727,1.7023,1.7807,1.8295,1.8272,1.8902,0.0,0.0,0.0,1.9773,2.0062,2.0062,2.0282,2.0664,2.0688,2.0724,2.0749,2.0785,2.0797,2.0797,2.0797,2.0797,2.0797,2.0797,2.0797,2.0785,2.0724,2.0596,2.0457,2.0457,1.9471,1.8121,1.8121,0.0,0.0,1.5809,1.5753,1.5681,1.5236,1.5112,1.5078,1.4907,1.4873,1.4848,1.4866,1.4857,1.4873,1.4873,1.4855,1.4837,1.4837,1.3756,1.2797,1.2797,1.1684,1.0765,1.0718,1.0698,1.0684,1.0684,1.0684,1.0684,1.0684,1.0684,1.0684,1.0684,1.0684,0.0,1.0527,1.0121,0.9817,0.9618,0.918,0.9329,1.0158,1.0217,1.0144,0.9971,0.9992,0.957,0.8739,0.8756,0.9058,0.9625,0.9927,1.0104,0.0,0.0,0.0,0.0,0.0,0.0,0.0,0.0,0.0,0.0,0.0,0.0,0.0,0.0,0.0,1.5508,1.5975,1.6064,1.5443,1.5898,1.6233,1.6055,1.6193,1.6166,1.5853,1.6622,1.7098,1.7001,1.8262,1.8914,1.8709,1.9288,1.9597,1.9597,1.975,1.987,1.9937,1.9937,2.0079,2.0386,2.0603,0.0,2.1027,2.1256,2.1365,2.1365,2.1365,2.1365,2.1365,2.1365,2.1365,2.1317,2.0869,1.9924,1.8832,1.8832,1.7865,1.6554,1.6554,1.6343,1.6087,1.6049,1.6039,1.5791,1.4405,1.4007,0.0,1.249,1.2147,1.2176,1.2307,1.2242,1.2147,1.2147,1.208,1.1986,1.1986,1.175,1.1557,1.1557,1.1303,1.1043,1.0887,1.0772,1.0684,1.0684,1.0684,1.0684,1.0684,1.0684,1.0684,1.0684,1.0684,1.0677,1.0644,1.0469,1.0192,0.9792,0.9412,0.9318,0.9481,0.9703,0.9804,0.9764,0.9871,0.9844,0.9645,0.9753,0.998,1.0298,0.9959,0.9967,0.0,0.0,0.0,0.0,0.0,0.0,0.0,0.0,0.0,0.0,0.0,1.4201,1.4498,0.0,1.5248,1.554,1.5523,1.5374,1.5216,1.5537,1.5696,1.5522,1.581,1.5969,1.585,1.6506,1.6877,1.6815,1.7657,1.8337,1.8688,1.9141,1.9586,2.0007,2.0343,2.0507,2.0507,2.0082,1.9969,2.0098,1.9715,1.9877,2.0486,2.0626,2.0983,2.151,2.151,2.151,2.1438,2.0596,2.0258,2.0127,1.9068,1.8649,1.8588,1.7791,1.6525,1.5209,1.5112,1.4576,1.3957,1.3868,1.3844,1.3686,1.2897,1.2662,1.2484,1.1718,1.1504,1.1525,1.1563,1.1565,1.1504,1.1504,1.145,1.1389,1.1389,1.137,1.1308,1.1308,1.1247,1.1172,1.107,1.0995,1.0894,1.0744,1.0684,1.0684,1.0684,1.0684,1.0684,1.0684,1.0684,1.0684,1.0684,1.0649,1.0509,1.0273,1.0104,1.0039,1.011,1.0225,1.0267,1.0162,1.0231,1.0197,1.0093,1.0228,1.05,1.0886,1.0742,1.0706,0.0,0.0,0.0,0.0,0.0,0.0,0.0,1.2778,1.3148,1.3924,1.4345,1.4636,1.4801,1.4973,1.5098,1.5153,1.4947,1.4804,1.4933,1.5206,1.5346,1.528,1.5507,1.5707,1.5728,1.6202,1.6513,1.6537,1.7016,1.765,1.8445,1.8808,1.929,1.9907,2.0391,2.0604,2.0592,1.9944,1.9614,1.9614,1.8834,1.8902,1.9693,1.9738,2.0339,2.133,2.1232,2.1183,2.1038,1.9361,1.8702,1.8508,1.6887,1.7072,1.802,1.6646,1.5183,1.3874,1.3741,1.2897,1.1813,1.1708,1.1624,1.1617,1.159,1.1584,1.1584,1.1584,1.1584,1.1584,1.1584,1.1584,1.1584,1.1584,1.1584,1.1584,1.1584,1.1525,1.1436,1.1436,1.1335,1.1274,1.1247,1.1171,1.1035,1.0779,1.0732,1.0718,1.0691,1.0684,1.0684,1.0684,1.0684,1.0684,1.0684,1.0718,1.0732,1.0732,1.0792,1.086,1.0948,1.0955,1.0885,1.0755,1.0755,1.0665,1.0482,1.0659,1.0905,1.126,1.1453,1.1485,0.9954,1.0032,1.0703,1.1617,1.2316,1.3139,0.0,1.4524,1.4579,1.497,1.48,1.46,1.4637,1.4655,1.4648,1.4585,1.5042,1.5144,1.4493,1.4716,1.4866,1.4572,1.4978,1.5157,1.4882,1.5419,1.5948,1.6315,1.7135,1.7786,1.8046,1.8501,1.8701,1.8624,1.885,1.8883,1.87,1.8619,1.8549,1.856,1.8684,1.8828,1.8931,1.9174,1.984,2.0748,2.021,1.9999,1.9849,1.8258,1.7577,1.7426,1.5756,1.5184,1.5295,1.4745,1.3601,1.2352,1.2338,1.2219,1.205,1.1857,1.1773,1.1746,1.1624,1.1584,1.1584,1.1584,1.1584,1.1584,1.1584,1.1584,1.1584,1.1584,1.1584,1.1584,1.1584,1.1606,1.1592,1.1592,1.1579,1.1525,1.1389,1.108,1.0848,1.0867,1.0887,1.084,1.0704,1.0684,1.0684,1.0684,1.0684,1.0684,1.0684,1.0813,1.0887,1.0887,1.1043,1.1152,1.1172,1.1172,1.1212,1.1327,1.1298,1.1255,1.1089,1.1467,1.1434,1.1024,1.1048,1.1479,1.2061,1.1854,1.1816,1.2769,1.3536,1.4182,1.457,1.4839,1.4998,1.5022,1.4891,1.473,1.4619,1.425,1.4043,1.4235,1.428,1.431,1.4333,1.4405,1.447,1.4493,1.4707,1.4833,1.4823,1.5063,1.5433,1.5851,1.6253,1.6793,1.7565,1.7762,1.8026,1.8377,1.8613,1.8735,1.8627,1.8201,1.7988,1.7988,1.7496,1.7653,1.8332,1.8461,1.8617,1.8714,1.7464,1.7198,1.7512,1.5922,1.551,1.5778,1.4137,1.3491,1.3438,1.3039,1.2654,1.2305,1.1996,1.2007,1.2207,1.2013,1.1904,1.1786,1.1726,1.1651,1.1584,1.1584,1.1584,1.1584,1.1584,1.1584,1.1584,1.1584,1.1404,1.126,1.126,1.1109,1.0966,1.0966,1.0966,1.0946,1.0882,1.0733,1.0593,1.0509,1.02,0.994,0.9878,0.9637,0.9489,0.9489,0.9489,0.9585,0.9866,0.9928,1.0098,1.035,1.0476,1.054,1.063,1.063,1.0693,1.087,1.0917,1.091,1.0841,1.1188,1.1101,1.0641,1.0718,1.0987,1.3078,1.299,1.2886,1.3767,1.4476,1.4977,1.4934,1.4966,1.502,1.4922,1.4687,1.4413,1.4278,1.371,1.3403,1.3873,1.3689,1.3685,1.4382,1.4336,1.4359,1.4649,1.4634,1.4682,1.488,1.4898,1.5078,1.556,1.5598,1.6019,1.6936,1.7051,1.7288,1.7791,1.8045,1.8139,1.8086,1.7171,1.6688,1.6652,1.5552,1.5478,1.6324,1.66,1.6554,1.6215,1.4849,1.4643,1.5141,1.3507,1.3245,1.3791,1.261,1.2153,1.2114,1.1688,1.196,1.2449,1.2079,1.2116,1.2325,1.2213,1.2047,1.1915,1.1904,1.1789,1.1681,1.1681,1.1611,1.1584,1.1476,1.144,1.1404,1.1332,1.1074,1.0858,1.0858,1.0678,1.0491,1.0491,1.0491,1.0491,1.0491,1.0419,1.0281,1.0149,0.9556,0.9194,0.9473,0.9183,0.8991,0.8991,0.8991,0.9126,0.9456,0.9531,0.9699,1.0037,1.0109,1.0176,1.0273,1.0279,1.0376,1.051,1.0572,1.0583,1.0551,1.0742,1.0582,1.0119,1.0092,1.0163,1.1767,1.2408,1.3309,1.4249,1.4852,1.5325,1.5836,1.5251,1.469,1.4933,1.4125,1.3358,1.3335,1.2953,1.284,1.3519,1.3587,1.384,1.4588,1.4633,1.4672,1.487,1.4719,1.4682,1.488,1.4898,1.5078,1.556,1.5598,1.5778,1.6195,1.6403,1.6458,1.6259,1.6449,1.6494,1.6268,1.4824,1.4111,1.412,1.2698,1.2064,1.2115,1.3079,1.3521,1.3506,1.286,1.2814,1.3045,1.1366,1.099,1.1417,1.1378,1.134,1.1262,1.0796,1.1417,1.2501,1.2494,1.2494,1.2474,1.2332,1.2277,1.225,1.2139,1.1945,1.1786,1.1786,1.1692,1.1512,1.1116,1.1008,1.0936,1.0599,1.0527,1.0527,1.0527,1.0527,1.0491,1.0491,1.0491,1.0491,1.0491,1.0167,0.9915,0.9909,0.9157,0.8968,0.9856,0.9977,0.9977,0.9977,0.9977,0.9977,0.9983,1.0104,1.0177,1.0183,1.037,1.0479,1.0485,1.0485,1.051,1.0614,1.0584,1.0531,1.0412,1.0407,1.0092,0.9436,0.9051,0.8909,1.2828,1.3109,1.337,1.453,1.461,1.445,1.4628,1.4416,1.4144,1.4017,1.335,1.2738,1.2586,1.2581,1.2758,1.3202,1.3011,1.2987,1.3444,1.3376,1.2947,1.2076,1.2759,1.2947,1.2051,1.3744,1.4671,1.4113,1.4121,1.386,1.3241,1.3273,1.3753,1.4716,1.3778,1.3742,1.4716,1.3245,1.2524,1.2594,1.2258,1.2107,1.2076,1.1453,1.1286,1.1478,1.0186,1.0169,1.1017,1.0441,1.0641,1.1301,1.1301,1.1301,1.1262,1.1107,1.134,1.1688,1.1688,1.2037,1.2494,1.2447,1.2366,1.2239,1.1927,1.1696,1.146,1.12,1.1025,1.0918,1.0778,1.071,1.0635,1.0527,1.0311,1.0095,1.0095,0.9879,0.9699,0.9699,0.9699,0.9699,0.9699,0.959,0.9482,0.9482,0.899,0.8585,0.8611,0.8601,0.8601,0.8601,0.8601,0.8737,0.9057,0.9101,0.9267,0.96,0.9676,0.9699,0.9699,0.9784,0.9328,0.8219,0.8089,0.7427,0.6302,0.6116,0.5761,0.5204,0.5086,0.5102,1.2999,1.3166,1.3307,1.438,1.4332,1.4005,1.4081,1.3802,1.3487,1.3253,1.258,1.1904,1.1481,1.1468,1.1595,1.1879,1.1637,1.1585,1.2055,1.2007,1.1589,1.0664,1.1375,1.1578,1.0705,1.2363,1.3259,1.2624,1.266,1.2379,1.1685,1.1673,1.2138,1.3166,1.2185,1.2177,1.3249,1.1754,1.0778,1.0343,1.0462,1.0641,1.0765,0.9841,0.9625,1.0021,0.8967,0.9046,0.9908,0.9908,1.0347,1.097,1.0923,1.0906,1.09,1.0853,1.0913,1.1068,1.1223,1.165,1.2076,1.2076,1.2017,1.1906,1.1638,1.1422,1.1202,1.0938,1.0766,1.0656,1.0472,1.0443,1.0346,1.0237,0.9983,0.9767,0.9767,0.9515,0.9302,0.9302,0.9302,0.9085,0.8394,0.7697,0.7227,0.7227,0.6961,0.7153,0.8273,0.8404,0.8404,0.8404,0.8404,0.8257,0.7857,0.7826,0.7634,0.7259,0.7366,0.746,0.746,0.7666,0.7286,0.6234,0.5945,0.5314,0.4258,0.378,0.3404,0.3091,0.2949,0.3025,1.2298,1.2683,1.3133,1.3793,1.3882,1.3868,1.4014,1.3224,1.2457,1.247,1.1674,1.0771,1.0018,0.9658,0.9532,0.9717,0.9642,0.9792,1.0511,1.0605,1.059,1.0505,1.0557,1.0622,1.0616,1.0719,1.0898,1.1078,1.1197,1.1312,1.1368,1.1464,1.15,1.1617,1.153,1.1566,1.1786,1.03,0.8895,0.7525,0.7529,0.7814,0.8335,0.834,0.8633,0.9128,0.9128,0.9411,0.9814,0.9814,1.0056,1.0373,1.0253,1.0204,1.0188,1.0063,1.0253,1.0641,1.1068,1.1262,1.1301,1.1301,1.1301,1.1301,1.1262,1.1138,1.0964,1.0964,1.0867,1.0652,1.0277,1.0197,1.0078,0.9779,0.9616,0.9497,0.9497,0.9405,0.9282,0.9168,0.909,0.843,0.6576,0.4721,0.3522,0.3522,0.3522,0.4863,0.8538,0.9013,0.9013,0.9049,0.9013,0.8249,0.6431,0.629,0.5489,0.3633,0.39,0.4115,0.4115,0.4502,0.4674,0.4652,0.4271,0.4065,0.4073,0.321,0.2819,0.2781,0.2419,0.2528,1.2538,1.2669,1.2773,1.3341,1.2309,1.1119,1.0972,0.9949,0.909,0.9254,0.8721,0.823,0.8222,0.8622,0.9002,0.9045,0.9038,0.9047,0.9176,0.9337,0.9049,0.8004,0.8832,0.9116,0.8131,0.8163,0.8275,0.8299,0.9202,0.9387,0.8516,0.8474,0.9018,1.0184,0.9055,0.9028,1.0268,0.8789,0.8045,0.8041,0.8067,0.8348,0.8812,0.8892,0.914,0.9612,0.9612,0.9854,1.0263,1.0263,1.0303,1.0373,1.0253,1.0204,1.0188,1.0063,1.0058,1.0175,1.0291,1.0758,1.1301,1.1301,1.1301,1.1223,1.0874,1.0734,1.0634,1.0324,1.0157,1.0019,0.9943,0.9882,0.9822,0.9709,0.9682,0.966,0.966,0.9633,0.9139,0.7607,0.6031,0.4827,0.432,0.3812,0.3594,0.3885,0.3957,0.4211,0.49,0.4972,0.5081,0.541,0.5153,0.49,0.4721,0.4689,0.4459,0.3978,0.4327,0.4544,0.4544,0.4677,0.4065,0.2502,0.2212,0.1289,-0.0314,-0.0824,-0.1104,-0.1153,-0.1237,-0.1211,1.2265,1.2384,1.247,1.2674,1.1416,1.0097,0.9843,0.8725,0.7743,0.7813,0.7437,0.7019,0.6852,0.7214,0.747,0.7332,0.7454,0.7617,0.7728,0.7931,0.7757,0.6908,0.7661,0.7925,0.7137,0.715,0.7203,0.7203,0.7968,0.8088,0.7405,0.737,0.7808,0.8683,0.7798,0.7892,0.9025,0.824,0.8037,0.8471,0.8567,0.8875,0.9362,0.943,0.9708,1.0209,1.0209,1.0331,1.0541,1.0541,1.0541,1.053,1.0405,1.0397,1.0335,0.9969,0.9944,1.0056,0.9807,1.0175,1.0719,1.0719,1.0719,1.068,1.0408,1.033,1.0291,1.0058,0.9932,0.9878,0.9878,0.9873,0.9824,0.9824,0.9211,0.864,0.864,0.8031,0.7156,0.5982,0.3992,0.2534,0.2695,0.1839,0.1322,0.1699,0.1775,0.17,0.1478,0.2941,0.4111,0.4356,0.4174,0.3768,0.3104,0.3051,0.269,0.1831,0.2155,0.2361,0.2361,0.2428,0.1863,0.0699,0.0354,-0.0514,-0.19,-0.2109,-0.2363,-0.2618,-0.2592,-0.2616,1.1801,1.2085,1.2241,1.1884,1.0827,0.9753,0.9345,0.8115,0.7011,0.6947,0.6653,0.626,0.5613,0.5648,0.5677,0.5431,0.574,0.6129,0.6452,0.6731,0.6879,0.677,0.695,0.7117,0.7047,0.7105,0.7112,0.7121,0.7313,0.737,0.7322,0.7412,0.747,0.7559,0.7598,0.783,0.8312,0.8312,0.8508,0.8939,0.908,0.9377,0.9921,0.9994,1.0267,1.0695,1.0695,1.0695,1.0695,1.0695,1.0695,1.0684,1.0642,1.0599,1.053,0.9907,0.9903,1.0069,0.9654,0.9685,0.9942,0.998,0.998,0.998,0.998,0.998,0.998,0.998,0.998,0.998,0.998,0.9825,0.9669,0.9669,0.8306,0.7011,0.7011,0.5571,0.4316,0.4316,0.2437,0.0896,0.117,-0.0487,-0.1757,-0.1323,-0.1287,-0.125,-0.1138,0.1835,0.3952,0.3997,0.3964,0.3247,0.155,0.1401,0.0683,-0.1024,-0.0729,-0.0502,-0.0502,-0.0586,-0.0628,-0.0707,-0.1152,-0.1599,-0.1999,-0.1982,-0.2198,-0.2608,-0.2594,-0.2607,1.2166,1.2393,1.225,1.0984,0.9659,0.8281,0.6749,0.523,0.4073,0.3904,0.3997,0.4048,0.3933,0.4505,0.5086,0.5348,0.5818,0.6259,0.646,0.6784,0.6962,0.6945,0.7117,0.7297,0.7313,0.731,0.7306,0.7337,0.7439,0.7464,0.7374,0.7564,0.7846,0.8286,0.8647,0.8852,0.8955,0.8955,0.9191,0.9632,0.9708,1.0014,1.0449,1.0526,1.059,1.0695,1.0695,1.0695,1.0695,1.0695,1.0695,1.0684,1.0642,1.0599,1.0582,1.0325,1.0012,0.9724,0.9979,0.9832,0.9553,0.9903,0.998,0.998,0.998,0.998,0.998,0.998,0.998,0.998,0.998,0.8964,0.7946,0.7946,0.6644,0.5387,0.5387,0.3831,0.238,0.238,0.0418,-0.1246,-0.1211,-0.1814,-0.2153,-0.1741,-0.1704,-0.1444,-0.0806,-0.038,-0.0038,0.0303,0.0038,-0.0189,-0.0189,-0.0191,-0.0346,-0.0692,-0.0311,-0.0117,-0.0117,-0.0431,-0.0785,-0.1178,-0.159,-0.2039,-0.248,-0.2468,-0.2533,-0.2598,-0.2603,-0.262,1.1366,1.1332,1.112,0.9656,0.8235,0.6919,0.5799,0.4344,0.3221,0.3166,0.3282,0.3447,0.3615,0.4225,0.4769,0.4994,0.5443,0.5923,0.6292,0.6575,0.6834,0.7031,0.7215,0.7318,0.7359,0.7326,0.7318,0.7359,0.7448,0.7529,0.7568,0.7898,0.8232,0.8482,0.8886,0.9209,0.9451,0.9451,0.9693,1.0101,1.0213,1.0394,1.0599,1.0683,1.0695,1.0695,1.0695,1.0695,1.0695,1.0695,1.0695,1.069,1.0672,1.065,1.0592,1.0275,1.0114,1.0086,0.9685,0.9687,0.9792,0.9729,0.9825,0.998,0.998,0.998,0.998,0.998,0.9236,0.837,0.837,0.7002,0.5591,0.5591,0.4263,0.2781,0.1921,0.0937,0.0233,0.0233,-0.0848,-0.1762,-0.1581,-0.1843,-0.1954,-0.1581,-0.1544,-0.1392,-0.1011,-0.1123,-0.1003,-0.0347,-0.0656,-0.0733,-0.0309,-0.0466,-0.0584,-0.0584,-0.0431,-0.0432,-0.0668,-0.0864,-0.1182,-0.1586,-0.1805,-0.2145,-0.2605,-0.2387,-0.2407,-0.2671,-0.2671,-0.2679,1.0482,1.0274,0.9993,0.8323,0.6986,0.589,0.5216,0.4071,0.3155,0.3184,0.3278,0.3431,0.3703,0.414,0.4519,0.4704,0.5035,0.5471,0.6072,0.6378,0.667,0.7047,0.7194,0.7314,0.7355,0.7322,0.7364,0.7494,0.7747,0.7882,0.7877,0.8473,0.8806,0.8829,0.9236,0.9602,1.0008,1.0008,1.013,1.046,1.0552,1.0637,1.0637,1.0693,1.0695,1.0695,1.0695,1.0695,1.0695,1.0695,1.0695,1.0695,1.0695,1.0695,1.0643,1.0216,1.0251,1.0321,0.9467,0.9506,0.9866,0.9438,0.9597,0.998,0.998,0.9708,0.9353,0.9353,0.7825,0.6218,0.6218,0.473,0.3167,0.2777,0.1645,0.0314,-0.1021,-0.1296,-0.1296,-0.1296,-0.1598,-0.1748,-0.149,-0.1714,-0.1865,-0.1608,-0.1571,-0.1532,-0.1454,-0.1493,-0.1217,-0.0353,-0.055,-0.0628,-0.0314,-0.055,-0.0746,-0.0746,-0.0746,-0.0903,-0.1296,-0.1378,-0.1584,-0.1879,-0.1987,-0.2214,-0.2606,-0.2301,-0.2356,-0.2692,-0.2692,-0.2692,1.026,1.0161,0.9785,0.7204,0.6294,0.5658,0.4264,0.3594,0.3261,0.3213,0.3356,0.3521,0.361,0.3806,0.4153,0.4704,0.4834,0.5134,0.5922,0.6362,0.6684,0.697,0.7195,0.7363,0.7484,0.7358,0.7553,0.8155,0.8801,0.8961,0.852,0.9308,0.9809,0.9956,1.033,1.058,1.0621,1.0621,1.0621,1.0663,1.0674,1.0679,1.0679,1.069,1.0695,1.0695,1.0695,1.0695,1.0695,1.0695,1.0695,1.0695,1.0695,1.0695,1.0695,1.0643,1.0361,0.9922,0.9799,0.9447,0.907,0.8929,0.9363,0.998,0.998,0.8686,0.7197,0.7197,0.5669,0.4105,0.4105,0.2778,0.1058,-0.0471,-0.0942,-0.1099,-0.1256,-0.1296,-0.1296,-0.1296,-0.1609,-0.1884,-0.1846,-0.2158,-0.2433,-0.2396,-0.2396,-0.2239,-0.1886,-0.216,-0.2082,-0.1256,-0.1217,-0.1217,-0.1178,-0.1217,-0.1217,-0.1217,-0.1217,-0.1256,-0.1296,-0.1667,-0.1877,-0.1879,-0.2329,-0.2562,-0.2606,-0.2636,-0.265,-0.2692,-0.2692,-0.2692,0.9062,0.8787,0.8497,0.576,0.4872,0.4502,0.3781,0.3397,0.3194,0.3239,0.3365,0.3465,0.3573,0.3742,0.3973,0.4369,0.4479,0.4777,0.5541,0.5912,0.6284,0.6774,0.6977,0.7298,0.7881,0.7838,0.8097,0.885,0.9465,0.9713,0.9506,0.9838,1.0024,1.0112,1.0487,1.0695,1.0695,1.0695,1.0695,1.0695,1.0695,1.0695,1.0695,1.0695,1.0695,1.0695,1.0695,1.0695,1.0695,1.0695,1.0695,1.0695,1.0695,1.0695,1.0695,1.0695,1.0538,1.0309,0.9632,0.9421,0.9357,0.8678,0.815,0.8024,0.928,0.8375,0.6885,0.6885,0.4459,0.1878,0.1878,0.0431,-0.1177,-0.1846,-0.2003,-0.2003,-0.2003,-0.2003,-0.2003,-0.2003,-0.216,-0.2278,-0.2278,-0.2396,-0.2514,-0.2514,-0.2514,-0.2435,-0.2278,-0.2396,-0.2396,-0.2043,-0.1807,-0.1571,-0.1336,-0.1532,-0.165,-0.165,-0.165,-0.1768,-0.2003,-0.1933,-0.2031,-0.2301,-0.2486,-0.2638,-0.2675,-0.2687,-0.2692,-0.2692,-0.2692,-0.2692,0.7695,0.747,0.7402,0.4797,0.4013,0.3819,0.3619,0.3441,0.3351,0.3384,0.3423,0.3479,0.3588,0.3658,0.3801,0.4083,0.4202,0.4543,0.5303,0.5639,0.5998,0.6578,0.6745,0.7172,0.81,0.8489,0.8938,0.9479,0.9982,1.0237,1.0112,1.0112,1.0153,1.0278,1.0445,1.0529,1.0529,1.0529,1.0529,1.0529,1.0654,1.0695,1.0695,1.0695,1.0695,1.0695,1.0695,1.0695,1.0695,1.0695,1.0695,1.0695,1.0695,1.0695,1.0695,1.0695,1.0695,1.058,0.9647,0.9107,0.8688,0.7769,0.652,0.5636,0.7084,0.6378,0.5045,0.5045,0.2465,-0.0314,-0.0314,-0.1413,-0.2514,-0.2514,-0.2514,-0.2514,-0.2514,-0.2514,-0.2514,-0.2514,-0.2514,-0.2514,-0.2514,-0.2514,-0.2514,-0.2514,-0.2514,-0.2514,-0.2514,-0.2514,-0.2435,-0.2318,-0.2082,-0.1768,-0.1493,-0.1728,-0.1886,-0.1886,-0.1886,-0.2082,-0.2475,-0.2246,-0.2272,-0.2601,-0.2611,-0.2641,-0.2692,-0.2692,-0.2692,-0.2692,-0.2566,-0.2402,0.6228,0.6444,0.6874,0.4568,0.4039,0.4033,0.3754,0.3799,0.3826,0.3643,0.3588,0.3607,0.3607,0.3542,0.3622,0.3956,0.4108,0.4474,0.5295,0.5639,0.598,0.6436,0.6619,0.7084,0.8002,0.9294,1.0065,1.007,1.0487,1.0529,1.0112,1.0112,1.0278,1.0695,1.032,1.0112,1.0112,1.0112,1.0112,1.0112,1.0529,1.0695,1.0695,1.0695,1.0695,1.0695,1.0695,1.0695,1.0695,1.0695,1.0695,1.0695,1.0695,1.0695,1.0695,1.0695,1.0695,1.0637,1.0061,0.8472,0.6553,0.5998,0.4623,0.313,0.3169,0.1996,0.0666,0.0666,-0.0863,-0.2475,-0.2475,-0.2475,-0.2514,-0.2514,-0.2514,-0.2514,-0.2514,-0.2514,-0.2514,-0.2514,-0.2514,-0.2514,-0.2514,-0.2514,-0.2514,-0.2514,-0.2514,-0.2514,-0.2514,-0.2514,-0.2357,-0.1964,-0.1886,-0.1886,-0.1886,-0.1886,-0.1886,-0.1886,-0.1886,-0.2082,-0.2475,-0.2544,-0.2613,-0.2601,-0.259,-0.262,-0.2692,-0.2692,-0.2692,-0.2692,-0.223,-0.1777,0.6138,0.6051,0.6294,0.4173,0.3698,0.3754,0.3711,0.3764,0.3765,0.3577,0.3566,0.357,0.3485,0.3444,0.3624,0.4188,0.431,0.461,0.5361,0.5727,0.6088,0.6448,0.7285,0.7919,0.819,0.9035,0.9574,0.9606,0.9736,0.9741,0.9616,0.9616,0.9699,0.982,0.9699,0.9783,1.0112,1.0112,1.0237,1.0529,1.0654,1.0695,1.0695,1.0695,1.0695,1.0695,1.0695,1.0695,1.0695,1.0695,1.0695,1.0695,1.0695,1.0695,1.0695,1.0695,0.9726,0.8361,0.7835,0.6178,0.4244,0.3725,0.2396,0.0979,0.0979,0.0784,0.0313,-0.1137,-0.2002,-0.2514,-0.2514,-0.2514,-0.2514,-0.2514,-0.2514,-0.2514,-0.2514,-0.2514,-0.2514,-0.2514,-0.2514,-0.2396,-0.2121,-0.2082,-0.2082,-0.2082,-0.2082,-0.2082,-0.2082,-0.2082,-0.1925,-0.1532,-0.1493,-0.1611,-0.1886,-0.165,-0.1728,-0.2278,-0.2043,-0.2082,-0.2475,-0.2584,-0.2613,-0.2601,-0.259,-0.2621,-0.2692,-0.2398,-0.2061,-0.1724,-0.1598,-0.1439,0.5519,0.5398,0.5623,0.4099,0.3701,0.3668,0.3667,0.3774,0.3802,0.3588,0.3546,0.3544,0.3452,0.346,0.363,0.4127,0.4326,0.4651,0.5365,0.5683,0.6095,0.6741,0.7744,0.8418,0.8459,0.892,0.9272,0.9335,0.9345,0.9281,0.9151,0.9156,0.9072,0.8901,0.9072,0.9365,0.9824,0.9824,0.9966,1.0169,1.0335,1.0273,1.0107,1.0319,1.0418,1.0423,1.059,1.0695,0.0,1.0695,1.019,0.9471,0.9469,0.8957,0.8198,0.8206,0.7323,0.6111,0.5782,0.4203,0.2291,0.1981,0.059,-0.0942,-0.0942,-0.0784,-0.0824,-0.212,-0.2514,-0.2514,-0.2514,-0.2514,-0.2514,-0.2514,-0.2514,-0.2514,-0.2514,-0.2514,-0.2514,-0.2514,-0.2514,-0.2435,-0.216,-0.2003,-0.1886,-0.1886,-0.1768,-0.1689,-0.1689,-0.1689,-0.1493,-0.1099,-0.1021,-0.1139,-0.1375,-0.1336,-0.1532,-0.2003,-0.1964,-0.2086,-0.2532,-0.2589,-0.2618,-0.2617,-0.2595,-0.2621,-0.2692,-0.2398,-0.1934,-0.1304,-0.131,-0.1235,0.0,0.4591,0.4899,0.4206,0.3911,0.3765,0.362,0.3782,0.0,0.3652,0.3538,0.3507,0.3524,0.357,0.3692,0.394,0.4245,0.4683,0.5333,0.5598,0.6141,0.72,0.8057,0.8602,0.8669,0.8867,0.904,0.9185,0.9194,0.9036,0.8725,0.8687,0.852,0.8186,0.8566,0.8947,0.9407,0.9449,0.9396,0.9327,0.9738,0.9637,0.9128,0.9647,0.9815,0.9686,1.0221,1.0393,1.0221,1.0226,0.9008,0.7149,0.7158,0.5889,0.4112,0.4108,0.4012,0.3888,0.3886,0.2452,0.0598,0.0637,-0.0752,-0.2396,-0.2396,-0.2435,-0.2514,-0.2514,-0.2514,-0.2514,-0.2514,-0.2514,-0.2514,-0.2514,-0.2475,-0.2475,-0.2475,-0.2435,-0.2396,-0.2396,-0.2396,-0.2396,-0.2357,-0.2043,-0.1807,-0.1807,-0.1493,-0.1256,-0.1256,-0.1256,-0.106,-0.0589,-0.055,-0.055,-0.055,-0.0942,-0.1217,-0.1296,-0.1611,-0.2014,-0.2479,-0.2522,-0.2508,-0.2522,-0.2525,-0.2539,-0.2566,-0.2566,-0.2104,-0.122,-0.1191,-0.0988,0.4513,0.0,0.4568,0.3649,0.3568,0.3669,0.0,0.354,0.3605,0.3544,0.3516,0.3565,0.3769,0.3784,0.3969,0.4638,0.4882,0.5199,0.572,0.6502,0.7235,0.7713,0.8089,0.8318,0.8373,0.8172,0.805,0.8148,0.8156,0.8276,0.8618,0.8627,0.8783,0.9068,0.9198,0.9281,0.9407,0.9741,0.9889,0.9779,0.9861,0.9637,0.9128,0.9647,0.8988,0.7413,0.7937,0.7213,0.563,0.5596,0.5296,0.4881,0.4869,0.455,0.4108,0.4095,0.304,0.1621,0.1927,0.06,-0.1197,-0.0909,-0.1141,-0.1571,-0.1571,-0.2003,-0.2514,-0.2514,-0.2514,-0.2514,-0.2514,-0.2514,-0.2514,-0.2514,-0.2278,-0.2043,-0.2043,-0.1807,-0.1571,-0.1571,-0.1571,-0.1454,-0.1099,-0.0982,-0.0903,-0.0903,-0.0825,-0.0746,-0.0746,-0.0746,-0.0589,-0.0196,-0.0157,-0.0157,-0.0157,-0.0236,-0.0589,-0.1256,-0.106,-0.1105,-0.1599,-0.1613,-0.1591,-0.1613,-0.1585,-0.1469,-0.1179,-0.1179,-0.0884,-0.0295,-0.0295,-0.0255,0.4399,0.4365,0.4456,0.4004,0.3961,0.3961,0.3732,0.3614,0.3569,0.3628,0.3589,0.3611,0.3859,0.3948,0.417,0.4777,0.5045,0.5419,0.5987,0.7085,0.7915,0.8131,0.8342,0.8489,0.854,0.7954,0.7635,0.7729,0.7738,0.7895,0.8231,0.7501,0.723,0.7522,0.6941,0.7537,0.9331,0.9621,0.9167,0.8037,0.8037,0.7344,0.6108,0.6619,0.6227,0.511,0.5651,0.5223,0.4093,0.4057,0.3472,0.2578,0.2578,0.1951,0.1046,0.104,0.0439,-0.0399,-0.0198,-0.0793,-0.1585,-0.1377,-0.1296,-0.1296,-0.1296,-0.1611,-0.1964,-0.1964,-0.1964,-0.1964,-0.1964,-0.1964,-0.1964,-0.1964,-0.1768,-0.1611,-0.1611,-0.1454,-0.1296,-0.1296,-0.1296,-0.1217,-0.0982,-0.0746,-0.0589,-0.0589,-0.0432,-0.0314,-0.0314,-0.0314,-0.0236,-0.0039,0.0,0.0,0.0,0.0,-0.0275,-0.0942,-0.0947,-0.1035,-0.1289,-0.1304,-0.1319,-0.1292,-0.13,-0.1094,-0.0716,-0.0884,-0.0758,-0.0337,-0.0337,-0.0339,0.4224,0.4202,0.4489,0.457,0.449,0.431,0.4002,0.3765,0.3635,0.378,0.3732,0.3737,0.3981,0.4195,0.4437,0.4773,0.5118,0.5627,0.6485,0.7533,0.8328,0.861,0.8736,0.87,0.8423,0.7642,0.7044,0.6918,0.6922,0.6959,0.7121,0.5748,0.5024,0.5113,0.4055,0.5088,0.833,0.847,0.745,0.5419,0.5419,0.4396,0.2508,0.3052,0.3105,0.2823,0.3345,0.3401,0.3074,0.3069,0.1961,0.0283,0.0283,-0.0845,-0.247,-0.2445,-0.216,-0.1807,-0.1728,-0.1454,-0.1099,-0.1099,-0.1099,-0.1099,-0.1099,-0.1099,-0.1099,-0.1099,-0.1178,-0.1296,-0.1296,-0.1296,-0.1296,-0.1296,-0.1256,-0.1178,-0.1178,-0.1139,-0.1099,-0.1099,-0.1099,-0.1099,-0.1099,-0.0785,-0.051,-0.051,-0.0236,0.0,0.0,0.0,0.0,0.0,0.0,0.0,0.0,0.0,-0.0157,-0.0471,-0.0874,-0.1086,-0.1101,-0.1114,-0.1084,-0.1093,-0.1093,-0.0926,-0.0589,-0.0926,-0.0926,-0.0589,-0.0591,-0.0594,0.3977,0.4226,0.4632,0.4207,0.422,0.4191,0.3689,0.3587,0.3656,0.3842,0.3908,0.4078,0.4508,0.4728,0.4991,0.5328,0.5753,0.6494,0.7729,0.8174,0.8582,0.9102,0.8934,0.8228,0.6815,0.5913,0.4821,0.3417,0.3299,0.3514,0.3953,0.3755,0.3812,0.4253,0.4093,0.4078,0.4206,0.469,0.4479,0.3666,0.3666,0.3288,0.2508,0.3052,0.226,0.0551,0.1085,0.0202,-0.1564,-0.1581,-0.1781,-0.2085,-0.2085,-0.2029,-0.2009,-0.2004,-0.1728,-0.1336,-0.0942,-0.055,-0.0196,-0.0196,-0.0196,-0.0196,-0.0196,-0.0196,-0.0196,-0.0196,-0.0746,-0.1296,-0.1296,-0.1296,-0.1296,-0.1296,-0.0982,-0.0707,-0.0707,-0.0432,-0.0196,-0.0196,-0.0196,-0.0196,-0.0196,-0.0157,-0.0079,-0.0079,-0.0039,0.0,0.0,0.0,0.0,0.0,0.0,0.0,0.0,0.0,-0.0039,-0.0079,-0.0159,-0.0202,-0.0206,-0.0209,-0.021,-0.021,-0.021,-0.0168,-0.0126,-0.0168,-0.0168,-0.0126,-0.0128,-0.0128,0.3877,0.4046,0.4384,0.4206,0.4476,0.4663,0.4256,0.4067,0.4042,0.4248,0.4295,0.4434,0.4785,0.4998,0.53,0.5855,0.6161,0.6635,0.7398,0.802,0.8095,0.7292,0.7358,0.6694,0.4774,0.3994,0.3329,0.2546,0.2507,0.2591,0.2842,0.2014,0.1624,0.187,0.0995,0.0397,0.0158,0.0397,0.0874,0.1501,0.1501,0.0906,-0.0196,0.0039,-0.0394,-0.1336,-0.1072,-0.1591,-0.2537,-0.2567,-0.2442,-0.2219,-0.2234,-0.1946,-0.1532,-0.1296,-0.1099,-0.0864,-0.0432,-0.0157,0.0,0.0,0.0,0.0,0.0,0.0,0.0,0.0,-0.0275,-0.0589,-0.0589,-0.0589,-0.0589,-0.0589,-0.0432,-0.0275,-0.0275,-0.0118,0.0,0.0,0.0,0.0,0.0,0.0,0.0,0.0,0.0,0.0,0.0,0.0,0.0,0.0,0.0,0.0,0.0,0.0,0.0,0.0,0.0,0.0,0.0,0.0,0.0,0.0,0.0,0.0,0.0,0.0,0.0,0.0,0.0,0.0,0.3784,0.3802,0.3997,0.4086,0.4561,0.4949,0.476,0.4561,0.4463,0.4736,0.4802,0.488,0.5085,0.5252,0.5643,0.6373,0.6522,0.6576,0.6662,0.7287,0.7042,0.5223,0.5358,0.4761,0.27,0.2153,0.1763,0.1372,0.1333,0.1333,0.1333,0.0118,-0.0588,-0.0588,-0.1845,-0.2514,-0.2514,-0.2514,-0.1845,-0.0588,-0.0588,-0.1256,-0.2514,-0.2514,-0.2514,-0.2514,-0.2396,-0.2357,-0.2358,-0.2302,-0.2099,-0.177,-0.1745,-0.1505,-0.1099,-0.0628,-0.0471,-0.0432,-0.0118,0.0,0.0,0.0,0.0,0.0,0.0,0.0,0.0,0.0,0.0,0.0,0.0,0.0,0.0,0.0,0.0,0.0,0.0,0.0,0.0,0.0,0.0,0.0,0.0,0.0,0.0,0.0,0.0,0.0,0.0,0.0,0.0,0.0,0.0,0.0,0.0,0.0,0.0,0.0,0.0,0.0,0.0,0.0,0.0,0.0,0.0,0.0,0.0,0.0,0.0,0.0,0.0,0.0,0.3613,0.3524,0.362,0.357,0.3959,0.4443,0.472,0.4724,0.4802,0.5262,0.5386,0.5447,0.5467,0.5727,0.6216,0.7011,0.6885,0.6547,0.6136,0.581,0.5195,0.4058,0.3613,0.2745,0.0939,0.0431,-0.0471,-0.2042,-0.2121,-0.2121,-0.2121,-0.2239,-0.2318,-0.2318,-0.2435,-0.2514,-0.2514,-0.2514,-0.2435,-0.2318,-0.2318,-0.2396,-0.2514,-0.2514,-0.2514,-0.2475,-0.2121,-0.1925,-0.1925,-0.1533,-0.1376,-0.1336,-0.1336,-0.1061,-0.0589,-0.0196,-0.0039,-0.0039,0.0,0.0,0.0,0.0,0.0,0.0,0.0,0.0,0.0,0.0,0.0,0.0,0.0,0.0,0.0,0.0,0.0,0.0,0.0,0.0,0.0,0.0,0.0,0.0,0.0,0.0,0.0,0.0,0.0,0.0,0.0,0.0,0.0,0.0,0.0,0.0,0.0,0.0,0.0,0.0,0.0,0.0,0.0,0.0,0.0,0.0,0.0,0.0,0.0,0.0,0.0,0.0,0.0,0.0,0.3443,0.3581,0.3801,0.3796,0.4089,0.4431,0.4739,0.4857,0.5044,0.5605,0.5741,0.5748,0.5805,0.602,0.6329,0.6753,0.5964,0.5235,0.5214,0.4499,0.3347,0.1652,0.1551,0.0876,-0.1073,-0.1429,-0.1824,-0.2448,-0.2503,-0.2514,-0.2514,-0.2514,-0.2396,-0.2121,-0.2121,-0.2003,-0.1768,-0.1768,-0.1886,-0.2121,-0.2121,-0.2121,-0.2121,-0.1886,-0.1768,-0.1728,-0.1611,-0.1532,-0.1532,-0.1375,-0.1139,-0.0825,-0.0589,-0.0393,-0.0196,-0.0039,0.0,0.0,0.0,0.0,0.0,0.0,0.0,0.0,0.0,0.0,0.0,0.0,0.0,0.0,0.0,0.0,0.0,0.0,0.0,0.0,0.0,0.0,0.0,0.0,0.0,0.0,0.0,0.0,0.0,0.0,0.0,0.0,0.0,0.0,0.0,0.0,0.0,0.0,0.0,0.0,0.0,0.0,0.0,0.0,0.0,0.0,0.0,0.0,0.0,0.0,0.0,0.0,0.0,0.0,0.0,0.0,0.3562,0.3682,0.3818,0.3988,0.413,0.4355,0.4855,0.4988,0.5232,0.5932,0.6039,0.6027,0.6089,0.6178,0.6341,0.6553,0.5376,0.4306,0.3986,0.2896,0.1403,-0.0519,-0.0486,-0.0828,-0.2271,-0.2443,-0.2455,-0.2455,-0.2366,-0.2266,-0.2266,-0.2195,-0.2003,-0.1728,-0.1728,-0.165,-0.1493,-0.1493,-0.1611,-0.1886,-0.1768,-0.1768,-0.1886,-0.1493,-0.1296,-0.1296,-0.1139,-0.106,-0.106,-0.0942,-0.0707,-0.0393,-0.0118,0.0,0.0,0.0,0.0,0.0,0.0,0.0,0.0,0.0,0.0,0.0,0.0,0.0,0.0,0.0,0.0,0.0,0.0,0.0,0.0,0.0,0.0,0.0,0.0,0.0,0.0,0.0,0.0,0.0,0.0,0.0,0.0,0.0,0.0,0.0,0.0,0.0,0.0,0.0,0.0,0.0,0.0,0.0,0.0,0.0,0.0,0.0,0.0,0.0,0.0,0.0,0.0,0.0,0.0,0.0,0.0,0.0,0.0,0.0,0.401,0.3753,0.3592,0.4006,0.3964,0.4076,0.5062,0.5201,0.5371,0.6325,0.6341,0.621,0.63,0.6243,0.6276,0.6545,0.5342,0.3883,0.2465,0.0947,-0.0622,-0.2225,-0.2415,-0.239,-0.2382,-0.2385,-0.2385,-0.2385,-0.203,-0.1812,-0.1812,-0.1482,-0.1296,-0.1296,-0.1296,-0.1492,-0.1886,-0.1885,-0.1885,-0.1886,-0.1492,-0.1492,-0.1886,-0.1454,-0.1296,-0.1256,-0.0785,-0.0589,-0.055,-0.0157,0.0,0.0,0.0,0.0,0.0,0.0,0.0,0.0,0.0,0.0,0.0,0.0,0.0,0.0,0.0,0.0,0.0,0.0,0.0,0.0,0.0,0.0,0.0,0.0,0.0,0.0,0.0,0.0,0.0,0.0,0.0,0.0,0.0,0.0,0.0,0.0,0.0,0.0,0.0,0.0,0.0,0.0,0.0,0.0,0.0,0.0,0.0,0.0,0.0,0.0,0.0,0.0,0.0,0.0,0.0,0.0,0.0,0.0,0.0,0.0,0.0,0.0,0.3647,0.3533,0.3595,0.3992,0.4298,0.4654,0.5227,0.5616,0.6056,0.6704,0.661,0.6395,0.6325,0.6398,0.6155,0.5136,0.3776,0.2355,0.0872,-0.0656,-0.1788,-0.2272,-0.2346,-0.2314,-0.2322,-0.2379,-0.2391,-0.2391,-0.2306,-0.2209,-0.2209,-0.214,-0.1799,-0.1263,-0.1225,-0.0999,-0.0582,-0.0577,-0.0888,-0.1453,-0.074,-0.0584,-0.0982,-0.055,-0.0393,-0.0393,-0.0236,-0.0196,-0.0157,-0.0039,0.0,0.0,0.0,0.0,0.0,0.0,0.0,0.0,0.0,0.0,0.0,0.0,0.0,0.0,0.0,0.0,0.0,0.0,0.0,0.0,0.0,0.0,0.0,0.0,0.0,0.0,0.0,0.0,0.0,0.0,0.0,0.0,0.0,0.0,0.0,0.0,0.0,0.0,0.0,0.0,0.0,0.0,0.0,0.0,0.0,0.0,0.0,0.0,0.0,0.0,0.0,0.0,0.0,0.0,0.0,0.0,0.0,0.0,0.0,0.0,0.0,0.0,0.3801,0.3692,0.3817,0.452,0.4856,0.5283,0.624,0.6394,0.6418,0.6752,0.6589,0.6228,0.5609,0.5593,0.5156,0.3689,0.2243,0.0998,0.0109,-0.1311,-0.226,-0.2114,-0.2223,-0.226,-0.2114,-0.2129,-0.2176,-0.2176,-0.1866,-0.1692,-0.1692,-0.1549,-0.1211,-0.0757,-0.0719,-0.0646,-0.0459,-0.0304,-0.0572,-0.1239,-0.0576,-0.0269,-0.0349,-0.0117,0.0,0.0,0.0,0.0,0.0,0.0,0.0,0.0,0.0,0.0,0.0,0.0,0.0,0.0,0.0,0.0,0.0,0.0,0.0,0.0,0.0,0.0,0.0,0.0,0.0,0.0,0.0,0.0,0.0,0.0,0.0,0.0,0.0,0.0,0.0,0.0,0.0,0.0,0.0,0.0,0.0,0.0,0.0,0.0,0.0,0.0,0.0,0.0,0.0,0.0,0.0,0.0,0.0,0.0,0.0,0.0,0.0,0.0,0.0,0.0,0.0,0.0,0.0,0.0,0.0,0.0,0.0,0.0,0.4235,0.4043,0.4168,0.525,0.542,0.5732,0.7416,0.6953,0.625,0.6418,0.632,0.5789,0.4459,0.4159,0.3677,0.2325,0.0909,0.0,-0.0109,-0.1308,-0.2074,-0.1783,-0.2003,-0.2078,-0.1786,-0.175,-0.175,-0.175,-0.1069,-0.0668,-0.0668,-0.03,-0.0075,-0.0038,-0.0038,-0.0415,-0.1134,-0.0755,-0.0755,-0.1211,-0.0756,-0.0378,-0.0038,0.0,0.0,0.0,0.0,0.0,0.0,0.0,0.0,0.0,0.0,0.0,0.0,0.0,0.0,0.0,0.0,0.0,0.0,0.0,0.0,0.0,0.0,0.0,0.0,0.0,0.0,0.0,0.0,0.0,0.0,0.0,0.0,0.0,0.0,0.0,0.0,0.0,0.0,0.0,0.0,0.0,0.0,0.0,0.0,0.0,0.0,0.0,0.0,0.0,0.0,0.0,0.0,0.0,0.0,0.0,0.0,0.0,0.0,0.0,0.0,0.0,0.0,0.0,0.0,0.0,0.0,0.0,0.0,0.0,0.3996,0.3894,0.402,0.4833,0.4724,0.4571,0.5328,0.4672,0.4303,0.5737,0.5793,0.5155,0.3696,0.3517,0.3067,0.1514,0.1078,0.0491,-0.0777,-0.1213,-0.1401,-0.1329,-0.1378,-0.1423,-0.1349,-0.1313,-0.1313,-0.1313,-0.1171,-0.1063,-0.1063,-0.0992,-0.0809,-0.0478,-0.0478,-0.0554,-0.0709,-0.0333,-0.0483,-0.1174,-0.0487,-0.0263,-0.0455,-0.0154,0.0,0.0,0.0,0.0,0.0,0.0,0.0,0.0,0.0,0.0,0.0,0.0,0.0,0.0,0.0,0.0,0.0,0.0,0.0,0.0,0.0,0.0,0.0,0.0,0.0,0.0,0.0,0.0,0.0,0.0,0.0,0.0,0.0,0.0,0.0,0.0,0.0,0.0,0.0,0.0,0.0,0.0,0.0,0.0,0.0,0.0,0.0,0.0,0.0,0.0,0.0,0.0,0.0,0.0,0.0,0.0,0.0,0.0,0.0,0.0,0.0,0.0,0.0,0.0,0.0,0.0,0.0,0.0,0.3891,0.3946,0.4275,0.5184,0.5015,0.4711,0.5012,0.4264,0.3559,0.3792,0.4096,0.3897,0.2454,0.2265,0.1804,0.024,0.0069,-0.0209,-0.1086,-0.12,-0.1134,-0.0922,-0.107,-0.111,-0.0931,-0.0901,-0.0904,-0.0904,-0.0727,-0.062,-0.062,-0.062,-0.0547,-0.0328,-0.0511,-0.0586,-0.059,-0.0403,-0.0514,-0.0893,-0.0296,-0.0111,-0.03,-0.0114,0.0,0.0,0.0,0.0,0.0,0.0,0.0,0.0,0.0,0.0,0.0,0.0,0.0,0.0,0.0,0.0,0.0,0.0,0.0,0.0,0.0,0.0,0.0,0.0,0.0,0.0,0.0,0.0,0.0,0.0,0.0,0.0,0.0,0.0,0.0,0.0,0.0,0.0,0.0,0.0,0.0,0.0,0.0,0.0,0.0,0.0,0.0,0.0,0.0,0.0,0.0,0.0,0.0,0.0,0.0,0.0,0.0,0.0,0.0,0.0,0.0,0.0,0.0,0.0,0.0,0.0,0.0,0.0,0.3777,0.3903,0.4325,0.5371,0.4993,0.4408,0.4558,0.3742,0.2643,0.1477,0.2185,0.2588,0.1177,0.0908,0.0506,-0.0718,-0.0924,-0.0928,-0.0974,-0.0977,-0.0874,-0.0524,-0.0806,-0.0877,-0.0526,-0.0496,-0.0499,-0.0499,-0.018,0.0,0.0,-0.0073,-0.0073,0.0,-0.0401,-0.0584,-0.0584,-0.0547,-0.0547,-0.0584,-0.0182,0.0,0.0,0.0,0.0,0.0,0.0,0.0,0.0,0.0,0.0,0.0,0.0,0.0,0.0,0.0,0.0,0.0,0.0,0.0,0.0,0.0,0.0,0.0,0.0,0.0,0.0,0.0,0.0,0.0,0.0,0.0,0.0,0.0,0.0,0.0,0.0,0.0,0.0,0.0,0.0,0.0,0.0,0.0,0.0,0.0,0.0,0.0,0.0,0.0,0.0,0.0,0.0,0.0,0.0,0.0,0.0,0.0,0.0,0.0,0.0,0.0,0.0,0.0,0.0,0.0,0.0,0.0,0.0,0.0,0.0,0.0,0.3431,0.3362,0.3316,0.3931,0.2603,0.1163,0.1209,0.0396,-0.0331,-0.0235,0.1109,0.1815,0.0404,0.0135,0.0067,-0.0101,-0.0135,-0.0135,-0.0169,-0.0171,-0.0138,-0.0103,-0.0139,-0.014,-0.007,-0.007,-0.007,-0.007,-0.0035,0.0,0.0,-0.0323,-0.0361,0.0,-0.0401,-0.0584,-0.0584,-0.0255,-0.0255,-0.0584,-0.0182,0.0,0.0,0.0,0.0,0.0,0.0,0.0,0.0,0.0,0.0,0.0,0.0,0.0,0.0,0.0,0.0,0.0,0.0,0.0,0.0,0.0,0.0,0.0,0.0,0.0,0.0,0.0,0.0,0.0,0.0,0.0,0.0,0.0,0.0,0.0,0.0,0.0,0.0,0.0,0.0,0.0,0.0,0.0,0.0,0.0,0.0,0.0,0.0,0.0,0.0,0.0,0.0,0.0,0.0,0.0,0.0,0.0,0.0,0.0,0.0,0.0,0.0,0.0,0.0,0.0,0.0,0.0,0.0,0.0,0.0,0.0,0.2863,0.2911,0.2972,0.2878,0.1523,0.0246,0.0319,-0.0553,-0.1221,-0.0864,-0.0033,0.0505,0.0067,0.0,0.0,0.0,0.0,0.0,0.0,0.0,0.0,0.0,0.0,0.0,0.0,0.0,0.0,0.0,-0.0175,-0.0281,-0.0283,-0.046,-0.0461,-0.0285,-0.05,-0.0501,-0.0253,-0.0325,-0.0326,-0.0255,-0.0073,0.0,0.0,0.0,0.0,0.0,0.0,0.0,0.0,0.0,0.0,0.0,0.0,0.0,0.0,0.0,0.0,0.0,0.0,0.0,0.0,0.0,0.0,0.0,0.0,0.0,0.0,0.0,0.0,0.0,0.0,0.0,0.0,0.0,0.0,0.0,0.0,0.0,0.0,0.0,0.0,0.0,0.0,0.0,0.0,0.0,0.0,0.0,0.0,0.0,0.0,0.0,0.0,0.0,0.0,0.0,0.0,0.0,0.0,0.0,0.0,0.0,0.0,0.0,0.0,0.0,0.0,0.0,0.0,0.0,0.0,0.0,0.2626,0.2468,0.2308,0.1917,0.068,-0.0414,-0.0402,-0.1082,-0.1592,-0.1211,-0.0862,-0.0536,-0.0201,-0.0067,0.0,0.0,0.0,0.0,0.0,0.0,0.0,0.0,0.0,0.0,0.0,0.0,-0.0034,-0.0137,-0.0345,-0.0487,-0.0488,-0.0593,-0.0559,-0.0386,-0.0526,-0.0423,0.0,-0.0286,-0.0288,0.0,0.0,0.0,0.0,0.0,0.0,0.0,0.0,0.0,0.0,0.0,0.0,0.0,0.0,0.0,0.0,0.0,0.0,0.0,0.0,0.0,0.0,0.0,0.0,0.0,0.0,0.0,0.0,0.0,0.0,0.0,0.0,0.0,0.0,0.0,0.0,0.0,0.0,0.0,0.0,0.0,0.0,0.0,0.0,0.0,0.0,0.0,0.0,0.0,0.0,0.0,0.0,0.0,0.0,0.0,0.0,0.0,0.0,0.0,0.0,0.0,0.0,0.0,0.0,0.0,0.0,0.0,0.0,0.0,0.0,0.0,0.0,0.0,0.3074,0.1968,0.0777,0.0998,-0.028,-0.1645,-0.1753,-0.1899,-0.1874,-0.1541,-0.1208,-0.0857,-0.0528,-0.02,0.0,0.0,0.0,0.0,0.0,0.0,0.0,0.0,0.0,0.0,0.0,0.0,-0.0135,-0.0438,-0.0506,-0.0509,-0.0515,-0.086,-0.0761,-0.0035,-0.0386,-0.0421,0.0,-0.0036,-0.0036,0.0,0.0,0.0,0.0,0.0,0.0,0.0,0.0,0.0,0.0,0.0,0.0,0.0,0.0,0.0,0.0,0.0,0.0,0.0,0.0,0.0,0.0,0.0,0.0,0.0,0.0,0.0,0.0,0.0,0.0,0.0,0.0,0.0,0.0,0.0,0.0,0.0,0.0,0.0,0.0,0.0,0.0,0.0,0.0,0.0,0.0,0.0,0.0,0.0,0.0,0.0,0.0,0.0,0.0,0.0,0.0,0.0,0.0,0.0,0.0,0.0,0.0,0.0,0.0,0.0,0.0,0.0,0.0,0.0,0.0,0.0,0.0,0.0,0.2182,0.1373,0.0569,0.0151,-0.078,-0.162,-0.1733,-0.1871,-0.1839,-0.1508,-0.1386,-0.1157,-0.0617,-0.0232,0.0,0.0,0.0,0.0,0.0,0.0,0.0,0.0,0.0,-0.0101,-0.0303,-0.0135,-0.0135,-0.0471,-0.0505,-0.0506,-0.0508,-0.0644,-0.0578,-0.0342,-0.0239,-0.0137,0.0,0.0,0.0,0.0,0.0,0.0,0.0,0.0,0.0,0.0,0.0,0.0,0.0,0.0,0.0,0.0,0.0,0.0,0.0,0.0,0.0,0.0,0.0,0.0,0.0,0.0,0.0,0.0,0.0,0.0,0.0,0.0,0.0,0.0,0.0,0.0,0.0,0.0,0.0,0.0,0.0,0.0,0.0,0.0,0.0,0.0,0.0,0.0,0.0,0.0,0.0,0.0,0.0,0.0,0.0,0.0,-0.051,-0.0825,-0.0825,-0.0825,-0.0825,-0.0825,-0.0314,0.0,0.0,0.0,-0.0275,-0.083,-0.083,-0.0559,0.0,0.0,0.0,0.0,0.0,0.0,0.1769,0.1142,0.0547,-0.0263,-0.0956,-0.1478,-0.1666,-0.1765,-0.1759,-0.1561,-0.1491,-0.1343,-0.0888,-0.0553,-0.0266,-0.0033,0.0,0.0,0.0,0.0,0.0,0.0,0.0,-0.0101,-0.0303,-0.0135,-0.0135,-0.0471,-0.0505,-0.0505,-0.0505,-0.0505,-0.0438,-0.0337,-0.0101,0.0,0.0,0.0,0.0,0.0,0.0,0.0,0.0,0.0,0.0,-0.0036,-0.0547,-0.0474,0.0,0.0,0.0,0.0,0.0,0.0,0.0,0.0,-0.0328,-0.0693,-0.0182,-0.0693,-0.1494,-0.0948,-0.1137,-0.1587,-0.1587,-0.1596,-0.1568,-0.1569,-0.1575,-0.1579,-0.1578,-0.1577,-0.158,-0.1587,-0.1164,-0.0786,-0.0755,-0.0385,0.0,0.0,0.0,0.0,0.0,0.0,0.0,0.0,0.0,-0.0118,-0.0393,-0.0432,-0.055,-0.0825,-0.1374,-0.1688,-0.1688,-0.1688,-0.1688,-0.1688,-0.1178,-0.0825,-0.0825,-0.0825,-0.1099,-0.1688,-0.1688,-0.1424,-0.0844,-0.0844,-0.0683,-0.0442,-0.0442,-0.0564,0.0,0.0,0.0,-0.0188,-0.0841,-0.1372,-0.1624,-0.1648,-0.1626,-0.1774,-0.1586,-0.1419,-0.1413,-0.1199,-0.0808,-0.0131,-0.0033,0.0,0.0,0.0,0.0,0.0,0.0,-0.0034,-0.0034,-0.0034,-0.0135,-0.0471,-0.0505,-0.0471,-0.0471,-0.0471,-0.0337,0.0,0.0,0.0,0.0,0.0,0.0,0.0,0.0,-0.0035,-0.0072,-0.0036,-0.0036,-0.0219,-0.1675,-0.1494,-0.0146,-0.0146,-0.0146,-0.0146,-0.0146,-0.0146,-0.0146,-0.0146,-0.1094,-0.2148,-0.0656,-0.2149,-0.4439,-0.2876,-0.3419,-0.4693,-0.4693,-0.4693,-0.4693,-0.4693,-0.4698,-0.4702,-0.4702,-0.4702,-0.4715,-0.4699,-0.3513,-0.2382,-0.2373,-0.1183,-0.0115,0.0,0.0,0.0,0.0,-0.0038,-0.0039,-0.0039,-0.0078,-0.0393,-0.1217,-0.1336,-0.1649,-0.2433,-0.255,-0.259,-0.255,-0.259,-0.259,-0.255,-0.2511,-0.2511,-0.259,-0.2511,-0.255,-0.2629,-0.2629,-0.2629,-0.2629,-0.259,-0.2158,-0.1413,-0.1453,-0.1895,0.1857,0.0,0.0,0.0,0.0,0.0,-0.1368,-0.1403,-0.1425,-0.1617,-0.1586,-0.1495,-0.1363,-0.1253,-0.1097,-0.072,-0.0482,-0.0262,-0.0033,0.0,-0.01,-0.0336,-0.037,-0.0471,-0.0774,-0.0539,-0.0404,-0.0505,-0.0269,-0.0135,-0.0135,-0.0135,-0.0101,0.0,0.0,0.0,0.0,0.0,0.0,0.0,0.0,-0.0522,-0.148,-0.0463,-0.1182,-0.3232,-0.2574,-0.273,-0.3385,-0.3385,-0.3385,-0.3385,-0.3385,-0.3385,-0.3385,-0.3385,-0.3676,-0.3966,-0.353,-0.3966,-0.462,-0.4184,-0.433,-0.4693,-0.4693,-0.4693,-0.4693,-0.4693,-0.4704,-0.4718,-0.4718,-0.4718,-0.4684,-0.47,-0.4363,-0.4029,-0.4043,-0.3714,-0.274,-0.0454,0.0,0.0,0.0,-0.0536,-0.0925,-0.0925,-0.1441,-0.1884,-0.2119,-0.2158,-0.2237,-0.2472,-0.4151,-0.4776,-0.3531,-0.4544,-0.4737,-0.3532,-0.2864,-0.3057,-0.4266,-0.3135,-0.337,-0.5204,-0.5243,-0.5519,-0.6108,-0.4894,-0.4188,-0.3994,-0.5237,-0.5903,0.0,0.0,0.0,-0.052,0.0,0.0,-0.1299,-0.1331,-0.1355,-0.152,-0.1609,-0.1614,-0.149,-0.1478,-0.1398,-0.1105,-0.0949,-0.0755,-0.0455,-0.0294,-0.0295,-0.0463,-0.0499,-0.0534,-0.0634,-0.0436,-0.0303,-0.0303,-0.0101,0.0,0.0,0.0,0.0,0.0,0.0,0.0,0.0,0.0,0.0,0.0,-0.0579,-0.1303,-0.2085,-0.189,-0.2746,-0.4425,-0.4231,-0.4724,-0.563,-0.6347,-0.5855,-0.4693,-0.4693,-0.4693,-0.4693,-0.4693,-0.5093,-0.5564,-0.4911,-0.5528,-0.6507,-0.5855,-0.6108,-0.6616,-0.6616,-0.6616,-0.6616,-0.6616,-0.6616,-0.6616,-0.6616,-0.6616,-0.6616,-0.6616,-0.6145,-0.5673,-0.5673,-0.5156,-0.4165,-0.2305,-0.1682,-0.1349,-0.1007,-0.1919,-0.2356,-0.1453,-0.3087,-0.4359,-0.4109,-0.4657,-0.5243,-0.5594,-0.6956,-0.7466,-0.6456,-0.7271,-0.7427,-0.6456,-0.5906,-0.6059,-0.7033,-0.6137,-0.6332,-0.7812,-0.7851,-0.8439,-0.9571,-0.789,-0.6917,-0.6562,-0.7531,-0.8188,0.0972,0.0228,0.0,-0.1126,-0.1197,0.0,-0.1319,-0.1323,-0.1331,-0.1445,-0.1558,-0.165,-0.1667,-0.1695,-0.1634,-0.1357,-0.1298,-0.1196,-0.0954,-0.0675,-0.0516,-0.0484,-0.049,-0.0394,-0.0099,-0.0067,-0.0034,0.0,0.0,0.0,0.0,0.0,0.0,0.0,-0.0168,-0.0235,-0.0235,-0.0404,-0.0471,-0.0505,-0.1748,-0.2435,-0.2601,-0.3766,-0.4483,-0.4887,-0.6187,-0.6862,-0.7154,-0.8658,-0.7661,-0.5201,-0.5201,-0.5201,-0.5201,-0.5201,-0.6072,-0.705,-0.5673,-0.7014,-0.9085,-0.7706,-0.8177,-0.9302,-0.9302,-0.9302,-0.9302,-0.9302,-0.9302,-0.9302,-0.9302,-0.9302,-0.9302,-0.9302,-0.8249,-0.7268,-0.7268,-0.6181,-0.5201,-0.5201,-0.437,-0.3395,-0.2698,-0.3857,-0.4203,-0.2223,-0.51,-0.7271,-0.6728,-0.7955,-0.9128,-0.9898,-1.0142,-1.0186,-1.0031,-1.0186,-1.0186,-0.9992,-0.9992,-1.007,-1.0264,-1.0108,-1.0108,-1.0264,-1.0264,-1.1083,-1.2758,-1.1083,-0.9987,-0.94,-0.94,-0.9832,-0.0097,-0.0639,-0.117,-0.1217,-0.1249,0.0,-0.1182,-0.1188,-0.1245,-0.1319,-0.1325,-0.1339,-0.1441,-0.1328,-0.1249,-0.1287,-0.0916,-0.0571,-0.0524,-0.0503,-0.051,-0.0516,-0.0485,-0.0486,-0.0421,-0.039,-0.0294,-0.0033,0.0,0.0,0.0,0.0,0.0,0.0,-0.1109,-0.1681,-0.1681,-0.2853,-0.3457,-0.3457,-0.3725,-0.447,-0.5527,-0.4669,-0.5625,-0.7878,-0.7009,-0.7331,-0.8538,-0.8975,-0.8862,-0.8394,-0.8394,-0.8394,-0.8394,-0.8394,-0.8574,-0.8796,-0.8502,-0.8796,-0.9266,-0.8941,-0.9049,-0.9302,-0.9302,-0.9302,-0.9302,-0.9302,-0.9302,-0.9302,-0.9302,-0.9302,-0.9302,-0.9302,-0.9085,-0.8868,-0.8868,-0.8615,-0.8394,-0.8394,-0.6268,-0.4415,-0.426,-0.5546,-0.6481,-0.6018,-0.7829,-0.9145,-0.8923,-0.9374,-0.9761,-0.9747,-1.11,-1.147,-1.0108,-1.1238,-1.1431,-1.0108,-0.9992,-1.0618,-1.1979,-1.0728,-1.0612,-1.1979,-1.2017,-1.2828,-1.4499,-1.2828,-1.2635,-1.3753,-1.3753,-1.3876,-0.0363,-0.0912,-0.1443,-0.1361,-0.1358,0.0,0.0,-0.1247,-0.1273,-0.1333,-0.129,-0.125,-0.1284,-0.1199,-0.1089,-0.1096,-0.0849,-0.0595,-0.0424,-0.0471,-0.0485,-0.0493,-0.0494,-0.0435,-0.0252,-0.0254,-0.0193,0.0,0.0,0.0,0.0,-0.067,-0.1042,-0.1042,-0.2452,-0.319,-0.319,-0.3926,-0.4294,-0.4294,-0.4997,-0.5704,-0.641,-0.6421,-0.7285,-0.8654,-0.7976,-0.8129,-0.8872,-0.8957,-0.9044,-0.9103,-0.9258,-0.9302,-0.9302,-0.9302,-0.9302,-0.9302,-0.9302,-0.9302,-0.9302,-0.9302,-0.9302,-0.9302,-0.9302,-0.9302,-0.9302,-0.9302,-0.9302,-0.9302,-0.9302,-0.9302,-0.9302,-0.9302,-0.9302,-0.9302,-0.9302,-0.9302,-0.9302,-0.9302,-0.8068,-0.6761,-0.5963,-0.7447,-0.8367,-0.7281,-0.9859,-1.1667,-1.084,-1.1597,-1.2148,-1.2043,-1.2896,-1.3098,-1.2257,-1.2946,-1.3134,-1.2404,-1.2327,-1.279,-1.3722,-1.2944,-1.2905,-1.3722,-1.376,-1.4153,-1.5006,-1.4153,-1.4191,-1.5006,-1.5006,-1.5006,-0.0582,-0.1072,-0.1538,-0.1486,-0.1475,-0.1436,0.0,0.0,0.0,-0.1369,-0.1299,-0.12,-0.116,-0.1031,-0.0908,-0.0806,-0.0755,-0.0632,-0.0352,-0.0399,-0.0448,-0.0403,-0.0407,-0.0295,-0.003,0.0,0.0,0.0,0.0,-0.013,-0.0393,-0.1495,-0.2245,-0.2519,-0.3926,-0.4696,-0.4696,-0.4997,-0.5131,-0.5131,-0.6272,-0.6811,-0.6878,-0.8051,-0.859,-0.8595,-0.8727,-0.877,-0.8781,-0.8832,-0.8881,-0.8908,-0.9177,-0.9269,-0.9275,-0.9296,-0.9302,-0.9302,-0.9302,-0.9302,-0.9302,-0.9302,-0.9302,-0.9302,-0.9302,-0.9302,-0.9302,-0.9302,-0.9302,-0.9302,-0.9302,-0.9302,-0.9302,-0.9302,-0.9302,-0.9302,-0.9302,-0.9302,-0.9302,-0.9302,-0.9302,-0.8941,-0.7847,-0.9321,-1.0077,-0.846,-1.1613,-1.3775,-1.2536,-1.357,-1.4379,-1.4346,-1.4379,-1.4395,-1.4395,-1.4395,-1.446,-1.4643,-1.4692,-1.4773,-1.4949,-1.499,-1.5006,-1.5006,-1.5006,-1.5006,-1.5006,-1.5006,-1.5006,-1.5006,-1.5006,-1.5006,-0.1481,-0.1568,-0.1635,-0.1456,-0.1539,-0.1594,-0.1374,0.0,-0.1371,-0.1317,0.0,-0.0938,-0.0943,0.0,0.0,-0.0372,-0.0219,-0.0091,-0.0045,-0.0208,-0.0246,-0.008,-0.0055,-0.0028,0.0,0.0,0.0,0.0,0.0,-0.055,-0.1802,-0.2029,-0.2686,-0.4024,-0.5436,-0.6172,-0.6172,-0.7445,-0.8117,-0.8117,-0.8284,-0.8351,-0.8351,-0.8523,-0.859,-0.859,-0.86,-0.8606,-0.8617,-0.8776,-0.8825,-0.8812,-0.9022,-0.9119,-0.913,-0.9269,-0.9302,-0.9302,-0.9302,-0.9302,-0.9302,-0.9302,-0.9302,-0.9302,-0.9302,-0.9302,-0.9302,-0.9302,-0.9302,-0.9302,-0.9302,-0.9302,-0.9302,-0.9302,-0.9302,-0.9302,-0.9302,-0.9302,-0.9302,-0.9302,-0.9302,-0.9482,-1.0017,-1.0845,-1.1606,-1.2086,-1.3308,-1.4087,-1.3726,-1.4091,-1.4338,-1.4221,-1.4343,-1.4395,-1.4395,-1.4395,-1.4403,-1.4427,-1.4619,-1.4716,-1.4732,-1.4925,-1.5006,-1.5006,-1.5006,-1.5006,-1.5006,-1.5006,-1.5006,-1.5006,-1.5006,-1.5006,-0.1625,-0.1639,-0.1664,-0.1539,-0.1549,-0.1549,-0.1439,-0.1385,-0.132,-0.1213,0.0,0.0,0.0,0.0,0.0,0.0,-0.0146,-0.0126,-0.0021,-0.0235,-0.0318,-0.0025,-0.01,-0.0129,0.0,-0.0465,-0.0554,-0.0029,-0.1091,-0.1816,-0.204,-0.3543,-0.4734,-0.5433,-0.6914,-0.7679,-0.7679,-0.8284,-0.859,-0.859,-0.859,-0.859,-0.859,-0.859,-0.859,-0.859,-0.859,-0.859,-0.859,-0.8677,-0.8699,-0.8716,-0.8856,-0.9008,-0.9103,-0.9152,-0.9247,-0.9302,-0.9302,-0.9302,-0.9302,-0.9302,-0.9302,-0.9302,-0.9302,-0.9302,-0.9302,-0.9302,-0.9302,-0.9302,-0.9302,-0.9302,-0.9302,-0.9302,-0.9302,-0.9302,-0.9302,-0.9302,-0.9302,-0.9302,-0.9302,-0.9554,-1.0347,-1.1103,-1.1707,-1.2029,-1.2848,-1.3518,-1.3876,-1.363,-1.362,-1.399,-1.4083,-1.4123,-1.4123,-1.4123,-1.4172,-1.4278,-1.4554,-1.4757,-1.4854,-1.4966,-1.5006,-1.5006,-1.5006,-1.5006,-1.5006,-1.5006,-1.5006,-1.5006,-1.5006,-1.5006,-0.164,-0.1651,-0.1677,-0.1581,-0.153,-0.1488,-0.1457,-0.1392,-0.1315,-0.1146,-0.098,0.0,0.0,0.0,0.0,0.0,0.0,-0.0161,-0.0019,-0.0258,-0.0335,-0.0045,-0.0138,-0.0286,-0.0434,-0.0967,-0.1188,-0.0896,-0.2184,-0.296,-0.296,-0.4878,-0.6252,-0.6788,-0.7949,-0.8557,-0.859,-0.859,-0.859,-0.859,-0.859,-0.859,-0.859,-0.859,-0.859,-0.859,-0.859,-0.859,-0.859,-0.859,-0.8556,-0.8495,-0.8687,-0.8782,-0.8865,-0.9003,-0.9119,-0.9258,-0.9258,-0.928,-0.9302,-0.9302,-0.9302,-0.9302,-0.9302,-0.9302,-0.9302,-0.9302,-0.9302,-0.9302,-0.9302,-0.9302,-0.9302,-0.9302,-0.9302,-0.9302,-0.9302,-0.9302,-0.9374,-0.959,-0.9627,-0.9879,-1.0671,-1.124,-1.1678,-1.1893,-1.261,-1.3289,-1.3833,-1.3432,-1.3325,-1.3833,-1.3904,-1.3825,-1.3611,-1.3797,-1.4002,-1.4237,-1.4489,-1.4732,-1.4998,-1.5006,-1.5006,-1.5006,-1.5006,-1.5006,-1.5006,-1.5006,-1.5006,-1.5006,-1.5006,-1.5006,-0.1703,0.0,-0.166,-0.146,-0.146,-0.1472,-0.1335,-0.1394,-0.1407,-0.1156,-0.0953,-0.0729,0.0,0.0,0.0,0.0,0.0,0.0,0.0,-0.0183,-0.0226,-0.002,0.0,-0.0416,-0.1438,-0.1388,-0.1802,-0.3012,-0.2979,-0.3641,-0.5301,-0.5591,-0.646,-0.8103,-0.8329,-0.8475,-0.8584,-0.859,-0.859,-0.859,-0.859,-0.859,-0.859,-0.859,-0.859,-0.859,-0.859,-0.859,-0.859,-0.859,-0.8423,-0.8156,-0.8495,-0.8435,-0.8284,-0.8743,-0.9,-0.9103,-0.9103,-0.9174,-0.9302,-0.9302,-0.9302,-0.9302,-0.9302,-0.9302,-0.9302,-0.9302,-0.9302,-0.9302,-0.9302,-0.9302,-0.9302,-0.9302,-0.9302,-0.9302,-0.9302,-0.9302,-0.9518,-1.0311,-1.0455,-1.0707,-1.1426,-1.1563,-1.1857,-1.2646,-1.3396,-1.386,-1.3904,-1.3868,-1.386,-1.3904,-1.3904,-1.3611,-1.2896,-1.3503,-1.405,-1.4363,-1.4395,-1.4594,-1.499,-1.5006,-1.5006,-1.5006,-1.5006,-1.5006,-1.5006,-1.5006,-1.5006,-1.5006,-1.5006,-1.5006,0.0,0.0,-0.1731,-0.1566,0.0,-0.153,-0.1406,-0.1272,-0.1115,-0.0877,-0.0669,-0.0463,0.0,0.0,0.0,0.0,0.0,0.0,0.0,-0.0053,-0.0126,-0.0188,-0.0203,-0.0575,-0.1508,-0.2017,-0.25,-0.3027,-0.4321,-0.519,-0.5429,-0.6359,-0.7261,-0.8106,-0.8312,-0.8475,-0.8584,-0.859,-0.859,-0.859,-0.859,-0.859,-0.859,-0.859,-0.859,-0.859,-0.859,-0.859,-0.859,-0.859,-0.839,-0.8123,-0.8223,-0.8048,-0.7795,-0.8279,-0.8525,-0.8634,-0.8747,-0.8811,-0.8946,-0.9193,-0.9302,-0.9302,-0.9302,-0.9302,-0.9302,-0.9302,-0.9302,-0.9302,-0.9302,-0.9302,-0.9302,-0.9302,-0.9302,-0.9446,-0.9987,-1.0095,-1.0311,-1.1061,-1.1025,-1.0995,-1.1498,-1.1814,-1.218,-1.2717,-1.3003,-1.3361,-1.3833,-1.3468,-1.3361,-1.3868,-1.3904,-1.3797,-1.3539,-1.3761,-1.4002,-1.4245,-1.433,-1.45,-1.4789,-1.4941,-1.5006,-1.5006,-1.4745,-1.4592,-1.4592,-1.4284,-1.4122,-1.4122,-1.4122,-1.4468,-0.1812,-0.1711,0.0,-0.1492,-0.1372,0.0,-0.1162,-0.1037,-0.0861,-0.0636,-0.0485,-0.0322,0.0,0.0,0.0,0.0,0.0,0.0,0.0,-0.007,-0.0249,-0.062,-0.0621,-0.1008,-0.2104,-0.2693,-0.3354,-0.4142,-0.531,-0.5912,-0.5772,-0.6804,-0.7535,-0.7886,-0.8182,-0.8378,-0.8524,-0.8568,-0.859,-0.859,-0.859,-0.859,-0.859,-0.859,-0.8523,-0.8423,-0.8556,-0.8456,-0.8223,-0.8356,-0.8156,-0.7722,-0.7827,-0.7655,-0.7364,-0.7805,-0.8098,-0.8352,-0.854,-0.8607,-0.8709,-0.9147,-0.9199,-0.9121,-0.9266,-0.9302,-0.9302,-0.9302,-0.9302,-0.9302,-0.9302,-0.9518,-0.9735,-0.9735,-0.9807,-1.0059,-1.0563,-1.0599,-1.0707,-1.1462,-1.1384,-1.139,-1.1922,-1.2252,-1.2502,-1.2753,-1.3003,-1.3361,-1.3833,-1.3503,-1.3325,-1.3646,-1.369,-1.3654,-1.3503,-1.3253,-1.3295,-1.3728,-1.3838,-1.4003,-1.4277,-1.4395,-1.4482,-1.4545,-1.4284,-1.413,-1.413,-1.386,-1.3706,-1.3706,-1.3706,-1.4006]},{"header":{"parameterUnit":"m.s-1","parameterCategory":1,"la1":30.6,"la2":29.2853,"lo1":-89.7004,"lo2":-87.6739,"dy":0.0162,"dx":0.0183,"nx":112,"ny":82,"refTime":"2024-08-21T18:00:00:Z","depth":0,"parameterNumber":3,"parameterNumberName":"V-component_of_WINDS"},"data":[0.0,0.0,0.0,0.0,0.0,0.0,0.0,0.0,0.0,0.0,0.0,0.0,0.0,0.0,0.0,0.0,0.0,0.0,0.0,0.0,0.0,0.0,0.0,0.0,0.0,0.0,0.0,0.0,0.0,0.0,0.0,0.0,0.0,0.0,0.0,0.0,0.0,0.0,0.0,0.0,0.0,0.0,0.0,0.0,0.0,0.0,0.0,0.0,0.0,0.0,0.0,0.0,0.0,0.0,0.0,0.0,0.0,0.0,0.0,0.0,0.0,0.0,0.0,0.0,0.0,0.0,0.0,0.0,0.0,0.0,0.0,0.0,0.0,0.0,0.0,0.0,0.0,0.0,0.0,0.0,0.0,0.0,0.0,0.0,0.0,0.0,0.0,0.0,0.0,0.0,3.8076,4.1854,4.6197,4.884,4.8919,4.8036,4.4804,3.8495,0.0,0.0,0.0,0.0,0.0,0.0,0.0,0.0,0.0,0.0,0.0,0.0,0.0,0.0,0.0,0.0,0.0,0.0,0.0,0.0,0.0,0.0,0.0,0.0,0.0,0.0,0.0,0.0,0.0,0.0,0.0,0.0,0.0,0.0,0.0,0.0,0.0,0.0,0.0,0.0,0.0,0.0,0.0,0.0,0.0,0.0,0.0,0.0,0.0,0.0,0.0,0.0,0.0,0.0,0.0,0.0,0.0,0.0,0.0,0.0,0.0,0.0,0.0,0.0,0.0,0.0,0.0,0.0,0.0,0.0,0.0,0.0,0.0,0.0,0.0,0.0,0.0,0.0,0.0,0.0,0.0,0.0,0.0,0.0,0.0,0.0,0.0,0.0,0.0,0.0,0.0,0.0,0.0,0.0,0.0,0.0,0.0,0.0,0.0,0.0,0.0,0.0,0.0,0.0,3.9178,4.5918,4.7996,4.8873,4.889,4.7553,4.4469,3.9231,0.0,0.0,0.0,0.0,0.0,0.0,0.0,0.0,0.0,0.0,0.0,0.0,0.0,0.0,0.0,0.0,0.0,0.0,0.0,0.0,0.0,0.0,0.0,0.0,0.0,0.0,0.0,0.0,0.0,0.0,0.0,0.0,0.0,0.0,0.0,0.0,0.0,0.0,0.0,0.0,0.0,0.0,0.0,0.0,0.0,0.0,0.0,0.0,0.0,0.0,0.0,0.0,0.0,0.0,0.0,0.0,0.0,0.0,0.0,0.0,0.0,0.0,0.0,0.0,0.0,0.0,0.0,0.0,0.0,0.0,0.0,0.0,0.0,0.0,0.0,0.0,0.0,0.0,0.0,0.0,0.0,0.0,0.0,0.0,0.0,0.0,0.0,0.0,0.0,0.0,0.0,0.0,0.0,0.0,0.0,0.0,0.0,0.0,0.0,0.0,0.0,0.0,0.0,3.8456,4.1448,4.7593,4.8527,4.8767,4.8849,4.7416,4.4193,3.8723,3.6128,0.0,0.0,0.0,0.0,0.0,0.0,0.0,0.0,0.0,0.0,0.0,0.0,0.0,0.0,0.0,0.0,0.0,0.0,0.0,0.0,0.0,0.0,0.0,0.0,0.0,0.0,0.0,0.0,0.0,0.0,0.0,0.0,0.0,0.0,0.0,0.0,0.0,0.0,0.0,0.0,0.0,0.0,0.0,0.0,0.0,0.0,0.0,0.0,0.0,0.0,0.0,0.0,0.0,0.0,0.0,0.0,0.0,0.0,0.0,0.0,0.0,0.0,0.0,0.0,0.0,0.0,0.0,0.0,0.0,0.0,0.0,0.0,0.0,0.0,0.0,0.0,0.0,0.0,0.0,0.0,0.0,0.0,0.0,0.0,0.0,0.0,0.0,0.0,0.0,0.0,0.0,0.0,0.0,0.0,0.0,0.0,0.0,0.0,0.0,0.0,0.0,0.0,4.2054,4.4016,4.8298,4.866,4.8642,4.876,4.6809,4.3449,3.8407,3.5101,0.0,0.0,0.0,0.0,0.0,0.0,0.0,0.0,0.0,0.0,0.0,0.0,0.0,0.0,0.0,0.0,0.0,0.0,0.0,0.0,0.0,0.0,0.0,0.0,0.0,0.0,0.0,0.0,0.0,0.0,0.0,0.0,0.0,0.0,0.0,0.0,0.0,0.0,0.0,0.0,0.0,0.0,0.0,0.0,0.0,0.0,0.0,0.0,0.0,0.0,0.0,0.0,0.0,0.0,0.0,0.0,0.0,0.0,0.0,0.0,0.0,0.0,0.0,0.0,0.0,0.0,0.0,0.0,0.0,0.0,0.0,0.0,0.0,0.0,0.0,0.0,0.0,0.0,0.0,0.0,0.0,0.0,0.0,0.0,0.0,0.0,0.0,0.0,0.0,0.0,0.0,0.0,0.0,0.0,0.0,0.0,0.0,0.0,0.0,0.0,0.0,0.0,4.3062,4.6477,4.8393,4.8624,4.8578,4.8624,4.5152,4.1822,3.9104,3.3839,0.0,0.0,0.0,0.0,0.0,0.0,0.0,0.0,0.0,0.0,0.0,0.0,0.0,0.0,0.0,0.0,0.0,0.0,0.0,0.0,0.0,0.0,0.0,0.0,0.0,0.0,0.0,0.0,0.0,0.0,0.0,0.0,0.0,0.0,0.0,0.0,0.0,0.0,0.0,0.0,0.0,0.0,0.0,0.0,0.0,0.0,0.0,0.0,0.0,0.0,0.0,0.0,0.0,0.0,0.0,0.0,0.0,0.0,0.0,0.0,0.0,0.0,0.0,0.0,0.0,0.0,0.0,0.0,0.0,0.0,0.0,0.0,0.0,0.0,0.0,0.0,0.0,0.0,0.0,0.0,0.0,0.0,0.0,0.0,0.0,0.0,0.0,0.0,0.0,0.0,0.0,0.0,0.0,0.0,0.0,0.0,0.0,0.0,0.0,0.0,0.0,0.0,4.1496,4.5065,4.8182,4.8678,4.8714,4.856,4.6419,4.3068,3.8412,0.0,0.0,0.0,0.0,0.0,0.0,0.0,0.0,0.0,0.0,0.0,0.0,0.0,0.0,0.0,0.0,0.0,0.0,0.0,0.0,0.0,0.0,0.0,0.0,0.0,0.0,0.0,0.0,0.0,0.0,0.0,0.0,0.0,0.0,0.0,0.0,0.0,0.0,0.0,0.0,0.0,0.0,0.0,0.0,0.0,0.0,0.0,0.0,0.0,0.0,0.0,0.0,0.0,0.0,0.0,0.0,0.0,0.0,0.0,0.0,0.0,0.0,0.0,0.0,0.0,0.0,0.0,0.0,0.0,0.0,0.0,0.0,0.0,0.0,0.0,0.0,0.0,0.0,0.0,0.0,0.0,0.0,0.0,0.0,0.0,0.0,0.0,0.0,0.0,0.0,0.0,0.0,0.0,0.0,0.0,0.0,0.0,0.0,0.0,0.0,0.0,0.0,3.7512,4.1588,4.527,4.8301,4.8724,4.8742,4.8642,4.6556,4.3105,3.7976,0.0,0.0,0.0,0.0,0.0,0.0,0.0,0.0,0.0,0.0,0.0,0.0,0.0,0.0,0.0,0.0,0.0,0.0,0.0,0.0,0.0,0.0,0.0,0.0,0.0,0.0,0.0,0.0,0.0,0.0,0.0,0.0,0.0,0.0,0.0,0.0,0.0,0.0,0.0,0.0,0.0,0.0,0.0,0.0,0.0,0.0,0.0,0.0,0.0,0.0,0.0,0.0,0.0,0.0,0.0,0.0,0.0,0.0,0.0,0.0,0.0,0.0,0.0,0.0,0.0,0.0,0.0,0.0,0.0,0.0,0.0,0.0,0.0,0.0,0.0,0.0,0.0,0.0,0.0,0.0,0.0,0.0,0.0,0.0,0.0,0.0,0.0,0.0,0.0,0.0,0.0,0.0,0.0,0.0,0.0,0.0,0.0,0.0,0.0,0.0,0.0,0.0,3.8688,4.4024,4.7941,4.8807,4.867,4.8615,4.8864,4.5078,4.1252,0.0,0.0,0.0,0.0,0.0,0.0,0.0,0.0,0.0,0.0,0.0,0.0,0.0,0.0,0.0,0.0,0.0,0.0,0.0,0.0,0.0,0.0,0.0,0.0,0.0,0.0,0.0,0.0,0.0,0.0,0.0,0.0,0.0,0.0,0.0,0.0,0.0,0.0,0.0,0.0,0.0,0.0,0.0,0.0,0.0,0.0,0.0,0.0,0.0,0.0,0.0,0.0,0.0,0.0,0.0,0.0,0.0,0.0,0.0,0.0,0.0,0.0,0.0,0.0,0.0,0.0,0.0,0.0,0.0,0.0,0.0,0.0,0.0,0.0,0.0,0.0,0.0,0.0,0.0,0.0,0.0,0.0,0.0,0.0,0.0,0.0,0.0,0.0,0.0,0.0,0.0,0.0,0.0,0.0,0.0,0.0,0.0,0.0,0.0,0.0,0.0,0.0,0.0,3.7861,4.3748,4.8049,4.8816,4.8993,4.901,4.8899,4.6788,4.3513,3.8931,0.0,0.0,0.0,0.0,0.0,0.0,0.0,0.0,0.0,0.0,0.0,0.0,0.0,0.0,0.0,0.0,0.0,0.0,0.0,0.0,0.0,0.0,0.0,0.0,0.0,0.0,0.0,0.0,0.0,0.0,0.0,0.0,0.0,0.0,0.0,0.0,0.0,0.0,0.0,0.0,0.0,0.0,0.0,0.0,0.0,0.0,0.0,0.0,0.0,0.0,0.0,0.0,0.0,0.0,0.0,0.0,0.0,0.0,0.0,0.0,0.0,0.0,0.0,0.0,0.0,0.0,0.0,0.0,0.0,0.0,0.0,0.0,0.0,0.0,0.0,0.0,0.0,0.0,0.0,0.0,0.0,0.0,0.0,0.0,0.0,0.0,0.0,0.0,0.0,0.0,0.0,0.0,0.0,0.0,0.0,0.0,0.0,0.0,0.0,0.0,0.0,0.0,3.8083,4.3968,4.8223,4.8986,4.9127,4.916,4.9148,4.7949,4.5013,4.0014,0.0,0.0,0.0,0.0,0.0,0.0,0.0,0.0,0.0,0.0,0.0,0.0,0.0,0.0,0.0,0.0,0.0,0.0,0.0,0.0,0.0,0.0,0.0,0.0,0.0,0.0,0.0,0.0,0.0,0.0,0.0,0.0,0.0,0.0,0.0,0.0,0.0,0.0,0.0,0.0,0.0,0.0,0.0,0.0,0.0,0.0,0.0,0.0,0.0,0.0,0.0,0.0,0.0,0.0,0.0,0.0,0.0,0.0,0.0,0.0,0.0,0.0,0.0,0.0,0.0,0.0,0.0,0.0,0.0,0.0,0.0,0.0,0.0,0.0,0.0,0.0,0.0,0.0,0.0,0.0,0.0,0.0,0.0,0.0,0.0,0.0,0.0,0.0,0.0,0.0,0.0,0.0,0.0,0.0,0.0,0.0,0.0,0.0,0.0,0.0,0.0,0.0,3.9195,4.4684,4.8652,4.9447,4.9301,4.9264,4.9579,4.8591,4.5903,4.1217,0.0,0.0,0.0,0.0,0.0,0.0,0.0,0.0,0.0,0.0,0.0,0.0,0.0,0.0,0.0,0.0,0.0,0.0,0.0,0.0,0.0,0.0,0.0,0.0,0.0,0.0,0.0,0.0,0.0,0.0,0.0,0.0,0.0,0.0,0.0,0.0,0.0,0.0,0.0,0.0,0.0,0.0,0.0,0.0,0.0,0.0,0.0,0.0,0.0,0.0,0.0,0.0,0.0,0.0,0.0,0.0,0.0,0.0,0.0,0.0,2.9336,2.7247,0.0,0.0,0.0,0.0,0.0,0.0,0.0,0.0,0.0,0.0,0.0,0.0,0.0,0.0,0.0,0.0,0.0,0.0,0.0,0.0,0.0,0.0,0.0,0.0,0.0,0.0,0.0,0.0,0.0,0.0,0.0,0.0,0.0,0.0,0.0,0.0,0.0,0.0,0.0,0.0,4.087,4.6443,5.0442,5.126,5.0748,5.0373,5.0429,4.9016,4.6562,4.2819,3.9924,0.0,0.0,0.0,0.0,0.0,0.0,0.0,0.0,0.0,0.0,0.0,0.0,0.0,0.0,0.0,0.0,0.0,0.0,0.0,0.0,0.0,0.0,0.0,0.0,0.0,0.0,0.0,0.0,0.0,0.0,0.0,0.0,0.0,0.0,0.0,0.0,0.0,0.0,0.0,0.0,0.0,0.0,0.0,0.0,0.0,0.0,0.0,0.0,0.0,0.0,0.0,0.0,0.0,0.0,0.0,0.0,0.0,0.0,0.0,3.4932,3.3025,0.0,0.0,0.0,0.0,0.0,0.0,0.0,0.0,0.0,0.0,0.0,0.0,0.0,0.0,0.0,0.0,0.0,0.0,0.0,0.0,0.0,0.0,0.0,0.0,0.0,0.0,0.0,0.0,0.0,0.0,0.0,0.0,0.0,0.0,0.0,0.0,0.0,0.0,0.0,0.0,4.1917,4.6937,5.0571,5.1723,5.1493,5.1112,5.0737,4.9911,4.8123,4.5168,4.2585,0.0,0.0,0.0,0.0,0.0,0.0,0.0,0.0,0.0,0.0,0.0,0.0,0.0,0.0,0.0,0.0,0.0,0.0,0.0,0.0,0.0,0.0,0.0,0.0,0.0,0.0,0.0,0.0,0.0,0.0,0.0,0.0,0.0,0.0,0.0,0.0,0.0,0.0,0.0,0.0,0.0,0.0,0.0,0.0,0.0,0.0,0.0,0.0,0.0,0.0,0.0,0.0,0.0,4.0965,4.2397,4.4199,4.4035,4.4601,4.5533,4.1449,4.0094,4.0561,3.7098,0.0,0.0,0.0,0.0,0.0,0.0,0.0,0.0,0.0,0.0,0.0,0.0,0.0,0.0,0.0,0.0,0.0,0.0,0.0,0.0,0.0,0.0,4.3057,4.3138,4.5366,4.5821,3.971,0.0,0.0,0.0,0.0,0.0,0.0,0.0,0.0,0.0,0.0,0.0,4.3379,4.7567,5.0705,5.2103,5.219,5.1855,5.1188,5.085,4.976,4.7567,4.5145,4.2728,0.0,0.0,0.0,0.0,0.0,0.0,0.0,0.0,0.0,0.0,0.0,0.0,0.0,0.0,0.0,0.0,0.0,0.0,0.0,0.0,0.0,0.0,0.0,0.0,0.0,0.0,0.0,0.0,0.0,0.0,0.0,0.0,2.5074,2.6694,0.0,0.0,0.0,0.0,0.0,0.0,0.0,0.0,0.0,0.0,0.0,0.0,0.0,3.9193,4.0524,4.3981,4.6076,4.6849,4.9642,5.1119,5.1448,5.1563,5.1738,5.1895,5.1647,0.0,4.3533,4.2167,0.0,0.0,0.0,0.0,0.0,0.0,0.0,0.0,0.0,0.0,0.0,0.0,0.0,0.0,0.0,0.0,0.0,0.0,0.0,0.0,0.0,0.0,5.0512,4.9944,5.1229,5.2118,5.0665,4.4827,3.949,3.8157,3.6219,3.4488,0.0,0.0,0.0,0.0,0.0,0.0,4.6885,5.0509,5.3065,5.3941,5.3433,5.299,5.2886,5.1534,5.0249,4.9227,4.7485,4.5633,4.3719,4.0703,0.0,0.0,0.0,0.0,0.0,0.0,0.0,0.0,0.0,0.0,0.0,0.0,0.0,0.0,0.0,0.0,0.0,0.0,0.0,0.0,0.0,0.0,0.0,0.0,0.0,0.0,0.0,0.0,0.0,2.446,2.7733,2.784,2.8428,2.8323,0.0,0.0,0.0,0.0,0.0,0.0,0.0,0.0,0.0,4.1501,4.3662,4.5585,4.7265,4.8987,4.9955,5.0251,5.2347,5.3618,5.4062,5.4871,5.5239,5.5248,5.5436,5.3897,5.1046,4.8569,4.6415,4.4461,0.0,0.0,0.0,0.0,4.3415,4.4431,4.6488,4.7324,4.7196,4.5698,0.0,0.0,0.0,0.0,0.0,0.0,0.0,4.5046,4.7366,5.0407,5.2974,5.3232,5.4197,5.4996,5.474,5.1417,4.7596,4.4472,4.3025,4.1163,3.7662,3.6726,0.0,0.0,0.0,4.4729,4.8915,5.1578,5.342,5.4288,5.4079,5.3704,5.3224,5.2548,5.1751,5.0917,4.9753,4.8528,4.7267,4.495,4.2418,0.0,0.0,0.0,0.0,0.0,0.0,0.0,0.0,0.0,0.0,0.0,0.0,0.0,0.0,0.0,0.0,0.0,0.0,0.0,0.0,0.0,0.0,0.0,0.0,0.0,0.0,0.0,0.0,2.7386,3.031,2.9879,3.1346,3.1772,0.0,0.0,0.0,0.0,0.0,0.0,3.9388,4.1404,4.4061,4.7551,4.9123,5.09,5.2994,5.339,5.3762,5.4132,5.5311,5.6153,5.6777,5.767,5.809,5.808,5.81,5.8007,5.7623,5.3925,5.1742,5.0629,4.9412,4.8379,4.7693,4.9058,4.9843,5.0545,5.2823,5.3664,5.3434,5.1411,4.9934,4.8246,4.4403,0.0,0.0,0.0,0.0,4.8679,5.1528,5.3363,5.4714,5.5463,5.6273,5.6915,5.6915,5.6246,5.4453,5.0376,4.9224,4.7495,4.2828,4.1861,0.0,4.2916,4.4774,4.7447,5.1245,5.2804,5.3859,5.4583,5.4487,5.412,5.3554,5.3337,5.284,5.1968,5.1142,5.0324,4.9527,4.8101,4.6028,4.3318,0.0,0.0,0.0,0.0,0.0,0.0,0.0,0.0,0.0,0.0,0.0,0.0,0.0,0.0,0.0,0.0,0.0,0.0,0.0,0.0,0.0,0.0,0.0,0.0,0.0,0.0,0.0,0.0,0.0,3.5433,3.7121,0.0,0.0,0.0,0.0,3.8133,4.1711,4.4152,4.4768,4.7797,4.9809,5.0482,5.1941,5.3765,5.5976,5.7437,5.8832,6.0172,6.0989,6.1411,6.1439,6.1389,6.1339,6.1377,6.1287,6.1273,6.0927,5.6732,5.4466,5.3487,5.2462,5.2042,5.2015,5.228,5.3224,5.4425,5.4643,5.4646,5.4749,5.5982,5.482,5.2757,5.1808,5.0494,0.0,0.0,5.2112,5.3558,5.4535,5.605,5.7313,5.735,5.7982,5.8576,5.8576,5.7945,5.683,5.4973,5.3413,5.1806,5.0055,0.0,4.8764,4.9745,5.0606,5.2089,5.4736,5.5137,5.5257,5.5414,5.4757,5.4314,5.4325,5.3629,5.284,5.1968,5.1142,5.0324,4.9527,4.8626,4.7687,4.6779,4.3506,0.0,0.0,0.0,0.0,0.0,0.0,0.0,0.0,0.0,0.0,0.0,0.0,0.0,0.0,0.0,0.0,0.0,0.0,0.0,0.0,0.0,0.0,0.0,0.0,0.0,0.0,0.0,0.0,3.8331,4.0745,0.0,4.0531,4.0909,4.1805,4.3196,4.5321,4.7207,4.865,5.1287,5.345,5.4953,5.6572,5.7918,5.9007,5.9576,5.9803,5.9702,6.0499,6.0845,6.0803,6.1297,6.1538,6.1538,6.1508,6.1446,6.1251,5.9766,5.8957,5.8736,5.8368,5.8175,5.8093,5.7983,5.8333,5.8794,5.8121,5.7947,5.7937,5.7402,5.6329,5.5155,5.4889,5.4427,5.416,5.5035,5.5713,5.6354,5.7154,5.7833,5.8279,5.8279,5.8502,5.8687,5.8687,5.8465,5.8148,5.779,5.6246,5.4287,5.215,5.259,5.296,5.224,5.3451,5.4999,5.6536,5.6733,5.6765,5.6836,5.6133,5.5647,5.5677,5.433,5.3324,5.3021,5.1539,5.0587,5.0286,4.949,4.8401,4.7042,4.584,4.238,0.0,0.0,0.0,0.0,0.0,0.0,0.0,0.0,0.0,0.0,0.0,0.0,0.0,0.0,0.0,0.0,0.0,0.0,0.0,0.0,0.0,0.0,0.0,0.0,0.0,3.7443,4.1359,4.1527,4.4525,4.6045,4.4732,4.5812,4.7109,4.8261,5.0096,5.1663,5.2904,5.4991,5.6741,5.8,5.941,6.0369,6.0913,6.1222,6.1164,6.0783,6.1327,6.1511,6.1467,6.2033,6.2294,6.2284,6.2242,6.214,6.2065,6.2065,6.2119,6.2156,6.1597,6.1321,6.1236,6.1084,6.1074,6.1091,6.0381,6.024,6.0099,5.8762,5.7945,5.7462,5.7202,5.71,5.7202,5.7769,5.7918,5.8019,5.8539,5.8687,5.8687,5.8687,5.8687,5.8687,5.8687,5.8811,5.8918,5.9159,5.8174,5.6696,5.49,5.5708,5.6208,5.5093,5.6048,5.7218,5.8175,5.8031,5.7871,5.7938,5.7235,5.6667,5.639,5.4971,5.3867,5.3297,5.1807,5.0792,5.0527,4.967,4.867,4.7547,4.6711,4.4303,4.0279,0.0,0.0,0.0,0.0,0.0,0.0,0.0,0.0,0.0,0.0,0.0,0.0,0.0,0.0,0.0,0.0,0.0,0.0,0.0,0.0,0.0,0.0,0.0,3.6604,4.0957,4.4551,4.5329,4.865,5.0247,4.8696,5.138,5.3235,5.323,5.614,5.7763,5.7438,5.8962,5.9658,5.9347,6.0182,6.095,6.1592,6.2436,6.3198,6.3857,6.3878,6.3867,6.3883,6.3823,6.378,6.3769,6.3647,6.359,6.359,6.359,6.359,6.3442,6.1882,6.1261,6.1261,6.1261,6.1261,6.1261,6.1261,6.1224,6.1065,6.021,5.995,5.9802,5.9006,5.8745,5.8745,5.8766,5.8766,5.8766,5.8814,5.8803,5.8766,5.8766,5.8729,5.8729,5.8729,5.8986,5.9234,5.9243,5.9243,5.9098,5.8632,5.8545,5.8553,5.8553,5.8568,0.0,5.9728,5.9099,5.86,5.876,5.8068,5.726,5.6487,5.5614,5.4414,5.2749,5.1839,5.1073,5.0315,4.9284,4.8724,4.8762,4.6272,4.5538,4.6694,0.0,0.0,0.0,0.0,0.0,0.0,0.0,0.0,0.0,0.0,0.0,0.0,0.0,0.0,0.0,0.0,0.0,0.0,0.0,0.0,0.0,3.9975,4.3236,4.1698,4.6248,4.9805,5.0051,5.2491,5.4149,5.403,5.5107,5.5808,5.5847,5.7475,5.8293,5.795,5.9389,6.0185,6.0115,6.087,6.1334,6.1528,6.1752,6.2261,6.2977,6.2939,6.3232,6.3691,6.3658,6.3647,6.3647,6.3613,6.359,6.359,6.359,6.359,6.3553,6.3108,6.2922,6.2922,6.2922,6.255,6.2068,6.2068,6.1707,6.115,6.0927,6.0842,6.0758,6.0182,6.0009,6.0049,6.0281,6.0361,6.0521,6.1143,6.0832,6.0361,6.0361,5.9938,5.9514,5.9514,5.9554,5.9706,5.9954,6.0,5.9878,5.9501,5.9642,5.9798,5.9798,6.0018,6.0265,6.0489,6.0303,6.0201,6.022,5.9496,5.8912,5.87,5.6673,5.4933,5.3907,5.2306,5.1584,5.1988,5.1737,5.1859,5.2514,5.0042,4.8958,0.0,0.0,0.0,0.0,0.0,0.0,0.0,0.0,0.0,0.0,0.0,0.0,0.0,0.0,0.0,0.0,0.0,0.0,0.0,0.0,0.0,0.0,4.5122,4.8157,4.8073,5.1046,5.3336,5.3649,5.5418,5.6563,5.6499,5.7627,5.8246,5.7949,5.9165,5.9864,5.9628,6.074,6.1354,6.1354,6.2116,6.2502,6.246,6.246,6.2668,6.3033,6.3033,6.3223,6.359,6.359,6.359,6.359,6.359,6.359,6.359,6.359,6.359,6.359,0.0,0.0,0.0,0.0,6.3427,6.3153,6.3153,6.2942,6.2618,6.2281,6.2168,6.2067,6.144,6.1249,6.1303,6.149,6.1557,6.167,6.2172,6.1906,6.1557,6.1557,6.1207,6.0858,6.0858,6.0659,6.0586,6.0762,6.0626,0.0,6.0251,6.0369,6.0514,6.0514,6.0691,6.0787,6.0787,6.0787,6.0787,6.0787,6.0387,5.9947,5.9601,5.7802,0.0,0.0,0.0,5.3326,5.3351,5.3389,0.0,0.0,0.0,0.0,0.0,0.0,0.0,0.0,5.2226,5.2423,0.0,0.0,0.0,0.0,0.0,0.0,0.0,0.0,0.0,0.0,0.0,0.0,0.0,0.0,0.0,0.0,4.9886,5.2643,5.4438,5.5163,5.5742,5.6374,5.7623,5.8125,5.7429,5.9393,6.0351,5.9365,6.0846,6.1761,6.1686,6.2313,0.0,0.0,0.0,6.3558,6.3508,6.3508,6.3479,6.3479,6.3553,6.3665,6.3739,6.385,6.3888,6.3888,6.3888,6.3888,6.3888,6.3888,6.3888,6.385,6.3665,6.3624,6.3669,6.3669,6.3937,6.4251,6.4251,0.0,0.0,6.3853,6.3626,6.3482,6.2707,6.2496,6.2504,6.2545,6.2553,6.2599,6.2675,6.2637,6.2553,6.2553,6.2477,6.2401,6.2401,6.2048,6.1694,6.1694,6.1358,6.105,6.0979,6.0864,6.0787,6.0787,6.0787,6.0787,6.0787,6.0787,6.0787,6.0787,6.0787,0.0,5.9704,5.8902,5.8082,5.7284,5.6564,5.5748,5.4809,5.4957,5.5407,5.6192,5.6308,5.7965,6.1215,6.1331,6.2235,6.3691,5.6478,5.605,0.0,0.0,0.0,0.0,0.0,0.0,0.0,0.0,0.0,0.0,0.0,0.0,0.0,0.0,0.0,4.9093,5.3078,5.6023,5.6522,5.7815,5.8533,5.8015,5.9395,6.0332,6.0214,6.11,6.1008,5.9412,6.1282,6.2228,6.1555,6.2236,6.263,6.263,6.205,6.1724,6.1703,6.1703,6.2026,6.2625,6.3293,0.0,6.4593,6.5299,6.5633,6.5633,6.5633,6.5633,6.5633,6.5633,6.5633,6.5485,6.411,6.3797,6.4087,6.4087,6.4282,6.4592,6.4592,6.4646,6.467,6.4518,6.448,6.4381,6.3824,6.3673,0.0,6.4067,6.4173,6.4326,6.5017,6.4672,6.4173,6.4173,6.3629,6.313,6.313,6.3015,6.2932,6.2932,6.2899,6.2627,6.1941,6.1287,6.0787,6.0787,6.0787,6.0787,6.0787,6.0787,6.0787,6.0787,6.0787,6.0748,6.0556,5.9754,5.893,5.8126,5.7991,5.7808,5.7623,5.8973,5.9787,5.9952,6.0608,6.1285,6.1988,6.2683,6.3913,6.5484,6.3323,6.2926,0.0,0.0,0.0,0.0,0.0,0.0,0.0,0.0,0.0,0.0,0.0,4.1835,4.5807,0.0,5.0563,5.3207,5.5973,5.7754,5.7796,5.8883,5.9487,5.9089,6.0184,6.0789,6.0336,6.1333,6.1637,6.0763,6.1703,6.2278,6.2215,6.2485,6.2593,6.2501,6.2844,6.2996,6.2996,6.3092,6.3333,6.3742,6.3862,6.4262,6.4972,6.5419,6.5798,6.6079,6.6079,6.6079,6.6103,6.6329,6.6392,6.635,6.5687,6.5441,6.5499,6.568,6.597,6.6205,6.5786,6.5747,6.5841,6.5421,6.5306,6.526,6.5022,6.4949,6.4983,6.5205,6.5243,6.5359,6.5788,6.559,6.5243,6.5243,6.4936,6.4589,6.4589,6.4275,6.3929,6.3929,6.3583,6.316,6.2781,6.2358,6.1781,6.0935,6.0787,6.0787,6.0787,6.0787,6.0787,6.0787,6.0787,6.0787,6.0787,6.0396,5.9985,5.959,5.9579,5.9788,6.0212,6.1103,6.177,6.2183,6.2607,6.3048,6.35,6.4348,6.5373,6.6616,6.7114,6.7357,0.0,0.0,0.0,0.0,0.0,0.0,0.0,3.8398,3.9798,4.4841,4.5323,4.6419,5.1509,5.276,5.3983,5.6924,5.8189,5.883,5.8797,5.9332,5.974,5.9757,6.0505,6.0736,6.0004,6.1132,6.1898,6.1851,6.1883,6.2192,6.2898,6.3116,6.3094,6.2779,6.4182,6.4853,6.4692,6.4854,6.4914,6.4914,6.4616,6.4718,6.5176,6.5325,6.5754,6.6384,6.6579,6.6677,6.6723,6.7106,6.7293,6.7306,6.7731,6.7685,6.7398,6.7388,6.7613,6.7814,6.7163,6.7132,6.7212,6.6397,6.6134,6.6096,6.5942,6.5904,6.5904,6.5904,6.5904,6.5904,6.5904,6.5904,6.5904,6.5904,6.5904,6.5904,6.5904,6.5359,6.4859,6.4859,6.4282,6.3737,6.3583,6.3557,6.2986,6.1325,6.1056,6.0979,6.0825,6.0787,6.0787,6.0787,6.0787,6.0787,6.0787,6.0979,6.1056,6.1056,6.1204,6.1589,6.2287,6.2326,6.2734,6.3629,6.3629,6.4159,6.5257,6.5901,6.6732,6.7742,6.9136,6.9803,3.0979,3.2061,3.3815,3.7704,3.7975,3.9555,0.0,4.7599,4.6683,5.1257,5.2809,5.3553,5.4272,5.6287,5.7943,5.8361,5.9092,5.963,5.9792,5.9858,5.9902,5.9974,6.0638,6.1077,6.1104,6.1132,6.1117,6.1021,6.1526,6.2154,6.2932,6.4387,6.4817,6.4026,6.4936,6.5049,6.4288,6.4271,6.4292,6.4329,6.5025,6.539,6.5482,6.6185,6.6844,6.7468,6.8364,6.8752,6.8795,6.9194,6.937,6.9408,6.9806,6.9933,6.9709,6.8269,6.7989,6.8306,6.8229,6.8211,6.8122,6.7244,6.6981,6.6827,6.6134,6.5904,6.5904,6.5904,6.5904,6.5904,6.5904,6.5904,6.5904,6.5904,6.5904,6.5904,6.5904,6.582,6.5743,6.5743,6.5667,6.5359,6.4589,6.4484,6.3969,6.2222,6.1941,6.1672,6.0902,6.0787,6.0787,6.0787,6.0787,6.0787,6.0787,6.1518,6.1941,6.1941,6.2627,6.3045,6.316,6.316,6.3589,6.4442,6.4486,6.5287,6.6939,6.6955,6.7872,6.9601,6.9755,6.9765,3.7892,3.9388,4.054,4.372,4.5245,4.6845,5.0397,5.0807,5.1249,5.4166,5.5093,5.5702,5.6781,5.7961,5.8775,5.8729,5.9482,6.0037,5.9991,5.9572,5.9275,5.9229,5.9539,5.991,6.0435,6.0416,6.0766,6.1707,6.2007,6.2672,6.3879,6.4594,6.4724,6.4219,6.5045,6.5336,6.496,6.5081,6.514,6.514,6.5153,6.5596,6.6382,6.6711,6.756,6.8789,6.9399,6.9626,6.9588,7.0009,7.0141,7.0082,7.0471,7.0637,7.0568,6.9927,6.976,6.9783,6.9361,6.92,6.9007,6.8129,6.7513,6.7058,6.6712,6.6288,6.5904,6.5904,6.5904,6.5904,6.5904,6.5904,6.5904,6.5904,6.5935,6.596,6.596,6.5946,6.597,6.597,6.597,6.5854,6.5469,6.5454,6.5041,6.3868,6.2849,6.21,6.1714,6.1278,6.0985,6.0985,6.0985,6.1167,6.1637,6.2023,6.2431,6.2904,6.324,6.3625,6.4164,6.4164,6.455,6.5392,6.5899,6.6533,6.7257,6.8229,6.9114,6.9898,7.04,7.0872,4.2445,4.4388,4.5881,4.8311,5.0587,5.2231,5.2081,5.2843,5.4045,5.557,5.6158,5.6753,5.8075,5.8653,5.9085,5.9498,5.9741,6.0022,6.0341,5.9428,5.8819,5.903,5.8832,5.9022,5.9818,5.9893,6.0614,6.2265,6.2416,6.3076,6.4614,6.4907,6.4804,6.4424,6.5205,6.5544,6.5356,6.5804,6.6009,6.6018,6.5885,6.6383,6.7347,6.752,6.8296,6.9541,7.0045,7.0208,7.0102,7.0515,7.0604,7.0539,7.0839,7.0959,7.0965,7.1037,7.0992,7.0828,7.0298,7.0054,6.9898,6.9045,6.8321,6.7789,6.7513,6.6859,6.6244,6.6244,6.6058,6.5904,6.5923,6.5929,6.5935,6.5947,6.5952,6.5988,6.5988,6.6017,6.6007,6.6007,6.6007,6.6007,6.6007,6.6019,6.5843,6.5231,6.3938,6.2926,6.2686,6.2138,6.1771,6.1771,6.1771,6.1988,6.2571,6.2836,6.3245,6.3825,6.4051,6.4475,6.5093,6.5131,6.5511,6.636,6.6983,6.7535,6.8054,6.9289,7.0025,7.033,7.0966,7.1745,4.2341,4.4554,4.7588,5.0001,5.1901,5.3554,5.5114,5.4995,5.4824,5.5729,5.6785,5.7572,5.7617,5.8425,5.9609,6.114,6.0044,5.9505,6.1055,5.9798,5.8984,5.978,5.9173,5.9022,5.9818,5.9893,6.0614,6.2265,6.2416,6.3136,6.4804,6.5637,6.5704,6.4909,6.5666,6.5695,6.4946,6.6012,6.6567,6.6606,6.7686,6.8199,6.8269,6.8887,6.9159,6.9282,7.0239,7.0644,7.0602,7.101,7.1148,7.1081,7.1087,7.1093,7.1106,7.1178,7.1081,7.0898,7.086,7.086,7.0744,6.9937,6.9629,6.9475,6.8622,6.7744,6.7058,6.7058,6.6519,6.5916,6.5984,6.6002,6.6014,6.599,6.6001,6.6001,6.6001,6.6001,6.6007,6.6007,6.6007,6.6007,6.6007,6.6058,6.6096,6.6058,6.5417,6.4575,6.3576,6.3439,6.3439,6.3439,6.3439,6.3439,6.3477,6.4249,6.4712,6.4751,6.5473,6.593,6.5969,6.5969,6.636,6.7253,6.7298,6.8176,6.9932,6.9893,7.0413,7.1371,7.146,7.1911,4.6951,4.8817,5.0446,5.341,5.4643,5.5251,5.581,5.5744,5.5693,5.6087,5.5607,5.531,5.5905,5.6747,5.7548,5.8049,5.9612,6.0936,6.1437,6.0492,5.9946,6.0366,6.0026,5.9946,6.0411,6.0129,6.0673,6.2529,6.3207,6.4344,6.6188,6.654,6.6483,6.6036,6.5879,6.5887,6.6036,6.6586,6.7163,6.7745,6.8641,6.9104,6.9149,7.0086,7.0509,7.0478,7.107,7.1231,7.1065,7.1191,7.1201,7.11,7.11,7.11,7.1106,7.113,7.1093,7.1037,7.1037,7.0979,7.086,7.0591,7.0129,6.9636,6.9412,6.8739,6.8026,6.8069,6.7464,6.6809,6.6871,6.6447,6.5984,6.6001,6.6036,6.6069,6.6069,6.6102,6.6128,6.6128,6.6128,6.6128,6.6128,6.6144,6.616,6.616,6.5519,6.4667,6.3796,6.3719,6.3719,6.3719,6.3719,6.3937,6.4445,6.4754,6.5165,6.5708,6.5974,6.6128,6.6128,6.6708,6.7168,6.7549,6.8666,6.9565,7.0265,7.0791,7.1213,7.1608,7.1616,7.2398,4.9372,5.1024,5.2278,5.5229,5.6048,5.6171,5.6474,5.6141,5.5775,5.5872,5.4625,5.3696,5.4307,5.439,5.4842,5.6339,5.8502,6.0303,6.1127,6.1057,6.0859,6.0671,6.082,6.0981,6.11,6.1106,6.1717,6.3284,6.4193,6.5202,6.6481,6.684,6.6916,6.6761,6.6351,6.6512,6.7182,6.7738,6.8533,6.9468,7.0004,7.0411,7.0709,7.1435,7.1897,7.2159,7.2376,7.2366,7.2214,7.2214,7.2192,7.206,7.1751,7.1635,7.1597,7.1288,7.116,7.1136,7.1112,7.1043,7.0972,7.0972,7.0625,7.0208,7.0253,6.9655,6.9019,6.9061,6.8455,6.7761,6.779,6.7359,6.6979,6.6996,6.6797,6.6592,6.6592,6.6392,6.6185,6.6185,6.6185,6.6215,6.6267,6.6273,6.6326,6.6326,6.5883,6.5312,6.4747,6.4651,6.4651,6.4651,6.4651,6.4906,6.5468,6.5511,6.573,6.6283,6.6586,6.6772,6.6772,6.7613,6.8245,6.8663,6.9708,7.0464,7.0888,7.1384,7.1677,7.1691,7.2049,7.2945,4.9672,5.1347,5.3168,5.558,5.6201,5.6406,5.7134,5.6159,5.5053,5.497,5.3627,5.25,5.2609,5.1485,5.1905,5.5999,5.7042,5.8126,6.0381,6.1514,6.1834,6.0937,6.1641,6.2225,6.2186,6.3001,6.3842,6.4683,6.5376,6.5832,6.5941,6.6717,6.7147,6.7167,6.7102,6.7532,6.8366,6.9435,7.0535,7.1598,7.1636,7.2077,7.2805,7.2844,7.3282,7.4009,7.4009,7.3974,7.3922,7.3922,7.3889,7.3806,7.2955,7.2607,7.2491,7.1601,7.1258,7.1201,7.1136,7.1106,7.11,7.11,7.11,7.11,7.1106,7.0572,6.9966,6.9966,6.9349,6.871,6.8767,6.874,6.8718,6.8761,6.8153,6.7578,6.7578,6.692,6.6306,6.6283,6.6254,6.6263,6.6394,6.6473,6.6508,6.6508,6.6508,6.6424,6.6249,6.6225,6.6225,6.622,6.6225,6.6285,6.6408,6.6461,6.6492,6.6541,6.7387,6.7883,6.7883,6.8681,6.957,7.0393,7.0456,7.0899,7.172,7.1725,7.1741,7.1782,7.2694,7.355,5.299,5.4604,5.5743,5.6934,5.7446,5.737,5.6284,5.5363,5.4323,5.2987,5.0423,4.8209,4.7536,4.9687,5.1881,5.2983,5.809,6.1921,6.1862,6.3181,6.413,6.4033,6.4634,6.5383,6.6221,6.7083,6.7699,6.7893,6.7343,6.7593,6.9047,6.9328,6.9377,6.9176,6.8781,6.8864,6.948,7.0627,7.1305,7.162,7.2207,7.2568,7.2749,7.3409,7.3772,7.3948,7.3948,7.3916,7.39,7.39,7.3894,7.3806,7.2955,7.2607,7.2491,7.1601,7.1286,7.1269,7.1253,7.1184,7.11,7.11,7.11,7.1112,7.1166,7.1029,7.0886,7.0932,7.0325,6.9634,6.9645,6.922,6.8794,6.881,6.8617,6.8462,6.8462,6.8269,6.7982,6.7424,6.6838,6.6426,6.6461,6.6492,6.6504,6.6488,6.6484,6.6468,6.6421,6.6416,6.6407,6.6421,6.6402,6.6421,6.6473,6.7063,6.747,6.7461,6.83,6.8756,6.8756,6.9609,7.0234,7.0541,7.1137,7.159,7.1913,7.1909,7.2257,7.2881,7.3153,7.4013,5.4616,5.615,5.7131,5.7167,5.7391,5.7082,5.4946,5.3947,5.2794,5.0216,4.7626,4.5438,4.4198,4.687,4.9794,5.1354,5.6857,6.1207,6.1823,6.3727,6.4929,6.471,6.5963,6.6954,6.72,6.8024,6.8529,6.8529,6.8601,6.898,6.9725,7.0121,7.0231,7.0089,6.98,6.9947,7.0637,7.1283,7.1581,7.1571,7.2385,7.2938,7.3271,7.4129,7.4684,7.5011,7.5011,7.4995,7.5005,7.5005,7.5005,7.4928,7.4038,7.3684,7.3535,7.2363,7.1893,7.1838,7.1479,7.1269,7.119,7.119,7.119,7.1195,7.1236,7.1247,7.1253,7.1286,7.0949,7.0562,7.0562,7.0247,6.9899,6.9899,6.9667,6.9425,6.9425,6.9144,6.8808,6.8371,6.7695,6.7296,6.7642,6.7436,6.7331,6.7713,6.7789,6.7752,6.7757,6.7358,6.7218,6.7594,6.7645,6.7668,6.7702,6.8174,6.8463,6.8491,6.9302,6.9804,6.9804,7.0622,7.1147,7.1207,7.203,7.2498,7.2553,7.2938,7.3399,7.3821,7.4212,7.4915,5.5517,5.6855,5.79,5.7136,5.7028,5.6389,5.3685,5.2343,5.0689,4.7187,4.5019,4.3339,4.1931,4.4014,4.7081,5.0608,5.4896,5.8626,6.1066,6.3708,6.5106,6.4411,6.6473,6.7713,6.7052,6.7596,6.8027,6.8105,6.9578,7.0121,6.9302,7.0156,7.07,7.0808,7.0804,7.1133,7.1904,7.1904,7.1881,7.1829,7.2638,7.3388,7.4104,7.4962,7.5752,7.6403,7.6403,7.6403,7.6403,7.6403,7.6403,7.6326,7.5425,7.5115,7.4928,7.3397,7.2767,7.2507,7.1815,7.1456,7.1302,7.1297,7.1297,7.1297,7.1297,7.1297,7.1297,7.1297,7.1297,7.1297,7.1297,7.1318,7.134,7.134,7.0843,7.0394,7.0394,6.9817,6.9319,6.9319,6.8707,6.8431,6.917,6.8748,6.8532,6.9284,6.9402,6.9442,6.9561,6.8647,6.8284,6.9064,6.9144,6.9181,6.9318,6.9439,6.9528,6.9563,7.0387,7.0857,7.0857,7.1599,7.1989,7.1989,7.2842,7.3303,7.3293,7.4153,7.4616,7.4681,7.5463,7.5853,5.7237,5.8147,5.8896,5.8906,5.8505,5.7335,5.423,5.1375,4.8383,4.4909,4.2233,4.0423,4.0159,4.3321,4.7148,5.0617,5.5359,5.924,6.1144,6.4213,6.6237,6.6081,6.7713,6.9069,6.9578,6.9185,6.9146,6.9811,7.0782,7.1015,7.016,7.1594,7.2742,7.344,7.3399,7.3413,7.3598,7.3598,7.3529,7.3473,7.4369,7.4801,7.4939,7.5796,7.626,7.6403,7.6403,7.6403,7.6403,7.6403,7.6403,7.6326,7.5425,7.5115,7.4999,7.4049,7.3264,7.2633,7.2441,7.1948,7.1355,7.1308,7.1297,7.1297,7.1297,7.1297,7.1297,7.1297,7.1297,7.1297,7.1297,7.1392,7.1474,7.1474,7.1449,7.1438,7.1438,7.0873,7.035,7.035,6.9686,6.9207,6.9364,6.9273,6.9224,6.9392,6.9393,6.9672,7.0386,6.9686,6.918,6.9335,6.9336,6.9375,6.9375,7.0039,7.0468,7.0465,7.1288,7.1758,7.1758,7.1913,7.1988,7.1982,7.2873,7.3292,7.3317,7.4138,7.4879,7.558,7.5736,7.6205,5.7799,5.8641,5.9278,5.9495,5.8367,5.6098,5.1903,4.8438,4.5002,4.1089,3.9238,3.8204,3.7757,4.1504,4.5375,4.7512,5.1785,5.6055,5.9551,6.2232,6.4679,6.6897,6.8292,6.9263,6.9651,6.934,6.9263,6.9651,7.086,7.1636,7.1632,7.2854,7.3682,7.4086,7.4039,7.3999,7.3969,7.3969,7.3937,7.3922,7.4735,7.5144,7.5115,7.6011,7.6403,7.6403,7.6403,7.6403,7.6403,7.6403,7.6403,7.6365,7.5933,7.5779,7.5668,7.4884,7.4315,7.3806,7.2953,7.2362,7.1954,7.1489,7.1318,7.1297,7.1297,7.1297,7.1297,7.1297,7.1358,7.1386,7.1386,7.1494,7.1539,7.1539,7.1631,7.1782,7.1849,7.1595,7.1328,7.1328,7.0659,7.0212,7.0685,7.0366,7.0246,7.0685,7.0764,7.0885,7.1321,7.1007,7.0735,7.0741,7.0739,7.0738,7.0741,7.1131,7.1365,7.1365,7.1756,7.1991,7.1989,7.1987,7.2217,7.2678,7.3532,7.4188,7.4603,7.5431,7.6056,7.6477,7.6477,7.6711,5.7609,5.8638,5.9518,5.9933,5.794,5.4605,4.9884,4.5953,4.2148,3.807,3.7003,3.6676,3.6178,3.9392,4.277,4.4753,4.79,5.2057,5.7768,6.0367,6.3125,6.7052,6.8451,6.9224,6.9612,6.9302,6.9336,6.9833,7.1456,7.2699,7.3407,7.4009,7.4402,7.4596,7.4547,7.4501,7.4447,7.4447,7.4431,7.4425,7.5082,7.5386,7.5386,7.6088,7.6403,7.6403,7.6403,7.6403,7.6403,7.6403,7.6403,7.6403,7.6403,7.6403,7.6332,7.5681,7.5321,7.4917,7.3455,7.2819,7.2496,7.1686,7.1389,7.1297,7.1297,7.1334,7.1343,7.1343,7.1448,7.1527,7.1527,7.1562,7.1649,7.1665,7.1778,7.1874,7.1985,7.2019,7.2019,7.2019,7.1466,7.1189,7.1898,7.1425,7.1225,7.1896,7.2014,7.2015,7.2016,7.2016,7.1982,7.1991,7.199,7.1989,7.1991,7.199,7.1988,7.1988,7.1988,7.1986,7.198,7.2174,7.26,7.3296,7.4348,7.5163,7.5814,7.6684,7.7112,7.7101,7.7101,7.7101,5.6736,5.8182,5.9672,6.0864,5.8058,5.4119,5.0641,4.5992,4.1434,3.7911,3.6526,3.6157,3.6855,3.7385,3.9509,4.4989,4.6232,4.9107,5.6644,6.0526,6.3595,6.6314,6.8097,6.969,7.1209,7.0005,7.0023,7.2276,7.401,7.5013,7.5143,7.5129,7.5459,7.6267,7.6217,7.6183,7.6177,7.6177,7.6177,7.6171,7.6249,7.6287,7.6287,7.6365,7.6403,7.6403,7.6403,7.6403,7.6403,7.6403,7.6403,7.6403,7.6403,7.6403,7.6403,7.6332,7.5819,7.505,7.412,7.33,7.256,7.1751,7.142,7.1297,7.1297,7.1387,7.1474,7.1474,7.1533,7.1601,7.1601,7.1704,7.1828,7.1912,7.1986,7.1984,7.1981,7.2019,7.2019,7.2019,7.1935,7.1928,7.2007,7.1921,7.1912,7.1991,7.1991,7.1996,7.2006,7.1999,7.2001,7.1981,7.1982,7.1982,7.1982,7.1982,7.1982,7.1982,7.1982,7.1981,7.198,7.2754,7.3218,7.3296,7.4885,7.5738,7.5814,7.6673,7.7103,7.7101,7.7101,7.7101,5.603,5.7931,5.975,6.0508,5.7489,5.313,4.8721,4.4088,3.9755,3.634,3.5348,3.5181,3.5485,3.5978,3.7603,4.1568,4.2617,4.5453,5.2717,5.6253,5.9788,6.445,6.6039,6.8008,7.1245,7.0503,7.1064,7.4082,7.5385,7.6022,7.6049,7.6006,7.614,7.6483,7.6432,7.6403,7.6403,7.6403,7.6403,7.6403,7.6403,7.6403,7.6403,7.6403,7.6403,7.6403,7.6403,7.6403,7.6403,7.6403,7.6403,7.6403,7.6403,7.6403,7.6403,7.6403,7.6189,7.5747,7.4418,7.3736,7.3233,7.1979,7.1529,7.1465,7.1391,7.1425,7.1505,7.1505,7.1619,7.1733,7.1733,7.1834,7.1943,7.2007,7.2003,7.2003,7.2003,7.2003,7.2003,7.2003,7.1999,7.1995,7.1995,7.1991,7.1987,7.1987,7.1987,7.199,7.1995,7.1991,7.1991,7.2002,7.2008,7.2014,7.2019,7.2015,7.2012,7.2012,7.2012,7.2009,7.2003,7.2318,7.2979,7.3987,7.4685,7.554,7.6594,7.6945,7.7101,7.7101,7.7101,7.7101,5.4538,5.6737,5.8439,5.9298,5.6498,5.2165,4.697,4.2831,3.9036,3.5346,3.4557,3.4552,3.4501,3.4808,3.5972,3.8848,3.9975,4.3003,5.0189,5.3375,5.7068,6.2585,6.4178,6.6489,7.0749,7.1726,7.3127,7.5501,7.6145,7.6466,7.6483,7.6483,7.6477,7.646,7.6438,7.6426,7.6426,7.6426,7.6426,7.6426,7.6409,7.6403,7.6403,7.6403,7.6403,7.6403,7.6403,7.6403,7.6403,7.6403,7.6403,7.6403,7.6403,7.6403,7.6403,7.6403,7.6403,7.6183,7.485,7.4169,7.3748,7.2397,7.1814,7.1614,7.1525,7.1552,7.158,7.158,7.1715,7.1874,7.1874,7.1939,7.1987,7.1987,7.1987,7.1987,7.1987,7.1987,7.1987,7.1987,7.1987,7.1987,7.1987,7.1987,7.1987,7.1987,7.1987,7.1987,7.1987,7.1987,7.199,7.1994,7.2001,7.2009,7.2016,7.201,7.2006,7.2006,7.2006,7.2001,7.1989,7.2231,7.305,7.4486,7.4759,7.5618,7.7101,7.7101,7.7101,7.7101,7.7106,7.7228,5.1893,5.4188,5.5238,5.724,5.5165,5.1248,4.6097,4.2879,3.9738,3.5399,3.4501,3.4499,3.4499,3.3878,3.4459,3.7841,3.9082,4.2342,5.0112,5.3375,5.6599,6.0911,6.2973,6.5674,6.9895,7.4028,7.645,7.6488,7.6432,7.6426,7.6483,7.6483,7.646,7.6403,7.6455,7.6483,7.6483,7.6483,7.6483,7.6483,7.6426,7.6403,7.6403,7.6403,7.6403,7.6403,7.6403,7.6403,7.6403,7.6403,7.6403,7.6403,7.6403,7.6403,7.6403,7.6403,7.6403,7.6293,7.5465,7.4716,7.3968,7.3153,7.2352,7.1689,7.1688,7.173,7.1794,7.1794,7.1909,7.1989,7.1989,7.1989,7.1987,7.1987,7.1987,7.1987,7.1987,7.1987,7.1987,7.1987,7.1987,7.1987,7.1987,7.1987,7.1987,7.1987,7.1987,7.1987,7.1987,7.1987,7.1993,7.2004,7.2006,7.2006,7.2006,7.2006,7.2006,7.2006,7.2006,7.2001,7.1989,7.2846,7.3664,7.4486,7.5346,7.6205,7.7101,7.7101,7.7101,7.7101,7.7116,7.7558,4.6235,4.9278,5.1728,5.0217,4.904,4.7038,4.2416,4.0725,3.8881,3.4581,3.4111,3.415,3.298,3.2592,3.4301,4.0055,4.1221,4.386,5.1008,5.4779,5.7923,6.1027,6.6516,7.0533,7.1879,7.4257,7.5922,7.6509,7.6531,7.657,7.6586,7.6586,7.6576,7.6521,7.6576,7.6565,7.6483,7.6483,7.6466,7.6426,7.6409,7.6403,7.6403,7.6403,7.6403,7.6403,7.6403,7.6403,7.6403,7.6403,7.6403,7.6403,7.6403,7.6403,7.6403,7.6403,7.6454,7.634,7.4943,7.4353,7.4019,7.26,7.1991,7.1829,7.1829,7.1831,7.1835,7.1905,7.1964,7.1987,7.1987,7.1987,7.1987,7.1987,7.1987,7.1987,7.1987,7.1987,7.1987,7.1987,7.1987,7.1991,7.2,7.2001,7.2001,7.2001,7.2001,7.2001,7.2001,7.2001,7.2005,7.2015,7.2016,7.2013,7.2006,7.2012,7.201,7.1995,7.2002,7.2001,7.1989,7.2845,7.3664,7.4486,7.5346,7.6244,7.7101,7.7111,7.7082,7.709,7.7093,7.7565,4.2455,4.5186,4.7284,4.5989,4.5435,4.4145,4.0145,3.9194,3.817,3.4501,3.3917,3.372,3.267,3.2747,3.4536,3.9472,4.1376,4.4484,5.1047,5.4352,5.7687,6.186,6.7644,7.1459,7.1808,7.3641,7.5172,7.603,7.6108,7.6273,7.6604,7.6642,7.6652,7.6633,7.6652,7.6617,7.656,7.656,7.6344,7.5963,7.594,7.5791,7.5498,7.5824,7.5929,7.5968,7.626,7.6403,0.0,7.6403,7.6433,7.6447,7.6093,7.6037,7.6004,7.5689,7.5623,7.5534,7.4502,7.4021,7.3675,7.2629,7.2146,7.1947,7.1947,7.191,7.1909,7.1961,7.1987,7.1987,7.1987,7.1987,7.1987,7.1987,7.1987,7.1987,7.1987,7.1987,7.1987,7.1987,7.1987,7.199,7.1999,7.2003,7.2006,7.2006,7.2009,7.2011,7.2011,7.2011,7.2016,7.1984,7.1985,7.1983,7.2018,7.2019,7.2015,7.2003,7.2004,7.2157,7.2495,7.3001,7.3821,7.4954,7.5502,7.6244,7.7101,7.7111,7.7085,7.7098,7.745,7.8076,0.0,4.1505,4.1981,4.343,4.3339,4.198,3.8698,3.7976,0.0,3.4927,3.3839,3.3371,3.3526,3.415,3.5315,3.7489,4.0599,4.4795,5.0736,5.3261,5.6935,6.3499,6.7135,6.943,7.0288,7.2546,7.4296,7.5144,7.5221,7.5634,7.6575,7.6618,7.6637,7.6673,7.6671,7.6667,7.6612,7.6607,7.618,7.5284,7.5232,7.4772,7.4009,7.485,7.5182,7.5159,7.6035,7.6366,7.635,7.6389,7.6463,7.6424,7.5638,7.5356,7.5317,7.4496,7.4227,7.4195,7.4156,7.367,7.3083,7.3044,7.2574,7.1991,7.1991,7.199,7.1987,7.1987,7.1987,7.1987,7.1987,7.1987,7.1987,7.1987,7.1989,7.1989,7.1989,7.199,7.1991,7.1991,7.1991,7.1991,7.1993,7.2002,7.2008,7.2008,7.2016,7.1981,7.1981,7.1981,7.1984,7.199,7.199,7.199,7.199,7.1986,7.1982,7.198,7.2013,7.2394,7.3278,7.3355,7.4137,7.5778,7.5856,7.6286,7.7106,7.7106,7.712,7.7139,7.7959,7.8783,3.2501,0.0,3.6709,3.4534,3.4857,3.5278,0.0,3.4035,3.4303,3.372,3.3448,3.3915,3.5857,3.5816,3.7564,4.3896,4.6698,4.9729,5.4427,5.9371,6.381,6.7372,6.9649,7.1274,7.2093,7.2785,7.3506,7.4399,7.4476,7.4817,7.5643,7.5721,7.5978,7.6614,7.6637,7.6627,7.6612,7.657,7.6079,7.5226,7.5216,7.4772,7.4009,7.485,7.4892,7.4436,7.5914,7.6222,7.5767,7.6436,7.634,7.5741,7.5546,7.5057,7.4496,7.4262,7.4274,7.4279,7.3607,7.3318,7.3154,7.2494,7.2139,7.2014,7.2014,7.2003,7.1987,7.1987,7.1987,7.1987,7.1987,7.1987,7.1987,7.1987,7.1995,7.2002,7.2002,7.2008,7.2014,7.2014,7.2014,7.2016,7.1984,7.1985,7.1986,7.1986,7.1987,7.1988,7.1988,7.1988,7.199,7.1992,7.1992,7.1992,7.1992,7.1992,7.199,7.1981,7.1984,7.2374,7.3264,7.3928,7.4788,7.5842,7.6468,7.6939,7.7178,7.7178,7.7182,7.7187,7.7382,7.7968,2.9004,3.2205,3.4873,3.3826,3.4264,3.4932,3.4958,3.4381,3.3954,3.434,3.4148,3.4538,3.6712,3.737,3.9468,4.5217,4.8252,5.1827,5.7266,6.249,6.6562,6.87,7.0484,7.1726,7.2152,7.2259,7.2647,7.354,7.3618,7.3955,7.4783,7.4899,7.5082,7.5525,7.5541,7.568,7.5992,7.5955,7.5343,7.4136,7.4136,7.3737,7.3026,7.3805,7.3957,7.3651,7.4943,7.5288,7.4966,7.5829,7.5741,7.4995,7.4995,7.4506,7.3742,7.3352,7.3241,7.3241,7.2773,7.2652,7.2639,7.2135,7.2019,7.2019,7.2019,7.2013,7.2004,7.2004,7.2004,7.2004,7.2004,7.2004,7.2004,7.2004,7.2009,7.2013,7.2013,7.2016,7.2019,7.2019,7.2019,7.1982,7.1985,7.1988,7.199,7.199,7.1991,7.1991,7.1991,7.1991,7.1992,7.1992,7.1992,7.1992,7.1992,7.1992,7.1991,7.1986,7.2376,7.3,7.3856,7.4715,7.5574,7.6434,7.6864,7.7141,7.7184,7.7182,7.7184,7.7187,7.7187,7.7655,2.8161,3.1518,3.4829,3.5764,3.6404,3.6937,3.7482,3.6015,3.4771,3.5777,3.5507,3.5743,3.7877,3.9701,4.1993,4.5414,4.8952,5.3533,6.012,6.4247,6.722,6.8878,7.0515,7.1504,7.1498,7.1585,7.1921,7.2679,7.2718,7.3107,7.3955,7.4074,7.4166,7.4277,7.4264,7.4514,7.4929,7.507,7.4393,7.2924,7.2924,7.2523,7.1831,7.2631,7.2942,7.2875,7.383,7.418,7.4116,7.4976,7.4896,7.4218,7.4218,7.3784,7.3005,7.2263,7.1999,7.2008,7.201,7.2016,7.1984,7.1984,7.1984,7.1984,7.1984,7.1984,7.1984,7.1984,7.1982,7.2019,7.2019,7.2019,7.2019,7.2019,7.1981,7.1982,7.1982,7.1983,7.1984,7.1984,7.1984,7.1984,7.1984,7.1988,7.199,7.199,7.1992,7.1992,7.1992,7.1992,7.1992,7.1992,7.1992,7.1992,7.1992,7.1992,7.1992,7.199,7.2807,7.3742,7.4757,7.5656,7.6437,7.7101,7.7101,7.7143,7.7185,7.7143,7.7143,7.7185,7.7341,7.7771,3.0208,3.3366,3.4889,3.2226,3.3761,3.5574,3.4373,3.4305,3.4966,3.6556,3.7374,3.9006,4.2889,4.4986,4.7237,5.0697,5.4737,5.9294,6.4696,6.657,6.8055,6.9721,7.0845,7.152,7.159,7.1631,7.1752,7.195,7.1955,7.2336,7.3135,7.3185,7.3495,7.4175,7.4223,7.395,7.3356,7.4031,7.3888,7.2994,7.2994,7.2582,7.1831,7.2631,7.266,7.2146,7.3703,7.4023,7.3499,7.4319,7.4197,7.3486,7.3486,7.294,7.2198,7.2042,7.201,7.2019,7.1986,7.199,7.1992,7.1992,7.1992,7.1992,7.1992,7.1992,7.1992,7.1992,7.1988,7.2019,7.2019,7.2019,7.2019,7.2019,7.1985,7.1989,7.1989,7.1991,7.1992,7.1992,7.1992,7.1992,7.1992,7.1992,7.1992,7.1992,7.1992,7.1992,7.1992,7.1992,7.1992,7.1992,7.1992,7.1992,7.1992,7.1992,7.1992,7.1992,7.2812,7.4023,7.5625,7.6523,7.707,7.7187,7.7187,7.7187,7.7187,7.7187,7.7187,7.7226,7.7968,7.8359,2.896,3.2365,3.4764,3.3644,3.6287,3.9216,3.9459,3.8693,3.846,4.0206,4.0869,4.2189,4.553,4.755,5.0425,5.5709,5.8622,6.1518,6.5246,6.6825,6.8075,6.9383,7.0751,7.1562,7.1638,7.1725,7.1759,7.1791,7.1792,7.1945,7.2327,7.2394,7.2599,7.2945,7.3001,7.2811,7.2461,7.2811,7.2807,7.2406,7.2406,7.2221,7.1914,7.2305,7.2264,7.2019,7.2765,7.2912,7.2651,7.351,7.3358,7.2622,7.313,7.2786,7.2015,7.198,7.1984,7.1987,7.1991,7.1992,7.1992,7.1992,7.1992,7.1992,7.1992,7.1992,7.1992,7.1992,7.1991,7.199,7.199,7.199,7.199,7.199,7.1991,7.1991,7.1991,7.1992,7.1992,7.1992,7.1992,7.1992,7.1992,7.1992,7.1992,7.1992,7.1992,7.1992,7.1992,7.1992,7.1992,7.1992,7.1992,7.1992,7.1992,7.1992,7.2383,7.3359,7.3789,7.4765,7.6523,7.6992,7.7187,7.7187,7.7187,7.7187,7.7187,7.7187,7.7187,7.7226,7.8086,7.8515,2.8263,3.1529,3.4574,3.6215,3.9267,4.2407,4.459,4.3394,4.2461,4.4829,4.545,4.6188,4.813,5.0234,5.3689,5.97,6.1412,6.2899,6.5443,6.687,6.8074,6.9256,7.0539,7.1443,7.1707,7.1764,7.1814,7.1862,7.1862,7.1862,7.1862,7.1914,7.1911,7.1911,7.1968,7.1987,7.1987,7.1987,7.1968,7.1911,7.1911,7.1942,7.1987,7.1987,7.1987,7.1987,7.1991,7.1993,7.2032,7.2737,7.2587,7.2087,7.2713,7.2601,7.1984,7.1989,7.199,7.1991,7.1992,7.1992,7.1992,7.1992,7.1992,7.1992,7.1992,7.1992,7.1992,7.1992,7.1992,7.1992,7.1992,7.1992,7.1992,7.1992,7.1992,7.1992,7.1992,7.1992,7.1992,7.1992,7.1992,7.1992,7.1992,7.1992,7.1992,7.1992,7.1992,7.1992,7.1992,7.1992,7.1992,7.1992,7.1992,7.1992,7.1992,7.1992,7.2734,7.4492,7.4609,7.539,7.7148,7.7187,7.7187,7.7187,7.7187,7.7187,7.7187,7.7187,7.7187,7.7226,7.8086,7.8594,3.0529,3.2505,3.4262,3.8389,4.0196,4.1835,4.5144,4.5183,4.5686,4.9801,5.1241,5.1824,5.2018,5.4779,5.8224,6.183,6.3181,6.4669,6.7181,6.7681,6.8397,7.0117,7.0415,7.0845,7.1712,7.1834,7.1912,7.1963,7.2,7.2,7.2,7.1996,7.1994,7.1994,7.199,7.1987,7.1987,7.1987,7.199,7.1994,7.1994,7.1991,7.1987,7.1987,7.1987,7.1989,7.2,7.2005,7.2005,7.2054,7.2057,7.2019,7.2058,7.2062,7.199,7.1992,7.1992,7.1992,7.1992,7.1992,7.1992,7.1992,7.1992,7.1992,7.1992,7.1992,7.1992,7.1992,7.1992,7.1992,7.1992,7.1992,7.1992,7.1992,7.1992,7.1992,7.1992,7.1992,7.1992,7.1992,7.1992,7.1992,7.1992,7.1992,7.1992,7.1992,7.1992,7.1992,7.1992,7.1992,7.1992,7.1992,7.1992,7.1992,7.1992,7.1992,7.2734,7.4492,7.4609,7.539,7.7148,7.7187,7.7187,7.7187,7.7187,7.7187,7.7187,7.7187,7.7187,7.7226,7.8086,7.8906,2.8818,3.2538,3.6168,3.8328,4.1518,4.4742,4.7067,4.8233,4.9823,5.3614,5.4621,5.4974,5.5518,5.7577,5.9901,6.2291,6.3392,6.471,6.671,6.7506,6.8121,6.8808,6.9357,6.9838,7.0265,7.0806,7.1148,7.1208,7.1675,7.1987,7.1987,7.1987,7.1991,7.2,7.2,7.2003,7.2009,7.2009,7.2006,7.2,7.2,7.2,7.2,7.2006,7.2009,7.201,7.2013,7.2015,7.2015,7.2018,7.1983,7.1987,7.199,7.1991,7.1992,7.1992,7.1992,7.1992,7.1992,7.1992,7.1992,7.1992,7.1992,7.1992,7.1992,7.1992,7.1992,7.1992,7.1992,7.1992,7.1992,7.1992,7.1992,7.1992,7.1992,7.1992,7.1992,7.1992,7.1992,7.1992,7.1992,7.1992,7.1992,7.1992,7.1992,7.1992,7.1992,7.1992,7.1992,7.1992,7.1992,7.1992,7.1992,7.1992,7.1992,7.1992,7.25,7.3711,7.4297,7.539,7.7148,7.7187,7.7187,7.7187,7.7187,7.7187,7.7187,7.7187,7.7187,7.7226,7.8086,7.8945,2.8883,3.3116,3.7501,3.9172,4.2887,4.6829,4.9567,5.0928,5.2827,5.7036,5.7457,5.734,5.8237,5.9092,6.0332,6.2352,6.3444,6.4622,6.6365,6.7164,6.7681,6.8006,6.8514,6.9018,6.9377,6.9957,7.0309,7.0309,7.1093,7.1605,7.1605,7.1841,7.2003,7.201,7.201,7.2012,7.2016,7.2016,7.2013,7.2006,7.2009,7.2009,7.2006,7.2016,7.2019,7.198,7.1983,7.1984,7.1984,7.1986,7.1989,7.1991,7.1992,7.1992,7.1992,7.1992,7.1992,7.1992,7.1992,7.1992,7.1992,7.1992,7.1992,7.1992,7.1992,7.1992,7.1992,7.1992,7.1992,7.1992,7.1992,7.1992,7.1992,7.1992,7.1992,7.1992,7.1992,7.1992,7.1992,7.1992,7.1992,7.1992,7.1992,7.1992,7.1992,7.1992,7.1992,7.1992,7.1992,7.1992,7.1992,7.1992,7.1992,7.1992,7.1992,7.1992,7.2383,7.3242,7.4101,7.5273,7.6719,7.7031,7.7187,7.7187,7.7187,7.7187,7.7187,7.7187,7.7187,7.7226,7.7812,7.8515,3.1661,3.4444,3.7955,4.1369,4.4197,4.7482,5.2569,5.3105,5.4227,6.0176,6.0017,5.9088,5.9943,5.9399,5.971,6.2274,6.3447,6.4649,6.6439,6.6751,6.7106,6.7971,6.8082,6.8435,6.9295,6.9373,6.9373,6.9373,7.0205,7.068,7.068,7.1508,7.198,7.198,7.198,7.1977,7.2006,7.1967,7.1967,7.2006,7.1977,7.1977,7.2006,7.2016,7.198,7.1981,7.1988,7.199,7.199,7.1992,7.1992,7.1992,7.1992,7.1992,7.1992,7.1992,7.1992,7.1992,7.1992,7.1992,7.1992,7.1992,7.1992,7.1992,7.1992,7.1992,7.1992,7.1992,7.1992,7.1992,7.1992,7.1992,7.1992,7.1992,7.1992,7.1992,7.1992,7.1992,7.1992,7.1992,7.1992,7.1992,7.1992,7.1992,7.1992,7.1992,7.1992,7.1992,7.1992,7.1992,7.1992,7.1992,7.1992,7.1992,7.1992,7.1992,7.2383,7.3242,7.4101,7.5,7.5859,7.6758,7.7187,7.7187,7.7187,7.7187,7.7187,7.7187,7.7187,7.7187,7.7187,7.7656,3.0958,3.49,3.9603,4.243,4.7344,5.2215,5.4908,5.5773,5.7023,6.0607,6.0971,6.0522,6.0176,6.0875,6.1803,6.2641,6.4029,6.5387,6.6596,6.6793,6.689,6.7149,6.7185,6.7304,6.7538,6.8122,6.8474,6.8474,6.9297,6.9809,6.9809,7.0045,7.0172,7.0184,7.0184,7.0461,7.1091,7.0505,7.0815,7.1977,7.1363,7.1404,7.1985,7.199,7.1991,7.1991,7.1992,7.1992,7.1992,7.1992,7.1992,7.1992,7.1992,7.1992,7.1992,7.1992,7.1992,7.1992,7.1992,7.1992,7.1992,7.1992,7.1992,7.1992,7.1992,7.1992,7.1992,7.1992,7.1992,7.1992,7.1992,7.1992,7.1992,7.1992,7.1992,7.1992,7.1992,7.1992,7.1992,7.1992,7.1992,7.1992,7.1992,7.1992,7.1992,7.1992,7.1992,7.1992,7.1992,7.1992,7.1992,7.1992,7.1992,7.1992,7.1992,7.1992,7.2109,7.2383,7.3789,7.5,7.5859,7.6758,7.7187,7.7187,7.7187,7.7187,7.7187,7.7187,7.7187,7.7187,7.7187,7.7656,3.385,3.7907,4.2563,4.6146,5.0431,5.4549,5.7553,5.8676,5.9498,6.1034,6.1091,6.0854,6.0679,6.1229,6.2052,6.3134,6.4219,6.5344,6.6601,6.6784,6.6798,6.6802,6.6799,6.6798,6.6802,6.7271,6.7582,6.7582,6.8412,6.8924,6.8924,6.924,6.9403,6.941,6.941,6.9645,7.0194,6.9687,6.9958,7.0966,7.0427,7.0468,7.1015,7.1718,7.1992,7.1992,7.1992,7.1992,7.1992,7.1992,7.1992,7.1992,7.1992,7.1992,7.1992,7.1992,7.1992,7.1992,7.1992,7.1992,7.1992,7.1992,7.1992,7.1992,7.1992,7.1992,7.1992,7.1992,7.1992,7.1992,7.1992,7.1992,7.1992,7.1992,7.1992,7.1992,7.1992,7.1992,7.1992,7.1992,7.1992,7.1992,7.1992,7.1992,7.1992,7.1992,7.1992,7.1992,7.1992,7.1992,7.1992,7.1992,7.1992,7.1992,7.1992,7.1992,7.1992,7.1992,7.332,7.4453,7.5351,7.6562,7.7187,7.7187,7.7187,7.7187,7.7187,7.7187,7.7187,7.7187,7.7187,7.7461,3.8478,4.1993,4.5905,5.102,5.324,5.5407,6.013,6.1326,6.1401,6.1384,6.0766,6.0466,6.1361,6.0913,6.1218,6.359,6.4095,6.4765,6.6367,6.6628,6.6686,6.6695,6.6767,6.6803,6.6812,6.6813,6.6813,6.6813,6.7609,6.8082,6.8082,6.8788,6.9179,6.918,6.918,6.9217,6.9287,6.9214,6.9254,6.9403,6.9332,6.9374,6.9531,7.1133,7.1914,7.1992,7.1992,7.1992,7.1992,7.1992,7.1992,7.1992,7.1992,7.1992,7.1992,7.1992,7.1992,7.1992,7.1992,7.1992,7.1992,7.1992,7.1992,7.1992,7.1992,7.1992,7.1992,7.1992,7.1992,7.1992,7.1992,7.1992,7.1992,7.1992,7.1992,7.1992,7.1992,7.1992,7.1992,7.1992,7.1992,7.1992,7.1992,7.1992,7.1992,7.1992,7.1992,7.1992,7.1992,7.1992,7.1992,7.1992,7.1992,7.1992,7.1992,7.1992,7.1992,7.1992,7.2812,7.3672,7.4453,7.6172,7.7109,7.7187,7.7187,7.7187,7.7187,7.7187,7.7187,7.7187,7.7187,7.7187,3.7051,4.0673,4.5095,5.0197,5.4679,5.8493,6.09,6.1502,6.1529,6.1334,6.1211,6.1229,6.153,6.1931,6.2425,6.3068,6.3741,6.4334,6.4761,6.5418,6.5844,6.5846,6.647,6.6899,6.6861,6.6862,6.6862,6.6862,6.706,6.7179,6.7179,6.7336,6.7456,6.7459,6.7459,6.7771,6.8434,6.7772,6.8084,6.9404,6.8748,6.8788,6.9451,7.0507,7.1367,7.1992,7.1992,7.1992,7.1992,7.1992,7.1992,7.1992,7.1992,7.1992,7.1992,7.1992,7.1992,7.1992,7.1992,7.1992,7.1992,7.1992,7.1992,7.1992,7.1992,7.1992,7.1992,7.1992,7.1992,7.1992,7.1992,7.1992,7.1992,7.1992,7.1992,7.1992,7.1992,7.1992,7.1992,7.1992,7.1992,7.1992,7.1992,7.1992,7.1992,7.1992,7.1992,7.1992,7.1992,7.1992,7.1992,7.1992,7.1992,7.1992,7.1992,7.1992,7.1992,7.1992,7.2812,7.3398,7.3555,7.5234,7.6484,7.7187,7.7187,7.7187,7.7187,7.7187,7.7187,7.7187,7.7187,7.7187,3.7415,4.1218,4.5699,5.2047,5.6614,5.9854,6.1123,6.1454,6.1499,6.1445,6.1465,6.1517,6.1592,6.1951,6.2396,6.2851,6.332,6.3789,6.4248,6.4676,6.499,6.4993,6.5382,6.5655,6.5657,6.6048,6.6283,6.6283,6.6676,6.6911,6.6911,6.6911,6.6912,6.6913,6.6912,6.7107,6.7575,6.7147,6.7342,6.8197,6.7773,6.8008,6.8866,6.9687,7.0351,7.0781,7.0781,7.0781,7.0742,7.0742,7.0781,7.0781,7.0781,7.1015,7.1367,7.1367,7.164,7.1992,7.1992,7.1992,7.1992,7.1992,7.1992,7.1992,7.1992,7.1992,7.1992,7.1992,7.1992,7.1992,7.1992,7.1992,7.1992,7.1992,7.1992,7.1992,7.1992,7.1992,7.1992,7.1992,7.1992,7.1992,7.1992,7.1992,7.1992,7.1992,7.1992,7.1992,7.1992,7.1992,7.1992,7.1992,7.1992,7.1992,7.1992,7.1992,7.1992,7.1992,7.2422,7.2851,7.3281,7.418,7.5273,7.6562,7.6992,7.7187,7.7187,7.7187,7.7187,7.7187,7.7187,7.7187,3.7309,4.1732,4.6793,5.4227,5.7792,5.9759,6.0884,6.1175,6.131,6.1545,6.1602,6.1586,6.1629,6.1634,6.1873,6.2652,6.2766,6.304,6.3742,6.3977,6.4095,6.4099,6.4214,6.4291,6.4295,6.4959,6.5389,6.5389,6.6054,6.6523,6.668,6.6679,6.6758,6.6914,6.6913,6.6911,6.6911,6.6912,6.6912,6.6911,6.6914,6.7265,6.8008,6.8672,6.914,6.9492,6.9492,6.9453,6.9414,6.9414,6.9453,6.9492,6.9414,6.9844,7.0508,7.0508,7.0937,7.1562,7.1562,7.164,7.1797,7.1797,7.1875,7.1992,7.1992,7.1992,7.1992,7.1992,7.1992,7.1992,7.1992,7.1992,7.1992,7.1992,7.1992,7.1992,7.1992,7.1992,7.1992,7.1992,7.1992,7.1992,7.1992,7.1992,7.1992,7.1992,7.1992,7.1992,7.1992,7.1992,7.1992,7.1992,7.1992,7.1992,7.1992,7.1992,7.1992,7.1992,7.1992,7.2305,7.3047,7.3203,7.4062,7.5625,7.6523,7.7031,7.7187,7.7187,7.7187,7.7187,7.7187,7.7187,3.334,3.9937,4.7423,5.3684,5.6111,5.7605,5.991,6.0506,6.0741,6.1523,6.1631,6.1614,6.1678,6.1679,6.1719,6.1836,6.1875,6.1914,6.2031,6.2695,6.3164,6.3164,6.3828,6.4297,6.4297,6.4414,6.4453,6.4453,6.457,6.4961,6.5742,6.578,6.6132,6.6875,6.6913,6.6911,6.6911,6.6913,6.6913,6.6911,6.6914,6.6953,6.707,6.7187,6.8047,6.9492,6.9453,6.9453,6.9492,6.9492,6.9453,6.9414,6.9453,6.957,6.9648,6.9648,6.9726,6.9844,6.9844,7.0273,7.0859,7.0859,7.1367,7.1992,7.1992,7.1992,7.1992,7.1992,7.1992,7.1992,7.1992,7.1992,7.1992,7.1992,7.1992,7.1992,7.1992,7.1992,7.1992,7.1992,7.1992,7.1992,7.1992,7.1992,7.1992,7.1992,7.1992,7.1992,7.1992,7.1992,7.1992,7.1992,7.1992,7.1992,7.1992,7.1992,7.1992,7.1992,7.1992,7.2031,7.2187,7.289,7.375,7.4765,7.5625,7.6445,7.7187,7.7187,7.7187,7.7187,7.7187,7.7187,3.5392,4.0677,4.6115,5.2186,5.4744,5.6327,5.8436,5.9685,6.0495,6.0892,6.1328,6.1677,6.168,6.1719,6.1719,6.1719,6.1719,6.1719,6.1719,6.2031,6.2265,6.2265,6.2617,6.2851,6.2851,6.3281,6.3555,6.3555,6.4023,6.4452,6.4843,6.4881,6.5037,6.5429,6.5428,6.5662,6.6171,6.6171,6.6405,6.6913,6.6914,6.6914,6.6914,6.6914,6.7305,6.8047,6.8008,6.8008,6.8047,6.8047,6.8047,6.8008,6.8047,6.8359,6.8789,6.8789,6.9062,6.9453,6.9492,6.9726,6.9961,6.9961,7.0547,7.1289,7.1289,7.1601,7.1992,7.1992,7.1992,7.1992,7.1992,7.1992,7.1992,7.1992,7.1992,7.1992,7.1992,7.1992,7.1992,7.1992,7.1992,7.1992,7.1992,7.1992,7.1992,7.1992,7.1992,7.1992,7.1992,7.1992,7.1992,7.1992,7.1992,7.1992,7.1992,7.1992,7.1992,7.1992,7.1992,7.1992,7.1992,7.2383,7.2969,7.3867,7.5195,7.6328,7.7187,7.7187,7.7187,7.7187,7.7187,7.7187,3.5606,3.9297,4.2711,4.879,5.1949,5.4217,5.6639,5.8349,5.9549,5.9988,6.0775,6.1365,6.1367,6.1562,6.1719,6.1719,6.1719,6.1719,6.1719,6.1719,6.1719,6.1719,6.1719,6.1719,6.1719,6.2305,6.2656,6.2656,6.328,6.3748,6.3943,6.3981,6.406,6.4296,6.4295,6.4608,6.5273,6.5507,6.5937,6.6562,6.6797,6.6914,6.6914,6.6914,6.6914,6.6914,6.6914,6.6914,6.6914,6.6914,6.6914,6.6914,6.6914,6.7305,6.7851,6.7851,6.8242,6.8789,6.8828,6.8945,6.9101,6.9101,6.9687,7.0351,7.039,7.0859,7.1328,7.1328,7.1484,7.168,7.168,7.1836,7.1953,7.1719,7.1836,7.1992,7.1992,7.1992,7.1992,7.1992,7.1992,7.1992,7.1992,7.1992,7.1992,7.1992,7.1992,7.1992,7.1992,7.1992,7.1992,7.1992,7.1992,7.1992,7.1992,7.1992,7.1992,7.1992,7.1992,7.1992,7.1992,7.1992,7.2422,7.3281,7.457,7.5664,7.6523,7.6523,7.6523,7.6523,7.6523,7.664,3.0195,3.3066,3.6515,4.2566,4.6601,5.0246,5.4464,5.614,5.7235,5.8847,5.987,6.0463,6.0466,6.1132,6.1719,6.1719,6.1719,6.1719,6.1719,6.1719,6.1719,6.1719,6.1719,6.1719,6.1719,6.1758,6.1758,6.1756,6.1795,6.2185,6.3006,6.308,6.3433,6.4258,6.4296,6.4334,6.4375,6.5195,6.5625,6.5664,6.6523,6.6914,6.6914,6.6914,6.6914,6.6914,6.6914,6.6914,6.6914,6.6914,6.6914,6.6914,6.6914,6.6914,6.6953,6.6953,6.6992,6.7031,6.7031,6.7578,6.8242,6.8242,6.8828,6.9492,6.9531,6.9531,6.9531,6.9531,7.0117,7.0781,7.0781,7.1367,7.1797,7.0976,7.1406,7.1992,7.1992,7.1992,7.1992,7.1992,7.1992,7.1992,7.1992,7.1992,7.1992,7.1992,7.1992,7.1992,7.1992,7.1992,7.1992,7.1992,7.1992,7.1992,7.1992,7.1992,7.1992,7.1992,7.1992,7.1992,7.1992,7.1992,7.2422,7.3281,7.3398,7.3867,7.4726,7.4726,7.4726,7.4726,7.4726,7.5195,2.9803,3.1454,3.3628,3.9648,4.3352,4.6378,4.9618,5.274,5.5243,5.6425,5.7757,5.8934,5.9528,6.0742,6.1719,6.1719,6.1719,6.1719,6.1719,6.1719,6.1719,6.1719,6.1719,6.1719,6.1718,6.1718,6.1718,6.1717,6.1717,6.1834,6.2146,6.2184,6.2302,6.2616,6.2617,6.289,6.3476,6.4336,6.5039,6.5586,6.5937,6.6367,6.6914,6.6914,6.6914,6.6914,6.6914,6.6914,6.6914,6.6914,6.6914,6.6914,6.6914,6.6914,6.6914,6.6914,6.6914,6.6914,6.6914,6.7109,6.7383,6.7383,6.793,6.8633,6.8672,6.9023,6.9414,6.9453,6.9687,6.9922,6.9883,7.0117,7.0273,7.0,6.9883,6.9922,7.0273,7.1211,7.1992,7.1992,7.1992,7.1992,7.1992,7.1992,7.1992,7.1992,7.1992,7.1992,7.1992,7.1992,7.1992,7.1992,7.199,7.1987,7.1987,7.1987,7.1987,7.1987,7.1991,7.1992,7.1992,7.1992,7.2148,7.2456,7.2456,7.3162,7.4609,7.4609,7.4609,7.4609,7.4609,7.4765,2.8421,2.947,3.1323,3.7069,3.9832,4.2318,4.6963,4.9773,5.2001,5.4001,5.5761,5.725,5.8157,5.9685,6.0937,6.1211,6.1523,6.1719,6.1719,6.1719,6.1719,6.1719,6.1719,6.1719,6.1718,6.1718,6.1718,6.1717,6.1717,6.1717,6.1717,6.1717,6.1717,6.1718,6.1719,6.1992,6.2578,6.3437,6.414,6.4726,6.5039,6.5625,6.6445,6.6445,6.6601,6.6914,6.6834,6.6873,6.6914,6.6914,6.6914,6.6914,6.6914,6.6914,6.6914,6.6914,6.6874,6.6832,6.6875,6.6871,6.6819,6.6829,6.7217,6.7677,6.7677,6.8028,6.8458,6.8497,6.8732,6.8927,6.8888,6.8849,6.8966,6.9279,6.8857,6.8589,6.9214,7.0507,7.1484,7.1211,7.1367,7.1484,7.1211,7.1367,7.1562,7.1562,7.1797,7.1992,7.1991,7.1991,7.199,7.1987,7.1979,7.1972,7.1972,7.1972,7.1972,7.1972,7.1982,7.1987,7.1987,7.1987,7.1984,7.1972,7.1972,7.2525,7.3706,7.3706,7.3708,7.3749,7.3749,7.3865,0.0,0.0,0.0,3.4492,3.5849,3.81,4.6495,4.7198,4.7316,5.161,5.3844,5.5333,5.631,5.7839,5.9252,6.0156,6.1055,6.164,6.164,6.164,6.168,6.1719,6.1719,6.1719,6.1719,6.1719,6.1718,6.1717,6.1717,6.1717,6.1717,6.1717,6.1718,6.1719,6.1719,6.1719,6.1719,6.2539,6.2969,6.3008,6.3867,6.4726,6.5547,6.5586,6.6055,6.6835,6.6737,6.678,6.6875,6.6875,6.6875,6.6875,6.6875,6.6875,6.6875,6.6875,6.6827,6.6723,6.6833,6.6762,6.661,6.6696,6.6631,6.6592,6.6592,6.6592,6.6592,6.6592,6.718,6.7767,6.7767,6.7767,6.7961,6.8824,6.8464,6.82,6.9022,6.9951,7.039,6.9648,7.0117,7.039,6.9648,7.0156,7.0703,7.0703,7.1445,7.1991,7.1982,7.2019,7.1973,7.1912,7.1908,7.1906,7.1908,7.1906,7.1906,7.1908,7.1909,7.1909,7.1906,7.1909,7.1908,7.1905,7.1905,7.1905,7.1905,7.1906,7.1921,7.1978,7.1977,7.2358,2.5949,0.0,0.0,0.0,0.0,0.0,3.8569,4.0171,4.2124,4.7042,4.845,4.9821,5.3146,5.4673,5.5888,5.7417,5.8904,6.0077,6.0664,6.0742,6.0976,6.164,6.1717,6.1717,6.1714,6.1716,6.1717,6.1717,6.1718,6.1718,6.1718,6.1718,6.1719,6.1719,6.1719,6.1719,6.1719,6.1953,6.2383,6.3008,6.3242,6.3787,6.4592,6.5272,6.5653,6.578,6.6434,6.6702,6.6672,6.6672,6.6672,6.6672,6.6672,6.6672,6.6672,6.6672,6.6656,6.664,6.6664,6.664,6.6598,6.6626,6.6617,6.6592,6.6592,6.6592,6.6592,6.6592,6.6748,6.6943,6.6943,6.6943,6.6985,6.7219,6.7124,6.7066,6.73,6.8024,6.8773,6.9334,6.9609,6.9687,6.9453,7.0154,7.0697,7.0697,7.1392,7.1928,7.1922,7.1921,7.1918,7.191,7.1716,7.1677,7.1866,7.1731,7.1679,7.1905,7.1896,7.181,7.167,7.1806,7.1796,7.1608,7.1605,7.1623,7.1615,7.1669,7.1674,7.1725,7.1527,7.1514,0.0,0.0,0.0,3.1753,0.0,0.0,3.7204,3.8102,3.943,4.4232,4.6066,4.7707,5.0564,5.2088,5.338,5.4754,5.6125,5.769,5.9607,5.9882,6.0077,6.0584,6.0935,6.1169,6.1168,6.1483,6.1718,6.1718,6.1719,6.1719,6.1719,6.1719,6.1719,6.1719,6.1719,6.1719,6.1719,6.1719,6.1953,6.2461,6.2419,6.2838,6.3677,6.4152,6.4512,6.481,6.5645,6.6003,6.601,6.6298,6.65,6.6592,6.6592,6.6592,6.6592,6.6592,6.6563,6.6525,6.6577,6.6528,6.644,6.65,6.6478,6.6429,6.6429,6.6429,6.6429,6.6429,6.6429,6.6429,6.6429,6.6429,6.6429,6.6429,6.6474,6.6516,6.6516,6.6911,6.7489,6.8125,6.8534,6.8698,6.8352,6.8958,6.9647,7.0102,7.0714,7.1273,7.1679,7.1646,7.1605,7.1578,7.142,7.1407,7.1545,7.1428,7.1412,7.1545,7.1553,7.1501,7.1412,7.1495,7.1478,7.1331,7.1327,7.1299,7.1195,7.1323,7.1424,7.1418,7.1283,7.1171,3.1821,3.2148,0.0,3.6193,3.4823,0.0,3.9001,3.8493,3.8102,4.2045,4.4621,4.6533,4.7744,4.9307,5.0755,5.1818,5.2875,5.4792,5.8312,5.8941,5.9099,5.9178,5.9842,6.0272,6.0273,6.0976,6.1445,6.1562,6.164,6.1719,6.1719,6.1719,6.1719,6.1719,6.1679,6.1679,6.1679,6.1678,6.1678,6.1677,6.1616,6.1983,6.2719,6.2699,6.3122,6.3876,6.4626,6.4951,6.4998,6.5761,6.6277,6.6555,6.6555,6.6555,6.6555,6.6555,6.6481,6.6384,6.6516,6.6388,6.6215,6.6351,6.6294,6.6185,6.6185,6.6185,6.6185,6.6185,6.6185,6.6185,6.6185,6.6185,6.6185,6.6185,6.6285,6.6361,6.6361,6.6471,6.6555,6.6555,6.7241,6.761,6.682,6.7272,6.8112,6.9066,6.9657,7.0289,7.1088,7.1197,7.1135,7.0993,7.1037,7.107,7.1093,7.107,7.107,7.1098,7.1098,7.1087,7.1059,7.1082,7.1082,7.1059,7.1059,7.0976,7.0773,7.0976,7.1059,7.11,7.11,7.1081,3.5429,3.6596,3.7638,3.4861,3.5759,0.0,3.4394,3.455,3.5642,3.7203,3.7359,3.8336,4.1928,4.3456,4.4904,4.717,4.9405,5.2301,5.6482,5.7693,5.8396,5.9138,5.9334,5.9412,5.9412,5.9608,5.996,6.0586,6.1289,6.1719,6.1719,6.1719,6.1719,6.1719,6.1631,6.1618,6.1618,6.1496,6.1465,6.1465,6.145,6.1517,6.1627,6.2364,6.2717,6.2749,6.3678,6.4035,6.4043,6.489,6.5654,6.6267,6.6267,6.6267,6.6267,6.6267,6.6244,6.6254,6.6253,6.6254,6.619,6.6235,6.622,6.6185,6.6185,6.6185,6.6185,6.6185,6.6185,6.6185,6.6185,6.6185,6.6185,6.6185,6.6215,6.6245,6.6245,6.6278,6.6267,6.6267,6.662,6.6807,6.6661,6.7193,6.7698,6.7937,6.905,6.9755,6.9232,7.0315,7.0854,7.0186,7.0578,7.0914,7.1082,7.0951,7.092,7.1082,7.1098,7.1047,7.087,7.0991,7.1008,7.087,7.0863,7.0721,7.0477,7.0721,7.0755,7.0547,7.0547,7.0563,3.9139,3.9794,4.0677,3.8961,3.8882,0.0,0.0,3.6268,3.6462,3.818,3.7517,3.7557,4.0566,4.1467,4.2486,4.4635,4.718,4.9606,5.1795,5.3943,5.5623,5.6482,5.6599,5.6951,5.7812,5.8281,5.8906,5.9726,6.0586,6.1055,6.1055,6.1442,6.1632,6.1632,6.1553,6.1519,6.1519,6.1437,6.1412,6.1412,6.1359,6.1337,6.1306,6.1737,6.1838,6.1819,6.2698,6.3072,6.3129,6.3985,6.4604,6.503,6.5876,6.6185,6.6185,6.6185,6.6185,6.6185,6.6185,6.6185,6.6185,6.6185,6.6185,6.6185,6.6185,6.6185,6.6185,6.6185,6.6185,6.6185,6.6185,6.6185,6.6185,6.6185,6.6185,6.6185,6.6185,6.6185,6.6185,6.6185,6.6308,6.6414,6.6491,6.6655,6.694,6.7499,6.8,6.8347,6.8444,6.9072,6.9334,6.8956,6.9159,6.94,6.9513,6.9428,6.9592,7.0122,7.0136,7.0291,7.0593,7.07,7.0707,7.0593,7.0585,7.0547,7.0411,7.0547,7.054,7.0411,7.0411,7.0411,4.2691,4.2721,4.3371,4.3217,4.224,4.1108,0.0,0.0,0.0,3.982,3.9041,3.8575,4.01,4.0221,4.0615,4.2219,4.4642,4.6324,4.6131,4.8787,5.1287,5.2811,5.3319,5.4101,5.5703,5.6328,5.7148,5.8359,5.8906,5.9453,6.0116,6.0919,6.1404,6.155,6.1437,6.1383,6.1383,6.1359,6.1348,6.1348,6.1281,6.1263,6.1256,6.1152,6.1118,6.1157,6.1848,6.2158,6.2235,6.3096,6.3444,6.3637,6.5296,6.5953,6.5992,6.6147,6.6185,6.6185,6.6185,6.6185,6.6185,6.6185,6.6185,6.6185,6.6185,6.6185,6.6185,6.6185,6.6185,6.6185,6.6185,6.6185,6.6185,6.6185,6.6185,6.6185,6.6185,6.6185,6.6185,6.6185,6.6185,6.6235,6.6295,6.6064,6.619,6.7086,6.6929,6.6957,6.7637,6.7835,6.7828,6.7676,6.7828,6.7905,6.7905,6.7905,6.8211,6.889,6.912,6.9502,7.0143,7.0334,7.0411,7.0411,7.0411,7.0411,7.0411,7.0411,7.0411,7.0411,7.0411,7.0411,4.5992,4.6341,4.6104,4.2358,4.4075,4.4933,3.8139,0.0,3.9898,3.7125,0.0,3.6589,3.7566,0.0,0.0,3.7889,4.0234,4.164,4.0898,4.2382,4.5038,4.9023,5.0781,5.207,5.3047,5.2539,5.3125,5.5547,5.5117,5.6013,5.8996,5.9966,6.0761,6.1392,6.1361,6.1291,6.1291,6.1189,6.1143,6.1143,6.1121,6.1112,6.1112,6.1127,6.1118,6.1118,6.1195,6.1234,6.1311,6.2196,6.2544,6.2704,6.445,6.5146,6.5223,6.5953,6.6185,6.6185,6.6185,6.6185,6.6185,6.6185,6.6185,6.6185,6.6185,6.6185,6.6185,6.6185,6.6185,6.6185,6.6185,6.6185,6.6185,6.6185,6.6185,6.6185,6.6185,6.6185,6.6185,6.6185,6.6185,6.616,6.6041,6.591,6.582,6.5813,6.6334,6.6453,6.581,6.7011,6.7637,6.6904,6.7477,6.7905,6.7905,6.7905,6.7943,6.8058,6.8776,6.9234,6.9311,7.0029,7.0411,7.0411,7.0411,7.0411,7.0411,7.0411,7.0411,7.0411,7.0411,7.0411,4.6534,4.6924,4.6924,4.4075,4.4348,4.4348,4.056,3.9663,3.9665,3.9708,0.0,0.0,0.0,0.0,0.0,0.0,3.8203,3.8633,3.7773,3.9101,4.16,4.543,4.6054,4.7304,5.0195,5.0115,5.0778,5.289,5.2645,5.368,5.6643,5.8447,5.9734,6.0577,6.0976,6.116,6.116,6.1121,6.1118,6.1118,6.1118,6.1118,6.1118,6.1118,6.1118,6.1118,6.1118,6.1118,6.1118,6.15,6.1655,6.1771,6.3013,6.4097,6.503,6.5378,6.5799,6.6185,6.6185,6.6185,6.6185,6.6185,6.6185,6.6185,6.6185,6.6185,6.6185,6.6185,6.6185,6.6185,6.6185,6.6185,6.6185,6.6185,6.6185,6.6185,6.6185,6.6185,6.6185,6.6185,6.6185,6.6149,6.603,6.5907,6.5763,6.5705,6.5908,6.5893,6.5459,6.607,6.6391,6.5994,6.6254,6.6445,6.6445,6.6445,6.6674,6.7171,6.847,6.9425,6.9884,7.022,7.0411,7.0411,7.0411,7.0411,7.0411,7.0411,7.0411,7.0411,7.0411,7.0411,4.6963,4.7276,4.7275,4.4581,4.3801,4.3295,4.1732,4.0484,4.0174,4.2016,4.0808,0.0,0.0,0.0,0.0,0.0,0.0,3.6836,3.5469,3.6366,3.8358,4.1562,4.2226,4.3632,4.6795,4.6631,4.7329,4.9757,4.9405,5.0656,5.4216,5.6469,5.8259,5.9575,6.0377,6.0886,6.1118,6.1118,6.1118,6.1118,6.1118,6.1118,6.1118,6.1118,6.1118,6.1118,6.1118,6.1118,6.1118,6.1118,6.1123,6.1171,6.1814,6.2984,6.4353,6.4571,6.5146,6.5876,6.5876,6.6031,6.6185,6.6185,6.6185,6.6185,6.6185,6.6185,6.6185,6.6185,6.6185,6.6185,6.6185,6.6185,6.6185,6.6185,6.6185,6.6185,6.6185,6.6185,6.6175,6.6144,6.6139,6.6102,6.5978,6.5844,6.5808,6.5769,6.5635,6.5501,6.5429,6.5472,6.5494,6.5429,6.5413,6.539,6.5435,6.5436,6.5872,6.698,6.8165,6.9311,7.0372,7.0411,7.0411,7.0411,7.0411,7.0411,7.0411,7.0411,7.0411,7.0411,7.0411,7.0411,4.8017,0.0,4.7549,4.2475,4.2475,4.2826,3.947,4.0562,4.2281,4.2367,4.3661,4.4525,0.0,0.0,0.0,0.0,0.0,0.0,0.0,3.3515,3.453,3.7187,4.0391,4.242,4.2515,4.1031,4.1797,4.5956,4.4705,4.6263,5.2075,5.4047,5.6153,5.8583,5.9498,6.0306,6.1079,6.1118,6.1118,6.1118,6.1118,6.1118,6.1118,6.1118,6.1118,6.1118,6.1118,6.1118,6.1118,6.1118,6.1141,6.1177,6.1171,6.1731,6.2658,6.3463,6.4295,6.503,6.503,6.5533,6.6185,6.6185,6.6185,6.6185,6.6185,6.6185,6.6185,6.6185,6.6185,6.6185,6.6185,6.6185,6.6185,6.6185,6.6185,6.6185,6.6185,6.6185,6.6155,6.6036,6.6013,6.5973,6.5852,6.5788,6.5776,6.5629,6.5479,6.5383,6.5413,6.5421,6.5383,6.5413,6.5413,6.5435,6.558,6.5457,6.6101,6.7752,6.7905,6.8661,7.0334,7.0411,7.0411,7.0411,7.0411,7.0411,7.0411,7.0411,7.0411,7.0411,7.0411,7.0411,0.0,0.0,4.9579,4.5559,0.0,4.3801,4.0913,4.0918,4.1704,4.2296,4.3784,4.4724,0.0,0.0,0.0,0.0,0.0,0.0,0.0,3.2617,3.3125,3.4531,3.7265,3.9019,3.8916,3.8893,4.0157,4.3293,4.2908,4.4896,5.0333,5.2743,5.5149,5.7675,5.9145,6.0306,6.1079,6.1118,6.1118,6.1118,6.1118,6.1118,6.1118,6.1118,6.1118,6.1118,6.1118,6.1118,6.1118,6.1118,6.1146,6.1182,6.1168,6.1389,6.1815,6.2619,6.3414,6.4227,6.4803,6.5543,6.6274,6.62,6.6185,6.6185,6.6185,6.6185,6.6185,6.6185,6.6185,6.6185,6.6185,6.6185,6.6185,6.6185,6.6185,6.6165,6.6085,6.6069,6.6036,6.5875,6.5881,6.5925,6.5839,6.5744,6.5717,6.5615,6.5559,6.5487,6.5429,6.5465,6.5487,6.5421,6.5413,6.5436,6.545,6.5444,6.5872,6.7018,6.7599,6.8402,6.9578,7.0105,7.0411,7.0411,7.0506,7.0538,7.0538,7.0601,7.0593,7.0593,7.0593,7.0523,5.1101,5.1417,0.0,4.7985,4.6581,0.0,4.2601,4.2253,4.2647,4.3198,4.445,4.5467,0.0,0.0,0.0,0.0,0.0,0.0,0.0,3.2265,3.2577,3.2494,3.4526,3.6236,3.705,3.6502,3.7624,4.1356,4.1025,4.2915,4.8092,5.1033,5.3614,5.5892,5.8217,5.9846,6.0654,6.0963,6.1118,6.1118,6.1118,6.1118,6.1118,6.1118,6.1127,6.1141,6.1123,6.1137,6.1168,6.115,6.1177,6.1234,6.126,6.1242,6.1356,6.1892,6.2564,6.3437,6.4594,6.5373,6.5872,6.6128,6.6239,6.621,6.619,6.6185,6.6185,6.6185,6.6185,6.6185,6.6185,6.6155,6.6123,6.6123,6.6112,6.6074,6.5996,6.599,6.5973,6.5846,6.582,6.5858,6.5724,6.5703,6.5656,6.5608,6.5559,6.5487,6.5429,6.5457,6.5494,6.5428,6.5459,6.5466,6.5457,6.5509,6.5899,6.6727,6.7263,6.8067,6.9207,6.978,7.0201,7.0507,7.0601,7.0632,7.0632,7.0685,7.0715,7.0715,7.0715,7.0616]}]]